<?xml version="1.0" encoding="UTF-8" standalone="no" ?>
<gpx xmlns="http://www.topografix.com/GPX/1/1" xmlns:xsi="http://www.w3.org/2001/XMLSchema-instance" xsi:schemaLocation="http://www.topografix.com/GPX/1/1 http://www.topografix.com/GPX/1/1/gpx.xsd" version="1.1" creator="VisuGPX - https://www.visugpx.com">
  <metadata>
    <name>sortie VTT 6 juin 2010</name>
    <desc><![CDATA[Marignier-Chatillon-Taninges6briffes-Yvoray-Coux-Marigniert]]></desc>
  </metadata>
  <trk>
    <name><![CDATA[12-JUIN-10 12:04:57]]></name>
    <trkseg>
      <trkpt lat="46.07908" lon="6.50542">
        <ele>479.84</ele>
        <time>2010-06-12T06:37:50Z</time>
      </trkpt>
      <trkpt lat="46.07906" lon="6.50539">
        <ele>482.24</ele>
        <time>2010-06-12T06:37:52Z</time>
      </trkpt>
      <trkpt lat="46.079" lon="6.50539">
        <ele>481.76</ele>
        <time>2010-06-12T06:37:57Z</time>
      </trkpt>
      <trkpt lat="46.07893" lon="6.50553">
        <ele>482.24</ele>
        <time>2010-06-12T06:38:02Z</time>
      </trkpt>
      <trkpt lat="46.07887" lon="6.50617">
        <ele>481.28</ele>
        <time>2010-06-12T06:38:17Z</time>
      </trkpt>
      <trkpt lat="46.07877" lon="6.50715">
        <ele>480.8</ele>
        <time>2010-06-12T06:38:34Z</time>
      </trkpt>
      <trkpt lat="46.07865" lon="6.50839">
        <ele>480.32</ele>
        <time>2010-06-12T06:38:54Z</time>
      </trkpt>
      <trkpt lat="46.07857" lon="6.50918">
        <ele>475.51</ele>
        <time>2010-06-12T06:39:08Z</time>
      </trkpt>
      <trkpt lat="46.07856" lon="6.50922">
        <ele>481.28</ele>
        <time>2010-06-12T06:39:09Z</time>
      </trkpt>
      <trkpt lat="46.07856" lon="6.50928">
        <ele>477.91</ele>
        <time>2010-06-12T06:39:10Z</time>
      </trkpt>
      <trkpt lat="46.07855" lon="6.50932">
        <ele>480.8</ele>
        <time>2010-06-12T06:39:11Z</time>
      </trkpt>
      <trkpt lat="46.07845" lon="6.5102">
        <ele>480.32</ele>
        <time>2010-06-12T06:39:28Z</time>
      </trkpt>
      <trkpt lat="46.07839" lon="6.51022">
        <ele>480.32</ele>
        <time>2010-06-12T06:39:29Z</time>
      </trkpt>
      <trkpt lat="46.07835" lon="6.51022">
        <ele>479.84</ele>
        <time>2010-06-12T06:39:30Z</time>
      </trkpt>
      <trkpt lat="46.0783" lon="6.51021">
        <ele>480.32</ele>
        <time>2010-06-12T06:39:31Z</time>
      </trkpt>
      <trkpt lat="46.07826" lon="6.5102">
        <ele>480.32</ele>
        <time>2010-06-12T06:39:32Z</time>
      </trkpt>
      <trkpt lat="46.0776" lon="6.51001">
        <ele>479.35</ele>
        <time>2010-06-12T06:39:46Z</time>
      </trkpt>
      <trkpt lat="46.0769" lon="6.50982">
        <ele>478.87</ele>
        <time>2010-06-12T06:40:01Z</time>
      </trkpt>
      <trkpt lat="46.07613" lon="6.50963">
        <ele>477.91</ele>
        <time>2010-06-12T06:40:17Z</time>
      </trkpt>
      <trkpt lat="46.07604" lon="6.50961">
        <ele>477.91</ele>
        <time>2010-06-12T06:40:19Z</time>
      </trkpt>
      <trkpt lat="46.07554" lon="6.50951">
        <ele>478.39</ele>
        <time>2010-06-12T06:40:32Z</time>
      </trkpt>
      <trkpt lat="46.07552" lon="6.50955">
        <ele>478.39</ele>
        <time>2010-06-12T06:40:33Z</time>
      </trkpt>
      <trkpt lat="46.07554" lon="6.51002">
        <ele>478.39</ele>
        <time>2010-06-12T06:40:44Z</time>
      </trkpt>
      <trkpt lat="46.07573" lon="6.51064">
        <ele>476.95</ele>
        <time>2010-06-12T06:40:55Z</time>
      </trkpt>
      <trkpt lat="46.07585" lon="6.51118">
        <ele>476.95</ele>
        <time>2010-06-12T06:41:05Z</time>
      </trkpt>
      <trkpt lat="46.07587" lon="6.51147">
        <ele>476.95</ele>
        <time>2010-06-12T06:41:10Z</time>
      </trkpt>
      <trkpt lat="46.07585" lon="6.5115">
        <ele>476.95</ele>
        <time>2010-06-12T06:41:11Z</time>
      </trkpt>
      <trkpt lat="46.07583" lon="6.51151">
        <ele>476.95</ele>
        <time>2010-06-12T06:41:12Z</time>
      </trkpt>
      <trkpt lat="46.07581" lon="6.51151">
        <ele>476.95</ele>
        <time>2010-06-12T06:41:13Z</time>
      </trkpt>
      <trkpt lat="46.07579" lon="6.51152">
        <ele>477.43</ele>
        <time>2010-06-12T06:41:14Z</time>
      </trkpt>
      <trkpt lat="46.07576" lon="6.51154">
        <ele>477.43</ele>
        <time>2010-06-12T06:41:15Z</time>
      </trkpt>
      <trkpt lat="46.07573" lon="6.51155">
        <ele>477.43</ele>
        <time>2010-06-12T06:41:16Z</time>
      </trkpt>
      <trkpt lat="46.0757" lon="6.51157">
        <ele>476.95</ele>
        <time>2010-06-12T06:41:17Z</time>
      </trkpt>
      <trkpt lat="46.0755" lon="6.51161">
        <ele>476.95</ele>
        <time>2010-06-12T06:41:23Z</time>
      </trkpt>
      <trkpt lat="46.07547" lon="6.51164">
        <ele>476.95</ele>
        <time>2010-06-12T06:41:24Z</time>
      </trkpt>
      <trkpt lat="46.07539" lon="6.51181">
        <ele>476.47</ele>
        <time>2010-06-12T06:41:28Z</time>
      </trkpt>
      <trkpt lat="46.07539" lon="6.51186">
        <ele>476.47</ele>
        <time>2010-06-12T06:41:29Z</time>
      </trkpt>
      <trkpt lat="46.07539" lon="6.51192">
        <ele>476.47</ele>
        <time>2010-06-12T06:41:30Z</time>
      </trkpt>
      <trkpt lat="46.07541" lon="6.51198">
        <ele>476.47</ele>
        <time>2010-06-12T06:41:31Z</time>
      </trkpt>
      <trkpt lat="46.07543" lon="6.51204">
        <ele>476.95</ele>
        <time>2010-06-12T06:41:32Z</time>
      </trkpt>
      <trkpt lat="46.07544" lon="6.5121">
        <ele>476.47</ele>
        <time>2010-06-12T06:41:33Z</time>
      </trkpt>
      <trkpt lat="46.07562" lon="6.51284">
        <ele>476.47</ele>
        <time>2010-06-12T06:41:46Z</time>
      </trkpt>
      <trkpt lat="46.07573" lon="6.51333">
        <ele>476.95</ele>
        <time>2010-06-12T06:41:55Z</time>
      </trkpt>
      <trkpt lat="46.0758" lon="6.51356">
        <ele>476.95</ele>
        <time>2010-06-12T06:41:59Z</time>
      </trkpt>
      <trkpt lat="46.07582" lon="6.51361">
        <ele>476.95</ele>
        <time>2010-06-12T06:42:00Z</time>
      </trkpt>
      <trkpt lat="46.07584" lon="6.51366">
        <ele>476.47</ele>
        <time>2010-06-12T06:42:01Z</time>
      </trkpt>
      <trkpt lat="46.07586" lon="6.51372">
        <ele>476.95</ele>
        <time>2010-06-12T06:42:02Z</time>
      </trkpt>
      <trkpt lat="46.07587" lon="6.51377">
        <ele>476.95</ele>
        <time>2010-06-12T06:42:03Z</time>
      </trkpt>
      <trkpt lat="46.07588" lon="6.51384">
        <ele>477.43</ele>
        <time>2010-06-12T06:42:04Z</time>
      </trkpt>
      <trkpt lat="46.07588" lon="6.51389">
        <ele>476.95</ele>
        <time>2010-06-12T06:42:05Z</time>
      </trkpt>
      <trkpt lat="46.07601" lon="6.51428">
        <ele>477.91</ele>
        <time>2010-06-12T06:42:14Z</time>
      </trkpt>
      <trkpt lat="46.07603" lon="6.51433">
        <ele>477.91</ele>
        <time>2010-06-12T06:42:15Z</time>
      </trkpt>
      <trkpt lat="46.07605" lon="6.51438">
        <ele>477.43</ele>
        <time>2010-06-12T06:42:17Z</time>
      </trkpt>
      <trkpt lat="46.07614" lon="6.51479">
        <ele>476.95</ele>
        <time>2010-06-12T06:42:23Z</time>
      </trkpt>
      <trkpt lat="46.07619" lon="6.51489">
        <ele>477.43</ele>
        <time>2010-06-12T06:42:25Z</time>
      </trkpt>
      <trkpt lat="46.07621" lon="6.51495">
        <ele>477.43</ele>
        <time>2010-06-12T06:42:26Z</time>
      </trkpt>
      <trkpt lat="46.07631" lon="6.51542">
        <ele>477.43</ele>
        <time>2010-06-12T06:42:34Z</time>
      </trkpt>
      <trkpt lat="46.07632" lon="6.51548">
        <ele>476.95</ele>
        <time>2010-06-12T06:42:35Z</time>
      </trkpt>
      <trkpt lat="46.07625" lon="6.51641">
        <ele>476.95</ele>
        <time>2010-06-12T06:42:50Z</time>
      </trkpt>
      <trkpt lat="46.07624" lon="6.51647">
        <ele>477.43</ele>
        <time>2010-06-12T06:42:51Z</time>
      </trkpt>
      <trkpt lat="46.07624" lon="6.51653">
        <ele>476.95</ele>
        <time>2010-06-12T06:42:52Z</time>
      </trkpt>
      <trkpt lat="46.07615" lon="6.51757">
        <ele>477.43</ele>
        <time>2010-06-12T06:43:09Z</time>
      </trkpt>
      <trkpt lat="46.07604" lon="6.51849">
        <ele>477.91</ele>
        <time>2010-06-12T06:43:24Z</time>
      </trkpt>
      <trkpt lat="46.07602" lon="6.51855">
        <ele>477.91</ele>
        <time>2010-06-12T06:43:25Z</time>
      </trkpt>
      <trkpt lat="46.076" lon="6.51867">
        <ele>477.43</ele>
        <time>2010-06-12T06:43:27Z</time>
      </trkpt>
      <trkpt lat="46.076" lon="6.51874">
        <ele>477.43</ele>
        <time>2010-06-12T06:43:28Z</time>
      </trkpt>
      <trkpt lat="46.07599" lon="6.5188">
        <ele>477.43</ele>
        <time>2010-06-12T06:43:29Z</time>
      </trkpt>
      <trkpt lat="46.07599" lon="6.51886">
        <ele>477.91</ele>
        <time>2010-06-12T06:43:30Z</time>
      </trkpt>
      <trkpt lat="46.07599" lon="6.51892">
        <ele>478.39</ele>
        <time>2010-06-12T06:43:31Z</time>
      </trkpt>
      <trkpt lat="46.0759" lon="6.51985">
        <ele>477.91</ele>
        <time>2010-06-12T06:43:46Z</time>
      </trkpt>
      <trkpt lat="46.07583" lon="6.52029">
        <ele>478.39</ele>
        <time>2010-06-12T06:43:53Z</time>
      </trkpt>
      <trkpt lat="46.0758" lon="6.52047">
        <ele>477.91</ele>
        <time>2010-06-12T06:43:56Z</time>
      </trkpt>
      <trkpt lat="46.07571" lon="6.52125">
        <ele>478.87</ele>
        <time>2010-06-12T06:44:10Z</time>
      </trkpt>
      <trkpt lat="46.07569" lon="6.52136">
        <ele>478.39</ele>
        <time>2010-06-12T06:44:12Z</time>
      </trkpt>
      <trkpt lat="46.07569" lon="6.52143">
        <ele>478.39</ele>
        <time>2010-06-12T06:44:13Z</time>
      </trkpt>
      <trkpt lat="46.07568" lon="6.52196">
        <ele>478.87</ele>
        <time>2010-06-12T06:44:23Z</time>
      </trkpt>
      <trkpt lat="46.07575" lon="6.52254">
        <ele>478.87</ele>
        <time>2010-06-12T06:44:34Z</time>
      </trkpt>
      <trkpt lat="46.07579" lon="6.52281">
        <ele>478.39</ele>
        <time>2010-06-12T06:44:38Z</time>
      </trkpt>
      <trkpt lat="46.0758" lon="6.52295">
        <ele>478.39</ele>
        <time>2010-06-12T06:44:40Z</time>
      </trkpt>
      <trkpt lat="46.07582" lon="6.52308">
        <ele>478.87</ele>
        <time>2010-06-12T06:44:42Z</time>
      </trkpt>
      <trkpt lat="46.0759" lon="6.52413">
        <ele>479.35</ele>
        <time>2010-06-12T06:44:59Z</time>
      </trkpt>
      <trkpt lat="46.0759" lon="6.52431">
        <ele>478.87</ele>
        <time>2010-06-12T06:45:02Z</time>
      </trkpt>
      <trkpt lat="46.07582" lon="6.52488">
        <ele>479.35</ele>
        <time>2010-06-12T06:45:13Z</time>
      </trkpt>
      <trkpt lat="46.07579" lon="6.5249">
        <ele>479.84</ele>
        <time>2010-06-12T06:45:14Z</time>
      </trkpt>
      <trkpt lat="46.07566" lon="6.52494">
        <ele>479.84</ele>
        <time>2010-06-12T06:45:17Z</time>
      </trkpt>
      <trkpt lat="46.07563" lon="6.52496">
        <ele>479.84</ele>
        <time>2010-06-12T06:45:18Z</time>
      </trkpt>
      <trkpt lat="46.07559" lon="6.525">
        <ele>479.35</ele>
        <time>2010-06-12T06:45:19Z</time>
      </trkpt>
      <trkpt lat="46.07556" lon="6.52505">
        <ele>479.35</ele>
        <time>2010-06-12T06:45:20Z</time>
      </trkpt>
      <trkpt lat="46.07554" lon="6.5251">
        <ele>479.35</ele>
        <time>2010-06-12T06:45:21Z</time>
      </trkpt>
      <trkpt lat="46.07552" lon="6.52516">
        <ele>479.35</ele>
        <time>2010-06-12T06:45:22Z</time>
      </trkpt>
      <trkpt lat="46.07551" lon="6.52521">
        <ele>479.84</ele>
        <time>2010-06-12T06:45:23Z</time>
      </trkpt>
      <trkpt lat="46.0755" lon="6.52528">
        <ele>479.84</ele>
        <time>2010-06-12T06:45:24Z</time>
      </trkpt>
      <trkpt lat="46.07551" lon="6.52534">
        <ele>479.84</ele>
        <time>2010-06-12T06:45:25Z</time>
      </trkpt>
      <trkpt lat="46.07551" lon="6.5254">
        <ele>480.32</ele>
        <time>2010-06-12T06:45:26Z</time>
      </trkpt>
      <trkpt lat="46.07553" lon="6.52545">
        <ele>479.35</ele>
        <time>2010-06-12T06:45:27Z</time>
      </trkpt>
      <trkpt lat="46.07555" lon="6.5255">
        <ele>479.84</ele>
        <time>2010-06-12T06:45:28Z</time>
      </trkpt>
      <trkpt lat="46.07559" lon="6.52555">
        <ele>479.35</ele>
        <time>2010-06-12T06:45:29Z</time>
      </trkpt>
      <trkpt lat="46.07564" lon="6.52558">
        <ele>479.35</ele>
        <time>2010-06-12T06:45:30Z</time>
      </trkpt>
      <trkpt lat="46.07569" lon="6.52561">
        <ele>479.84</ele>
        <time>2010-06-12T06:45:31Z</time>
      </trkpt>
      <trkpt lat="46.07574" lon="6.52562">
        <ele>479.84</ele>
        <time>2010-06-12T06:45:32Z</time>
      </trkpt>
      <trkpt lat="46.07579" lon="6.52563">
        <ele>479.84</ele>
        <time>2010-06-12T06:45:33Z</time>
      </trkpt>
      <trkpt lat="46.07584" lon="6.52565">
        <ele>479.35</ele>
        <time>2010-06-12T06:45:34Z</time>
      </trkpt>
      <trkpt lat="46.07589" lon="6.52568">
        <ele>479.35</ele>
        <time>2010-06-12T06:45:35Z</time>
      </trkpt>
      <trkpt lat="46.07592" lon="6.52572">
        <ele>479.35</ele>
        <time>2010-06-12T06:45:36Z</time>
      </trkpt>
      <trkpt lat="46.07595" lon="6.52578">
        <ele>478.87</ele>
        <time>2010-06-12T06:45:37Z</time>
      </trkpt>
      <trkpt lat="46.07596" lon="6.52584">
        <ele>479.35</ele>
        <time>2010-06-12T06:45:38Z</time>
      </trkpt>
      <trkpt lat="46.07596" lon="6.5259">
        <ele>479.84</ele>
        <time>2010-06-12T06:45:39Z</time>
      </trkpt>
      <trkpt lat="46.07595" lon="6.52596">
        <ele>479.84</ele>
        <time>2010-06-12T06:45:40Z</time>
      </trkpt>
      <trkpt lat="46.07595" lon="6.52608">
        <ele>479.35</ele>
        <time>2010-06-12T06:45:42Z</time>
      </trkpt>
      <trkpt lat="46.07592" lon="6.52633">
        <ele>479.84</ele>
        <time>2010-06-12T06:45:46Z</time>
      </trkpt>
      <trkpt lat="46.07592" lon="6.52659">
        <ele>479.84</ele>
        <time>2010-06-12T06:45:50Z</time>
      </trkpt>
      <trkpt lat="46.07598" lon="6.5276">
        <ele>480.32</ele>
        <time>2010-06-12T06:46:06Z</time>
      </trkpt>
      <trkpt lat="46.07602" lon="6.52882">
        <ele>480.32</ele>
        <time>2010-06-12T06:46:24Z</time>
      </trkpt>
      <trkpt lat="46.07603" lon="6.52889">
        <ele>479.84</ele>
        <time>2010-06-12T06:46:25Z</time>
      </trkpt>
      <trkpt lat="46.07603" lon="6.52902">
        <ele>480.8</ele>
        <time>2010-06-12T06:46:27Z</time>
      </trkpt>
      <trkpt lat="46.07604" lon="6.52909">
        <ele>480.32</ele>
        <time>2010-06-12T06:46:28Z</time>
      </trkpt>
      <trkpt lat="46.07603" lon="6.53031">
        <ele>481.28</ele>
        <time>2010-06-12T06:46:45Z</time>
      </trkpt>
      <trkpt lat="46.07596" lon="6.53149">
        <ele>480.32</ele>
        <time>2010-06-12T06:47:01Z</time>
      </trkpt>
      <trkpt lat="46.07595" lon="6.53178">
        <ele>480.8</ele>
        <time>2010-06-12T06:47:05Z</time>
      </trkpt>
      <trkpt lat="46.07595" lon="6.53185">
        <ele>480.32</ele>
        <time>2010-06-12T06:47:06Z</time>
      </trkpt>
      <trkpt lat="46.07588" lon="6.53318">
        <ele>481.28</ele>
        <time>2010-06-12T06:47:25Z</time>
      </trkpt>
      <trkpt lat="46.07586" lon="6.53333">
        <ele>481.28</ele>
        <time>2010-06-12T06:47:27Z</time>
      </trkpt>
      <trkpt lat="46.07583" lon="6.53354">
        <ele>481.28</ele>
        <time>2010-06-12T06:47:30Z</time>
      </trkpt>
      <trkpt lat="46.07576" lon="6.53468">
        <ele>481.76</ele>
        <time>2010-06-12T06:47:46Z</time>
      </trkpt>
      <trkpt lat="46.07574" lon="6.53475">
        <ele>481.76</ele>
        <time>2010-06-12T06:47:47Z</time>
      </trkpt>
      <trkpt lat="46.07569" lon="6.53495">
        <ele>481.28</ele>
        <time>2010-06-12T06:47:50Z</time>
      </trkpt>
      <trkpt lat="46.07567" lon="6.53501">
        <ele>481.28</ele>
        <time>2010-06-12T06:47:51Z</time>
      </trkpt>
      <trkpt lat="46.07567" lon="6.53508">
        <ele>481.76</ele>
        <time>2010-06-12T06:47:52Z</time>
      </trkpt>
      <trkpt lat="46.07567" lon="6.53516">
        <ele>481.28</ele>
        <time>2010-06-12T06:47:53Z</time>
      </trkpt>
      <trkpt lat="46.07567" lon="6.53523">
        <ele>481.28</ele>
        <time>2010-06-12T06:47:54Z</time>
      </trkpt>
      <trkpt lat="46.07555" lon="6.53632">
        <ele>481.76</ele>
        <time>2010-06-12T06:48:10Z</time>
      </trkpt>
      <trkpt lat="46.07553" lon="6.53639">
        <ele>481.76</ele>
        <time>2010-06-12T06:48:11Z</time>
      </trkpt>
      <trkpt lat="46.07545" lon="6.53665">
        <ele>481.28</ele>
        <time>2010-06-12T06:48:15Z</time>
      </trkpt>
      <trkpt lat="46.0754" lon="6.53679">
        <ele>480.8</ele>
        <time>2010-06-12T06:48:17Z</time>
      </trkpt>
      <trkpt lat="46.07537" lon="6.53686">
        <ele>480.8</ele>
        <time>2010-06-12T06:48:18Z</time>
      </trkpt>
      <trkpt lat="46.07536" lon="6.53694">
        <ele>480.32</ele>
        <time>2010-06-12T06:48:19Z</time>
      </trkpt>
      <trkpt lat="46.07534" lon="6.53701">
        <ele>480.32</ele>
        <time>2010-06-12T06:48:20Z</time>
      </trkpt>
      <trkpt lat="46.07532" lon="6.53708">
        <ele>479.84</ele>
        <time>2010-06-12T06:48:21Z</time>
      </trkpt>
      <trkpt lat="46.07517" lon="6.53788">
        <ele>479.35</ele>
        <time>2010-06-12T06:48:31Z</time>
      </trkpt>
      <trkpt lat="46.07516" lon="6.53795">
        <ele>478.39</ele>
        <time>2010-06-12T06:48:32Z</time>
      </trkpt>
      <trkpt lat="46.07514" lon="6.53802">
        <ele>478.87</ele>
        <time>2010-06-12T06:48:33Z</time>
      </trkpt>
      <trkpt lat="46.07507" lon="6.53823">
        <ele>478.39</ele>
        <time>2010-06-12T06:48:36Z</time>
      </trkpt>
      <trkpt lat="46.07506" lon="6.53831">
        <ele>477.91</ele>
        <time>2010-06-12T06:48:37Z</time>
      </trkpt>
      <trkpt lat="46.07504" lon="6.5384">
        <ele>477.91</ele>
        <time>2010-06-12T06:48:38Z</time>
      </trkpt>
      <trkpt lat="46.07501" lon="6.53888">
        <ele>477.91</ele>
        <time>2010-06-12T06:48:44Z</time>
      </trkpt>
      <trkpt lat="46.07501" lon="6.53895">
        <ele>478.39</ele>
        <time>2010-06-12T06:48:45Z</time>
      </trkpt>
      <trkpt lat="46.07492" lon="6.54032">
        <ele>479.84</ele>
        <time>2010-06-12T06:49:05Z</time>
      </trkpt>
      <trkpt lat="46.0748" lon="6.54124">
        <ele>481.76</ele>
        <time>2010-06-12T06:49:21Z</time>
      </trkpt>
      <trkpt lat="46.07474" lon="6.54178">
        <ele>482.72</ele>
        <time>2010-06-12T06:49:31Z</time>
      </trkpt>
      <trkpt lat="46.07452" lon="6.54282">
        <ele>482.72</ele>
        <time>2010-06-12T06:49:48Z</time>
      </trkpt>
      <trkpt lat="46.07434" lon="6.54366">
        <ele>483.2</ele>
        <time>2010-06-12T06:50:01Z</time>
      </trkpt>
      <trkpt lat="46.07415" lon="6.54437">
        <ele>483.2</ele>
        <time>2010-06-12T06:50:12Z</time>
      </trkpt>
      <trkpt lat="46.07395" lon="6.54517">
        <ele>483.2</ele>
        <time>2010-06-12T06:50:24Z</time>
      </trkpt>
      <trkpt lat="46.07393" lon="6.54524">
        <ele>483.68</ele>
        <time>2010-06-12T06:50:25Z</time>
      </trkpt>
      <trkpt lat="46.07391" lon="6.54531">
        <ele>483.2</ele>
        <time>2010-06-12T06:50:26Z</time>
      </trkpt>
      <trkpt lat="46.0738" lon="6.54564">
        <ele>483.2</ele>
        <time>2010-06-12T06:50:31Z</time>
      </trkpt>
      <trkpt lat="46.07379" lon="6.54571">
        <ele>483.2</ele>
        <time>2010-06-12T06:50:32Z</time>
      </trkpt>
      <trkpt lat="46.07374" lon="6.546">
        <ele>482.72</ele>
        <time>2010-06-12T06:50:36Z</time>
      </trkpt>
      <trkpt lat="46.07374" lon="6.54607">
        <ele>483.2</ele>
        <time>2010-06-12T06:50:37Z</time>
      </trkpt>
      <trkpt lat="46.07374" lon="6.54615">
        <ele>483.2</ele>
        <time>2010-06-12T06:50:38Z</time>
      </trkpt>
      <trkpt lat="46.07374" lon="6.54622">
        <ele>482.72</ele>
        <time>2010-06-12T06:50:39Z</time>
      </trkpt>
      <trkpt lat="46.07375" lon="6.5463">
        <ele>483.2</ele>
        <time>2010-06-12T06:50:40Z</time>
      </trkpt>
      <trkpt lat="46.07376" lon="6.54637">
        <ele>483.2</ele>
        <time>2010-06-12T06:50:41Z</time>
      </trkpt>
      <trkpt lat="46.07377" lon="6.54645">
        <ele>483.2</ele>
        <time>2010-06-12T06:50:42Z</time>
      </trkpt>
      <trkpt lat="46.07378" lon="6.54652">
        <ele>483.2</ele>
        <time>2010-06-12T06:50:43Z</time>
      </trkpt>
      <trkpt lat="46.07381" lon="6.5468">
        <ele>483.2</ele>
        <time>2010-06-12T06:50:47Z</time>
      </trkpt>
      <trkpt lat="46.07382" lon="6.54687">
        <ele>483.2</ele>
        <time>2010-06-12T06:50:48Z</time>
      </trkpt>
      <trkpt lat="46.07388" lon="6.54752">
        <ele>483.2</ele>
        <time>2010-06-12T06:50:58Z</time>
      </trkpt>
      <trkpt lat="46.07388" lon="6.54758">
        <ele>483.2</ele>
        <time>2010-06-12T06:50:59Z</time>
      </trkpt>
      <trkpt lat="46.07388" lon="6.54783">
        <ele>484.16</ele>
        <time>2010-06-12T06:51:04Z</time>
      </trkpt>
      <trkpt lat="46.07386" lon="6.54787">
        <ele>484.16</ele>
        <time>2010-06-12T06:51:05Z</time>
      </trkpt>
      <trkpt lat="46.07383" lon="6.5479">
        <ele>484.16</ele>
        <time>2010-06-12T06:51:06Z</time>
      </trkpt>
      <trkpt lat="46.0738" lon="6.54791">
        <ele>484.16</ele>
        <time>2010-06-12T06:51:07Z</time>
      </trkpt>
      <trkpt lat="46.07376" lon="6.54793">
        <ele>484.16</ele>
        <time>2010-06-12T06:51:08Z</time>
      </trkpt>
      <trkpt lat="46.07361" lon="6.54797">
        <ele>483.68</ele>
        <time>2010-06-12T06:51:12Z</time>
      </trkpt>
      <trkpt lat="46.07357" lon="6.54797">
        <ele>483.68</ele>
        <time>2010-06-12T06:51:13Z</time>
      </trkpt>
      <trkpt lat="46.07352" lon="6.54795">
        <ele>483.68</ele>
        <time>2010-06-12T06:51:14Z</time>
      </trkpt>
      <trkpt lat="46.07347" lon="6.54793">
        <ele>483.68</ele>
        <time>2010-06-12T06:51:15Z</time>
      </trkpt>
      <trkpt lat="46.07343" lon="6.54793">
        <ele>483.68</ele>
        <time>2010-06-12T06:51:16Z</time>
      </trkpt>
      <trkpt lat="46.07337" lon="6.54794">
        <ele>483.2</ele>
        <time>2010-06-12T06:51:17Z</time>
      </trkpt>
      <trkpt lat="46.07332" lon="6.54797">
        <ele>482.72</ele>
        <time>2010-06-12T06:51:18Z</time>
      </trkpt>
      <trkpt lat="46.07328" lon="6.54801">
        <ele>482.72</ele>
        <time>2010-06-12T06:51:19Z</time>
      </trkpt>
      <trkpt lat="46.07324" lon="6.54807">
        <ele>482.72</ele>
        <time>2010-06-12T06:51:20Z</time>
      </trkpt>
      <trkpt lat="46.07322" lon="6.54814">
        <ele>483.2</ele>
        <time>2010-06-12T06:51:21Z</time>
      </trkpt>
      <trkpt lat="46.0732" lon="6.5482">
        <ele>482.72</ele>
        <time>2010-06-12T06:51:22Z</time>
      </trkpt>
      <trkpt lat="46.07319" lon="6.54827">
        <ele>483.68</ele>
        <time>2010-06-12T06:51:23Z</time>
      </trkpt>
      <trkpt lat="46.07295" lon="6.5492">
        <ele>484.16</ele>
        <time>2010-06-12T06:51:38Z</time>
      </trkpt>
      <trkpt lat="46.07275" lon="6.55">
        <ele>483.68</ele>
        <time>2010-06-12T06:51:49Z</time>
      </trkpt>
      <trkpt lat="46.07263" lon="6.5504">
        <ele>484.16</ele>
        <time>2010-06-12T06:51:55Z</time>
      </trkpt>
      <trkpt lat="46.07247" lon="6.55093">
        <ele>484.64</ele>
        <time>2010-06-12T06:52:03Z</time>
      </trkpt>
      <trkpt lat="46.07246" lon="6.55099">
        <ele>484.64</ele>
        <time>2010-06-12T06:52:04Z</time>
      </trkpt>
      <trkpt lat="46.07244" lon="6.55105">
        <ele>484.64</ele>
        <time>2010-06-12T06:52:05Z</time>
      </trkpt>
      <trkpt lat="46.07232" lon="6.55153">
        <ele>484.64</ele>
        <time>2010-06-12T06:52:12Z</time>
      </trkpt>
      <trkpt lat="46.07202" lon="6.55244">
        <ele>485.12</ele>
        <time>2010-06-12T06:52:26Z</time>
      </trkpt>
      <trkpt lat="46.07186" lon="6.5529">
        <ele>484.64</ele>
        <time>2010-06-12T06:52:33Z</time>
      </trkpt>
      <trkpt lat="46.07177" lon="6.55308">
        <ele>484.64</ele>
        <time>2010-06-12T06:52:36Z</time>
      </trkpt>
      <trkpt lat="46.07131" lon="6.55414">
        <ele>485.12</ele>
        <time>2010-06-12T06:52:53Z</time>
      </trkpt>
      <trkpt lat="46.07087" lon="6.55522">
        <ele>485.12</ele>
        <time>2010-06-12T06:53:10Z</time>
      </trkpt>
      <trkpt lat="46.07062" lon="6.55578">
        <ele>485.6</ele>
        <time>2010-06-12T06:53:19Z</time>
      </trkpt>
      <trkpt lat="46.07044" lon="6.55607">
        <ele>485.6</ele>
        <time>2010-06-12T06:53:24Z</time>
      </trkpt>
      <trkpt lat="46.07042" lon="6.55614">
        <ele>485.6</ele>
        <time>2010-06-12T06:53:25Z</time>
      </trkpt>
      <trkpt lat="46.07" lon="6.55725">
        <ele>485.6</ele>
        <time>2010-06-12T06:53:41Z</time>
      </trkpt>
      <trkpt lat="46.0699" lon="6.55751">
        <ele>485.6</ele>
        <time>2010-06-12T06:53:45Z</time>
      </trkpt>
      <trkpt lat="46.06967" lon="6.55801">
        <ele>485.6</ele>
        <time>2010-06-12T06:53:53Z</time>
      </trkpt>
      <trkpt lat="46.06931" lon="6.55906">
        <ele>487.05</ele>
        <time>2010-06-12T06:54:10Z</time>
      </trkpt>
      <trkpt lat="46.06929" lon="6.55911">
        <ele>487.05</ele>
        <time>2010-06-12T06:54:11Z</time>
      </trkpt>
      <trkpt lat="46.06922" lon="6.55929">
        <ele>486.56</ele>
        <time>2010-06-12T06:54:14Z</time>
      </trkpt>
      <trkpt lat="46.069" lon="6.5597">
        <ele>487.05</ele>
        <time>2010-06-12T06:54:22Z</time>
      </trkpt>
      <trkpt lat="46.06883" lon="6.55998">
        <ele>487.53</ele>
        <time>2010-06-12T06:54:28Z</time>
      </trkpt>
      <trkpt lat="46.0688" lon="6.56003">
        <ele>487.53</ele>
        <time>2010-06-12T06:54:29Z</time>
      </trkpt>
      <trkpt lat="46.06876" lon="6.56009">
        <ele>487.53</ele>
        <time>2010-06-12T06:54:30Z</time>
      </trkpt>
      <trkpt lat="46.06874" lon="6.56015">
        <ele>487.05</ele>
        <time>2010-06-12T06:54:31Z</time>
      </trkpt>
      <trkpt lat="46.06871" lon="6.56023">
        <ele>486.56</ele>
        <time>2010-06-12T06:54:32Z</time>
      </trkpt>
      <trkpt lat="46.06849" lon="6.56079">
        <ele>484.64</ele>
        <time>2010-06-12T06:54:39Z</time>
      </trkpt>
      <trkpt lat="46.06847" lon="6.56087">
        <ele>484.64</ele>
        <time>2010-06-12T06:54:40Z</time>
      </trkpt>
      <trkpt lat="46.06846" lon="6.56095">
        <ele>484.64</ele>
        <time>2010-06-12T06:54:41Z</time>
      </trkpt>
      <trkpt lat="46.06843" lon="6.56102">
        <ele>484.64</ele>
        <time>2010-06-12T06:54:42Z</time>
      </trkpt>
      <trkpt lat="46.0684" lon="6.56108">
        <ele>484.64</ele>
        <time>2010-06-12T06:54:43Z</time>
      </trkpt>
      <trkpt lat="46.06836" lon="6.56113">
        <ele>484.64</ele>
        <time>2010-06-12T06:54:44Z</time>
      </trkpt>
      <trkpt lat="46.06826" lon="6.56131">
        <ele>485.12</ele>
        <time>2010-06-12T06:54:47Z</time>
      </trkpt>
      <trkpt lat="46.06824" lon="6.56137">
        <ele>486.08</ele>
        <time>2010-06-12T06:54:48Z</time>
      </trkpt>
      <trkpt lat="46.06822" lon="6.56143">
        <ele>486.08</ele>
        <time>2010-06-12T06:54:49Z</time>
      </trkpt>
      <trkpt lat="46.068" lon="6.56199">
        <ele>488.01</ele>
        <time>2010-06-12T06:55:01Z</time>
      </trkpt>
      <trkpt lat="46.06789" lon="6.56226">
        <ele>487.53</ele>
        <time>2010-06-12T06:55:06Z</time>
      </trkpt>
      <trkpt lat="46.06786" lon="6.56231">
        <ele>488.01</ele>
        <time>2010-06-12T06:55:07Z</time>
      </trkpt>
      <trkpt lat="46.06775" lon="6.56259">
        <ele>487.53</ele>
        <time>2010-06-12T06:55:12Z</time>
      </trkpt>
      <trkpt lat="46.06739" lon="6.56345">
        <ele>488.01</ele>
        <time>2010-06-12T06:55:26Z</time>
      </trkpt>
      <trkpt lat="46.06683" lon="6.56437">
        <ele>486.08</ele>
        <time>2010-06-12T06:55:42Z</time>
      </trkpt>
      <trkpt lat="46.06624" lon="6.5653">
        <ele>487.05</ele>
        <time>2010-06-12T06:55:58Z</time>
      </trkpt>
      <trkpt lat="46.0658" lon="6.56598">
        <ele>487.05</ele>
        <time>2010-06-12T06:56:11Z</time>
      </trkpt>
      <trkpt lat="46.06525" lon="6.56695">
        <ele>487.05</ele>
        <time>2010-06-12T06:56:28Z</time>
      </trkpt>
      <trkpt lat="46.06523" lon="6.56702">
        <ele>487.53</ele>
        <time>2010-06-12T06:56:29Z</time>
      </trkpt>
      <trkpt lat="46.06496" lon="6.56767">
        <ele>488.01</ele>
        <time>2010-06-12T06:56:41Z</time>
      </trkpt>
      <trkpt lat="46.06456" lon="6.56843">
        <ele>487.05</ele>
        <time>2010-06-12T06:56:53Z</time>
      </trkpt>
      <trkpt lat="46.06408" lon="6.56944">
        <ele>488.49</ele>
        <time>2010-06-12T06:57:10Z</time>
      </trkpt>
      <trkpt lat="46.06359" lon="6.57064">
        <ele>489.45</ele>
        <time>2010-06-12T06:57:30Z</time>
      </trkpt>
      <trkpt lat="46.06331" lon="6.57125">
        <ele>488.97</ele>
        <time>2010-06-12T06:57:41Z</time>
      </trkpt>
      <trkpt lat="46.06278" lon="6.57202">
        <ele>489.45</ele>
        <time>2010-06-12T06:57:57Z</time>
      </trkpt>
      <trkpt lat="46.06217" lon="6.57267">
        <ele>489.45</ele>
        <time>2010-06-12T06:58:12Z</time>
      </trkpt>
      <trkpt lat="46.06193" lon="6.57292">
        <ele>488.97</ele>
        <time>2010-06-12T06:58:18Z</time>
      </trkpt>
      <trkpt lat="46.06189" lon="6.57296">
        <ele>489.45</ele>
        <time>2010-06-12T06:58:19Z</time>
      </trkpt>
      <trkpt lat="46.0612" lon="6.57368">
        <ele>489.45</ele>
        <time>2010-06-12T06:58:36Z</time>
      </trkpt>
      <trkpt lat="46.06065" lon="6.57414">
        <ele>489.93</ele>
        <time>2010-06-12T06:58:49Z</time>
      </trkpt>
      <trkpt lat="46.06022" lon="6.57454">
        <ele>489.93</ele>
        <time>2010-06-12T06:59:00Z</time>
      </trkpt>
      <trkpt lat="46.05975" lon="6.57499">
        <ele>488.01</ele>
        <time>2010-06-12T06:59:10Z</time>
      </trkpt>
      <trkpt lat="46.0594" lon="6.57544">
        <ele>488.97</ele>
        <time>2010-06-12T06:59:20Z</time>
      </trkpt>
      <trkpt lat="46.05937" lon="6.57548">
        <ele>488.97</ele>
        <time>2010-06-12T06:59:21Z</time>
      </trkpt>
      <trkpt lat="46.05931" lon="6.57557">
        <ele>488.97</ele>
        <time>2010-06-12T06:59:23Z</time>
      </trkpt>
      <trkpt lat="46.05928" lon="6.57562">
        <ele>489.45</ele>
        <time>2010-06-12T06:59:24Z</time>
      </trkpt>
      <trkpt lat="46.059" lon="6.57614">
        <ele>490.89</ele>
        <time>2010-06-12T06:59:36Z</time>
      </trkpt>
      <trkpt lat="46.05892" lon="6.57631">
        <ele>490.89</ele>
        <time>2010-06-12T06:59:40Z</time>
      </trkpt>
      <trkpt lat="46.05854" lon="6.57706">
        <ele>490.41</ele>
        <time>2010-06-12T06:59:53Z</time>
      </trkpt>
      <trkpt lat="46.0585" lon="6.5771">
        <ele>489.93</ele>
        <time>2010-06-12T06:59:54Z</time>
      </trkpt>
      <trkpt lat="46.05847" lon="6.57713">
        <ele>490.41</ele>
        <time>2010-06-12T06:59:55Z</time>
      </trkpt>
      <trkpt lat="46.05843" lon="6.57716">
        <ele>490.41</ele>
        <time>2010-06-12T06:59:56Z</time>
      </trkpt>
      <trkpt lat="46.0584" lon="6.57719">
        <ele>490.89</ele>
        <time>2010-06-12T06:59:57Z</time>
      </trkpt>
      <trkpt lat="46.05836" lon="6.57723">
        <ele>490.89</ele>
        <time>2010-06-12T06:59:58Z</time>
      </trkpt>
      <trkpt lat="46.05833" lon="6.57728">
        <ele>490.89</ele>
        <time>2010-06-12T06:59:59Z</time>
      </trkpt>
      <trkpt lat="46.05826" lon="6.57739">
        <ele>490.89</ele>
        <time>2010-06-12T07:00:01Z</time>
      </trkpt>
      <trkpt lat="46.05778" lon="6.57824">
        <ele>490.41</ele>
        <time>2010-06-12T07:00:16Z</time>
      </trkpt>
      <trkpt lat="46.05709" lon="6.5792">
        <ele>490.89</ele>
        <time>2010-06-12T07:00:35Z</time>
      </trkpt>
      <trkpt lat="46.05705" lon="6.57924">
        <ele>489.93</ele>
        <time>2010-06-12T07:00:36Z</time>
      </trkpt>
      <trkpt lat="46.05693" lon="6.57935">
        <ele>490.89</ele>
        <time>2010-06-12T07:00:39Z</time>
      </trkpt>
      <trkpt lat="46.05689" lon="6.5794">
        <ele>489.93</ele>
        <time>2010-06-12T07:00:40Z</time>
      </trkpt>
      <trkpt lat="46.05686" lon="6.57945">
        <ele>490.41</ele>
        <time>2010-06-12T07:00:41Z</time>
      </trkpt>
      <trkpt lat="46.05683" lon="6.5795">
        <ele>490.89</ele>
        <time>2010-06-12T07:00:42Z</time>
      </trkpt>
      <trkpt lat="46.05681" lon="6.57955">
        <ele>490.89</ele>
        <time>2010-06-12T07:00:43Z</time>
      </trkpt>
      <trkpt lat="46.05681" lon="6.57961">
        <ele>490.89</ele>
        <time>2010-06-12T07:00:44Z</time>
      </trkpt>
      <trkpt lat="46.05683" lon="6.57966">
        <ele>490.89</ele>
        <time>2010-06-12T07:00:45Z</time>
      </trkpt>
      <trkpt lat="46.05686" lon="6.5797">
        <ele>490.89</ele>
        <time>2010-06-12T07:00:46Z</time>
      </trkpt>
      <trkpt lat="46.05689" lon="6.57976">
        <ele>490.89</ele>
        <time>2010-06-12T07:00:47Z</time>
      </trkpt>
      <trkpt lat="46.05692" lon="6.57982">
        <ele>490.41</ele>
        <time>2010-06-12T07:00:48Z</time>
      </trkpt>
      <trkpt lat="46.05693" lon="6.57989">
        <ele>490.41</ele>
        <time>2010-06-12T07:00:49Z</time>
      </trkpt>
      <trkpt lat="46.05694" lon="6.57996">
        <ele>490.89</ele>
        <time>2010-06-12T07:00:50Z</time>
      </trkpt>
      <trkpt lat="46.05695" lon="6.58003">
        <ele>490.41</ele>
        <time>2010-06-12T07:00:51Z</time>
      </trkpt>
      <trkpt lat="46.05698" lon="6.58009">
        <ele>490.89</ele>
        <time>2010-06-12T07:00:52Z</time>
      </trkpt>
      <trkpt lat="46.05703" lon="6.58021">
        <ele>490.89</ele>
        <time>2010-06-12T07:00:54Z</time>
      </trkpt>
      <trkpt lat="46.05707" lon="6.58025">
        <ele>490.89</ele>
        <time>2010-06-12T07:00:55Z</time>
      </trkpt>
      <trkpt lat="46.05729" lon="6.58048">
        <ele>490.89</ele>
        <time>2010-06-12T07:01:03Z</time>
      </trkpt>
      <trkpt lat="46.05732" lon="6.58053">
        <ele>491.37</ele>
        <time>2010-06-12T07:01:04Z</time>
      </trkpt>
      <trkpt lat="46.05749" lon="6.58065">
        <ele>492.33</ele>
        <time>2010-06-12T07:01:09Z</time>
      </trkpt>
      <trkpt lat="46.05753" lon="6.58064">
        <ele>492.81</ele>
        <time>2010-06-12T07:01:10Z</time>
      </trkpt>
      <trkpt lat="46.05757" lon="6.58061">
        <ele>491.85</ele>
        <time>2010-06-12T07:01:11Z</time>
      </trkpt>
      <trkpt lat="46.0576" lon="6.58057">
        <ele>492.81</ele>
        <time>2010-06-12T07:01:12Z</time>
      </trkpt>
      <trkpt lat="46.05762" lon="6.58053">
        <ele>492.81</ele>
        <time>2010-06-12T07:01:13Z</time>
      </trkpt>
      <trkpt lat="46.05765" lon="6.58053">
        <ele>492.81</ele>
        <time>2010-06-12T07:01:14Z</time>
      </trkpt>
      <trkpt lat="46.05766" lon="6.58055">
        <ele>492.81</ele>
        <time>2010-06-12T07:01:15Z</time>
      </trkpt>
      <trkpt lat="46.05767" lon="6.58059">
        <ele>493.29</ele>
        <time>2010-06-12T07:01:16Z</time>
      </trkpt>
      <trkpt lat="46.05768" lon="6.58063">
        <ele>493.29</ele>
        <time>2010-06-12T07:01:17Z</time>
      </trkpt>
      <trkpt lat="46.05768" lon="6.58069">
        <ele>492.81</ele>
        <time>2010-06-12T07:01:18Z</time>
      </trkpt>
      <trkpt lat="46.05769" lon="6.58087">
        <ele>492.81</ele>
        <time>2010-06-12T07:01:21Z</time>
      </trkpt>
      <trkpt lat="46.05771" lon="6.58093">
        <ele>493.29</ele>
        <time>2010-06-12T07:01:22Z</time>
      </trkpt>
      <trkpt lat="46.05778" lon="6.58146">
        <ele>493.77</ele>
        <time>2010-06-12T07:01:34Z</time>
      </trkpt>
      <trkpt lat="46.0578" lon="6.58156">
        <ele>493.29</ele>
        <time>2010-06-12T07:01:38Z</time>
      </trkpt>
      <trkpt lat="46.05779" lon="6.58159">
        <ele>493.77</ele>
        <time>2010-06-12T07:01:39Z</time>
      </trkpt>
      <trkpt lat="46.05778" lon="6.58163">
        <ele>493.29</ele>
        <time>2010-06-12T07:01:40Z</time>
      </trkpt>
      <trkpt lat="46.05777" lon="6.58166">
        <ele>493.77</ele>
        <time>2010-06-12T07:01:41Z</time>
      </trkpt>
      <trkpt lat="46.05775" lon="6.5817">
        <ele>493.77</ele>
        <time>2010-06-12T07:01:42Z</time>
      </trkpt>
      <trkpt lat="46.05772" lon="6.58219">
        <ele>493.29</ele>
        <time>2010-06-12T07:01:51Z</time>
      </trkpt>
      <trkpt lat="46.05768" lon="6.58248">
        <ele>493.77</ele>
        <time>2010-06-12T07:01:56Z</time>
      </trkpt>
      <trkpt lat="46.05767" lon="6.58254">
        <ele>494.26</ele>
        <time>2010-06-12T07:01:57Z</time>
      </trkpt>
      <trkpt lat="46.05769" lon="6.5828">
        <ele>493.77</ele>
        <time>2010-06-12T07:02:02Z</time>
      </trkpt>
      <trkpt lat="46.05779" lon="6.58317">
        <ele>493.77</ele>
        <time>2010-06-12T07:02:08Z</time>
      </trkpt>
      <trkpt lat="46.05792" lon="6.58347">
        <ele>493.77</ele>
        <time>2010-06-12T07:02:14Z</time>
      </trkpt>
      <trkpt lat="46.05827" lon="6.58396">
        <ele>493.29</ele>
        <time>2010-06-12T07:02:25Z</time>
      </trkpt>
      <trkpt lat="46.05835" lon="6.58403">
        <ele>493.29</ele>
        <time>2010-06-12T07:02:27Z</time>
      </trkpt>
      <trkpt lat="46.05902" lon="6.58445">
        <ele>493.29</ele>
        <time>2010-06-12T07:02:42Z</time>
      </trkpt>
      <trkpt lat="46.05909" lon="6.58453">
        <ele>493.29</ele>
        <time>2010-06-12T07:02:44Z</time>
      </trkpt>
      <trkpt lat="46.05912" lon="6.58458">
        <ele>492.33</ele>
        <time>2010-06-12T07:02:45Z</time>
      </trkpt>
      <trkpt lat="46.05915" lon="6.58463">
        <ele>492.81</ele>
        <time>2010-06-12T07:02:46Z</time>
      </trkpt>
      <trkpt lat="46.05919" lon="6.58474">
        <ele>493.77</ele>
        <time>2010-06-12T07:02:48Z</time>
      </trkpt>
      <trkpt lat="46.05933" lon="6.5854">
        <ele>494.26</ele>
        <time>2010-06-12T07:03:00Z</time>
      </trkpt>
      <trkpt lat="46.05936" lon="6.58545">
        <ele>494.26</ele>
        <time>2010-06-12T07:03:01Z</time>
      </trkpt>
      <trkpt lat="46.05939" lon="6.58549">
        <ele>494.26</ele>
        <time>2010-06-12T07:03:02Z</time>
      </trkpt>
      <trkpt lat="46.05942" lon="6.58553">
        <ele>494.26</ele>
        <time>2010-06-12T07:03:03Z</time>
      </trkpt>
      <trkpt lat="46.05946" lon="6.58557">
        <ele>493.77</ele>
        <time>2010-06-12T07:03:04Z</time>
      </trkpt>
      <trkpt lat="46.0595" lon="6.58559">
        <ele>493.77</ele>
        <time>2010-06-12T07:03:05Z</time>
      </trkpt>
      <trkpt lat="46.05955" lon="6.58561">
        <ele>493.29</ele>
        <time>2010-06-12T07:03:06Z</time>
      </trkpt>
      <trkpt lat="46.05959" lon="6.58563">
        <ele>493.29</ele>
        <time>2010-06-12T07:03:07Z</time>
      </trkpt>
      <trkpt lat="46.05963" lon="6.58566">
        <ele>493.29</ele>
        <time>2010-06-12T07:03:08Z</time>
      </trkpt>
      <trkpt lat="46.05967" lon="6.58568">
        <ele>493.29</ele>
        <time>2010-06-12T07:03:09Z</time>
      </trkpt>
      <trkpt lat="46.06002" lon="6.58614">
        <ele>493.29</ele>
        <time>2010-06-12T07:03:20Z</time>
      </trkpt>
      <trkpt lat="46.0601" lon="6.58624">
        <ele>493.77</ele>
        <time>2010-06-12T07:03:23Z</time>
      </trkpt>
      <trkpt lat="46.06058" lon="6.58684">
        <ele>494.26</ele>
        <time>2010-06-12T07:03:38Z</time>
      </trkpt>
      <trkpt lat="46.06062" lon="6.5869">
        <ele>494.26</ele>
        <time>2010-06-12T07:03:39Z</time>
      </trkpt>
      <trkpt lat="46.06068" lon="6.58698">
        <ele>494.26</ele>
        <time>2010-06-12T07:03:41Z</time>
      </trkpt>
      <trkpt lat="46.0612" lon="6.58737">
        <ele>495.7</ele>
        <time>2010-06-12T07:03:55Z</time>
      </trkpt>
      <trkpt lat="46.06124" lon="6.58739">
        <ele>495.7</ele>
        <time>2010-06-12T07:03:56Z</time>
      </trkpt>
      <trkpt lat="46.06196" lon="6.58788">
        <ele>496.66</ele>
        <time>2010-06-12T07:04:15Z</time>
      </trkpt>
      <trkpt lat="46.06255" lon="6.58836">
        <ele>498.1</ele>
        <time>2010-06-12T07:04:31Z</time>
      </trkpt>
      <trkpt lat="46.06308" lon="6.58884">
        <ele>499.06</ele>
        <time>2010-06-12T07:04:47Z</time>
      </trkpt>
      <trkpt lat="46.06363" lon="6.5893">
        <ele>499.06</ele>
        <time>2010-06-12T07:05:02Z</time>
      </trkpt>
      <trkpt lat="46.06392" lon="6.58936">
        <ele>498.58</ele>
        <time>2010-06-12T07:05:08Z</time>
      </trkpt>
      <trkpt lat="46.06401" lon="6.58936">
        <ele>499.06</ele>
        <time>2010-06-12T07:05:10Z</time>
      </trkpt>
      <trkpt lat="46.06448" lon="6.58913">
        <ele>500.98</ele>
        <time>2010-06-12T07:05:23Z</time>
      </trkpt>
      <trkpt lat="46.06501" lon="6.58885">
        <ele>502.91</ele>
        <time>2010-06-12T07:05:39Z</time>
      </trkpt>
      <trkpt lat="46.0656" lon="6.58887">
        <ele>504.83</ele>
        <time>2010-06-12T07:05:55Z</time>
      </trkpt>
      <trkpt lat="46.0661" lon="6.58895">
        <ele>505.79</ele>
        <time>2010-06-12T07:06:10Z</time>
      </trkpt>
      <trkpt lat="46.06664" lon="6.58911">
        <ele>506.75</ele>
        <time>2010-06-12T07:06:25Z</time>
      </trkpt>
      <trkpt lat="46.06703" lon="6.58921">
        <ele>507.71</ele>
        <time>2010-06-12T07:06:36Z</time>
      </trkpt>
      <trkpt lat="46.0673" lon="6.58907">
        <ele>508.19</ele>
        <time>2010-06-12T07:06:45Z</time>
      </trkpt>
      <trkpt lat="46.06732" lon="6.58902">
        <ele>507.71</ele>
        <time>2010-06-12T07:06:46Z</time>
      </trkpt>
      <trkpt lat="46.06733" lon="6.58895">
        <ele>507.71</ele>
        <time>2010-06-12T07:06:47Z</time>
      </trkpt>
      <trkpt lat="46.06735" lon="6.58889">
        <ele>507.71</ele>
        <time>2010-06-12T07:06:48Z</time>
      </trkpt>
      <trkpt lat="46.06736" lon="6.58881">
        <ele>506.75</ele>
        <time>2010-06-12T07:06:49Z</time>
      </trkpt>
      <trkpt lat="46.0674" lon="6.58849">
        <ele>505.79</ele>
        <time>2010-06-12T07:06:53Z</time>
      </trkpt>
      <trkpt lat="46.06743" lon="6.58831">
        <ele>504.83</ele>
        <time>2010-06-12T07:06:55Z</time>
      </trkpt>
      <trkpt lat="46.06745" lon="6.58823">
        <ele>504.35</ele>
        <time>2010-06-12T07:06:56Z</time>
      </trkpt>
      <trkpt lat="46.06796" lon="6.58686">
        <ele>502.43</ele>
        <time>2010-06-12T07:07:13Z</time>
      </trkpt>
      <trkpt lat="46.06822" lon="6.58644">
        <ele>500.98</ele>
        <time>2010-06-12T07:07:20Z</time>
      </trkpt>
      <trkpt lat="46.06893" lon="6.5857">
        <ele>500.02</ele>
        <time>2010-06-12T07:07:37Z</time>
      </trkpt>
      <trkpt lat="46.06918" lon="6.58522">
        <ele>500.98</ele>
        <time>2010-06-12T07:07:49Z</time>
      </trkpt>
      <trkpt lat="46.06945" lon="6.58522">
        <ele>502.91</ele>
        <time>2010-06-12T07:08:01Z</time>
      </trkpt>
      <trkpt lat="46.0698" lon="6.58557">
        <ele>506.27</ele>
        <time>2010-06-12T07:08:17Z</time>
      </trkpt>
      <trkpt lat="46.0701" lon="6.58589">
        <ele>508.67</ele>
        <time>2010-06-12T07:08:33Z</time>
      </trkpt>
      <trkpt lat="46.07016" lon="6.58607">
        <ele>511.56</ele>
        <time>2010-06-12T07:08:42Z</time>
      </trkpt>
      <trkpt lat="46.07016" lon="6.58608">
        <ele>512.04</ele>
        <time>2010-06-12T07:08:43Z</time>
      </trkpt>
      <trkpt lat="46.07017" lon="6.58611">
        <ele>512.04</ele>
        <time>2010-06-12T07:08:44Z</time>
      </trkpt>
      <trkpt lat="46.07017" lon="6.58613">
        <ele>512.04</ele>
        <time>2010-06-12T07:08:45Z</time>
      </trkpt>
      <trkpt lat="46.07017" lon="6.58614">
        <ele>512.52</ele>
        <time>2010-06-12T07:08:46Z</time>
      </trkpt>
      <trkpt lat="46.07017" lon="6.58616">
        <ele>512.52</ele>
        <time>2010-06-12T07:08:47Z</time>
      </trkpt>
      <trkpt lat="46.07022" lon="6.58636">
        <ele>515.88</ele>
        <time>2010-06-12T07:08:58Z</time>
      </trkpt>
      <trkpt lat="46.07028" lon="6.58656">
        <ele>518.29</ele>
        <time>2010-06-12T07:09:10Z</time>
      </trkpt>
      <trkpt lat="46.07029" lon="6.58677">
        <ele>520.69</ele>
        <time>2010-06-12T07:09:23Z</time>
      </trkpt>
      <trkpt lat="46.07029" lon="6.58685">
        <ele>521.17</ele>
        <time>2010-06-12T07:09:28Z</time>
      </trkpt>
      <trkpt lat="46.07029" lon="6.58686">
        <ele>521.65</ele>
        <time>2010-06-12T07:09:29Z</time>
      </trkpt>
      <trkpt lat="46.07028" lon="6.5869">
        <ele>522.61</ele>
        <time>2010-06-12T07:09:31Z</time>
      </trkpt>
      <trkpt lat="46.07028" lon="6.58692">
        <ele>522.13</ele>
        <time>2010-06-12T07:09:32Z</time>
      </trkpt>
      <trkpt lat="46.07029" lon="6.58695">
        <ele>523.09</ele>
        <time>2010-06-12T07:09:33Z</time>
      </trkpt>
      <trkpt lat="46.07029" lon="6.58697">
        <ele>522.61</ele>
        <time>2010-06-12T07:09:34Z</time>
      </trkpt>
      <trkpt lat="46.07029" lon="6.58699">
        <ele>523.09</ele>
        <time>2010-06-12T07:09:35Z</time>
      </trkpt>
      <trkpt lat="46.07028" lon="6.58703">
        <ele>524.06</ele>
        <time>2010-06-12T07:09:37Z</time>
      </trkpt>
      <trkpt lat="46.07028" lon="6.58705">
        <ele>524.06</ele>
        <time>2010-06-12T07:09:38Z</time>
      </trkpt>
      <trkpt lat="46.07028" lon="6.58708">
        <ele>524.06</ele>
        <time>2010-06-12T07:09:39Z</time>
      </trkpt>
      <trkpt lat="46.07028" lon="6.5871">
        <ele>523.58</ele>
        <time>2010-06-12T07:09:40Z</time>
      </trkpt>
      <trkpt lat="46.07038" lon="6.5872">
        <ele>526.94</ele>
        <time>2010-06-12T07:09:51Z</time>
      </trkpt>
      <trkpt lat="46.07046" lon="6.58714">
        <ele>528.38</ele>
        <time>2010-06-12T07:10:03Z</time>
      </trkpt>
      <trkpt lat="46.07055" lon="6.58707">
        <ele>531.27</ele>
        <time>2010-06-12T07:10:16Z</time>
      </trkpt>
      <trkpt lat="46.07058" lon="6.58704">
        <ele>532.23</ele>
        <time>2010-06-12T07:10:20Z</time>
      </trkpt>
      <trkpt lat="46.07059" lon="6.58703">
        <ele>531.75</ele>
        <time>2010-06-12T07:10:21Z</time>
      </trkpt>
      <trkpt lat="46.07078" lon="6.58695">
        <ele>533.67</ele>
        <time>2010-06-12T07:10:32Z</time>
      </trkpt>
      <trkpt lat="46.07085" lon="6.58689">
        <ele>535.11</ele>
        <time>2010-06-12T07:10:45Z</time>
      </trkpt>
      <trkpt lat="46.07096" lon="6.58683">
        <ele>536.07</ele>
        <time>2010-06-12T07:10:54Z</time>
      </trkpt>
      <trkpt lat="46.07104" lon="6.58682">
        <ele>537.03</ele>
        <time>2010-06-12T07:10:58Z</time>
      </trkpt>
      <trkpt lat="46.07105" lon="6.58682">
        <ele>537.03</ele>
        <time>2010-06-12T07:10:59Z</time>
      </trkpt>
      <trkpt lat="46.07108" lon="6.58682">
        <ele>536.55</ele>
        <time>2010-06-12T07:11:00Z</time>
      </trkpt>
      <trkpt lat="46.07112" lon="6.5868">
        <ele>537.03</ele>
        <time>2010-06-12T07:11:03Z</time>
      </trkpt>
      <trkpt lat="46.07117" lon="6.58677">
        <ele>537.51</ele>
        <time>2010-06-12T07:11:06Z</time>
      </trkpt>
      <trkpt lat="46.07118" lon="6.58676">
        <ele>537.99</ele>
        <time>2010-06-12T07:11:07Z</time>
      </trkpt>
      <trkpt lat="46.07137" lon="6.58662">
        <ele>539.92</ele>
        <time>2010-06-12T07:11:19Z</time>
      </trkpt>
      <trkpt lat="46.07159" lon="6.58652">
        <ele>541.36</ele>
        <time>2010-06-12T07:11:29Z</time>
      </trkpt>
      <trkpt lat="46.07166" lon="6.58649">
        <ele>542.8</ele>
        <time>2010-06-12T07:11:33Z</time>
      </trkpt>
      <trkpt lat="46.0717" lon="6.58648">
        <ele>543.76</ele>
        <time>2010-06-12T07:11:36Z</time>
      </trkpt>
      <trkpt lat="46.07173" lon="6.58648">
        <ele>543.76</ele>
        <time>2010-06-12T07:11:37Z</time>
      </trkpt>
      <trkpt lat="46.07174" lon="6.58648">
        <ele>544.24</ele>
        <time>2010-06-12T07:11:38Z</time>
      </trkpt>
      <trkpt lat="46.07176" lon="6.58647">
        <ele>544.72</ele>
        <time>2010-06-12T07:11:39Z</time>
      </trkpt>
      <trkpt lat="46.07185" lon="6.58642">
        <ele>546.17</ele>
        <time>2010-06-12T07:11:48Z</time>
      </trkpt>
      <trkpt lat="46.07188" lon="6.58641">
        <ele>546.17</ele>
        <time>2010-06-12T07:11:50Z</time>
      </trkpt>
      <trkpt lat="46.07189" lon="6.58642">
        <ele>546.65</ele>
        <time>2010-06-12T07:11:51Z</time>
      </trkpt>
      <trkpt lat="46.07197" lon="6.58648">
        <ele>547.61</ele>
        <time>2010-06-12T07:11:57Z</time>
      </trkpt>
      <trkpt lat="46.07214" lon="6.58655">
        <ele>549.53</ele>
        <time>2010-06-12T07:12:10Z</time>
      </trkpt>
      <trkpt lat="46.07232" lon="6.58668">
        <ele>551.93</ele>
        <time>2010-06-12T07:12:23Z</time>
      </trkpt>
      <trkpt lat="46.07233" lon="6.58669">
        <ele>551.93</ele>
        <time>2010-06-12T07:12:24Z</time>
      </trkpt>
      <trkpt lat="46.07234" lon="6.5867">
        <ele>552.41</ele>
        <time>2010-06-12T07:12:25Z</time>
      </trkpt>
      <trkpt lat="46.07235" lon="6.58672">
        <ele>551.93</ele>
        <time>2010-06-12T07:12:26Z</time>
      </trkpt>
      <trkpt lat="46.07237" lon="6.58672">
        <ele>552.9</ele>
        <time>2010-06-12T07:12:27Z</time>
      </trkpt>
      <trkpt lat="46.07239" lon="6.58674">
        <ele>552.41</ele>
        <time>2010-06-12T07:12:28Z</time>
      </trkpt>
      <trkpt lat="46.07249" lon="6.58686">
        <ele>553.86</ele>
        <time>2010-06-12T07:12:39Z</time>
      </trkpt>
      <trkpt lat="46.07269" lon="6.587">
        <ele>555.3</ele>
        <time>2010-06-12T07:12:52Z</time>
      </trkpt>
      <trkpt lat="46.07271" lon="6.587">
        <ele>555.78</ele>
        <time>2010-06-12T07:12:53Z</time>
      </trkpt>
      <trkpt lat="46.07291" lon="6.5871">
        <ele>557.22</ele>
        <time>2010-06-12T07:13:05Z</time>
      </trkpt>
      <trkpt lat="46.07306" lon="6.58721">
        <ele>560.59</ele>
        <time>2010-06-12T07:13:15Z</time>
      </trkpt>
      <trkpt lat="46.07312" lon="6.58725">
        <ele>561.07</ele>
        <time>2010-06-12T07:13:21Z</time>
      </trkpt>
      <trkpt lat="46.07313" lon="6.58726">
        <ele>561.55</ele>
        <time>2010-06-12T07:13:22Z</time>
      </trkpt>
      <trkpt lat="46.07314" lon="6.58728">
        <ele>561.55</ele>
        <time>2010-06-12T07:13:23Z</time>
      </trkpt>
      <trkpt lat="46.07316" lon="6.58731">
        <ele>561.07</ele>
        <time>2010-06-12T07:13:24Z</time>
      </trkpt>
      <trkpt lat="46.07317" lon="6.58733">
        <ele>562.03</ele>
        <time>2010-06-12T07:13:25Z</time>
      </trkpt>
      <trkpt lat="46.07318" lon="6.58735">
        <ele>561.55</ele>
        <time>2010-06-12T07:13:26Z</time>
      </trkpt>
      <trkpt lat="46.07321" lon="6.58741">
        <ele>562.51</ele>
        <time>2010-06-12T07:13:29Z</time>
      </trkpt>
      <trkpt lat="46.07321" lon="6.58743">
        <ele>562.51</ele>
        <time>2010-06-12T07:13:30Z</time>
      </trkpt>
      <trkpt lat="46.07322" lon="6.58745">
        <ele>562.51</ele>
        <time>2010-06-12T07:13:31Z</time>
      </trkpt>
      <trkpt lat="46.07324" lon="6.58748">
        <ele>563.47</ele>
        <time>2010-06-12T07:13:33Z</time>
      </trkpt>
      <trkpt lat="46.07328" lon="6.58766">
        <ele>564.43</ele>
        <time>2010-06-12T07:13:45Z</time>
      </trkpt>
      <trkpt lat="46.07328" lon="6.58769">
        <ele>564.91</ele>
        <time>2010-06-12T07:13:48Z</time>
      </trkpt>
      <trkpt lat="46.07329" lon="6.58771">
        <ele>564.91</ele>
        <time>2010-06-12T07:13:49Z</time>
      </trkpt>
      <trkpt lat="46.0733" lon="6.58774">
        <ele>564.91</ele>
        <time>2010-06-12T07:13:50Z</time>
      </trkpt>
      <trkpt lat="46.07331" lon="6.5878">
        <ele>565.39</ele>
        <time>2010-06-12T07:13:53Z</time>
      </trkpt>
      <trkpt lat="46.07332" lon="6.58782">
        <ele>565.39</ele>
        <time>2010-06-12T07:13:54Z</time>
      </trkpt>
      <trkpt lat="46.07333" lon="6.58784">
        <ele>565.39</ele>
        <time>2010-06-12T07:13:55Z</time>
      </trkpt>
      <trkpt lat="46.07334" lon="6.58785">
        <ele>565.39</ele>
        <time>2010-06-12T07:13:56Z</time>
      </trkpt>
      <trkpt lat="46.07336" lon="6.58787">
        <ele>565.39</ele>
        <time>2010-06-12T07:13:57Z</time>
      </trkpt>
      <trkpt lat="46.07337" lon="6.58789">
        <ele>565.39</ele>
        <time>2010-06-12T07:13:58Z</time>
      </trkpt>
      <trkpt lat="46.07338" lon="6.58791">
        <ele>565.87</ele>
        <time>2010-06-12T07:13:59Z</time>
      </trkpt>
      <trkpt lat="46.07339" lon="6.58793">
        <ele>565.87</ele>
        <time>2010-06-12T07:14:00Z</time>
      </trkpt>
      <trkpt lat="46.0734" lon="6.58796">
        <ele>565.87</ele>
        <time>2010-06-12T07:14:01Z</time>
      </trkpt>
      <trkpt lat="46.07342" lon="6.58798">
        <ele>565.87</ele>
        <time>2010-06-12T07:14:02Z</time>
      </trkpt>
      <trkpt lat="46.07344" lon="6.58801">
        <ele>566.35</ele>
        <time>2010-06-12T07:14:03Z</time>
      </trkpt>
      <trkpt lat="46.07347" lon="6.58803">
        <ele>565.87</ele>
        <time>2010-06-12T07:14:04Z</time>
      </trkpt>
      <trkpt lat="46.07354" lon="6.58806">
        <ele>568.28</ele>
        <time>2010-06-12T07:14:17Z</time>
      </trkpt>
      <trkpt lat="46.07357" lon="6.588">
        <ele>568.76</ele>
        <time>2010-06-12T07:14:21Z</time>
      </trkpt>
      <trkpt lat="46.07368" lon="6.58783">
        <ele>571.16</ele>
        <time>2010-06-12T07:14:33Z</time>
      </trkpt>
      <trkpt lat="46.07382" lon="6.58769">
        <ele>572.12</ele>
        <time>2010-06-12T07:14:41Z</time>
      </trkpt>
      <trkpt lat="46.07385" lon="6.58766">
        <ele>572.12</ele>
        <time>2010-06-12T07:14:42Z</time>
      </trkpt>
      <trkpt lat="46.074" lon="6.58745">
        <ele>575.01</ele>
        <time>2010-06-12T07:14:54Z</time>
      </trkpt>
      <trkpt lat="46.07404" lon="6.58728">
        <ele>576.45</ele>
        <time>2010-06-12T07:15:04Z</time>
      </trkpt>
      <trkpt lat="46.07406" lon="6.58724">
        <ele>576.93</ele>
        <time>2010-06-12T07:15:06Z</time>
      </trkpt>
      <trkpt lat="46.07408" lon="6.58723">
        <ele>576.93</ele>
        <time>2010-06-12T07:15:07Z</time>
      </trkpt>
      <trkpt lat="46.07409" lon="6.5872">
        <ele>576.93</ele>
        <time>2010-06-12T07:15:08Z</time>
      </trkpt>
      <trkpt lat="46.07416" lon="6.58704">
        <ele>578.85</ele>
        <time>2010-06-12T07:15:18Z</time>
      </trkpt>
      <trkpt lat="46.07417" lon="6.58699">
        <ele>579.33</ele>
        <time>2010-06-12T07:15:20Z</time>
      </trkpt>
      <trkpt lat="46.07418" lon="6.58693">
        <ele>579.81</ele>
        <time>2010-06-12T07:15:22Z</time>
      </trkpt>
      <trkpt lat="46.07419" lon="6.5869">
        <ele>579.33</ele>
        <time>2010-06-12T07:15:23Z</time>
      </trkpt>
      <trkpt lat="46.0742" lon="6.58687">
        <ele>579.81</ele>
        <time>2010-06-12T07:15:24Z</time>
      </trkpt>
      <trkpt lat="46.07422" lon="6.58683">
        <ele>580.77</ele>
        <time>2010-06-12T07:15:26Z</time>
      </trkpt>
      <trkpt lat="46.07426" lon="6.58672">
        <ele>580.77</ele>
        <time>2010-06-12T07:15:31Z</time>
      </trkpt>
      <trkpt lat="46.07427" lon="6.5867">
        <ele>581.73</ele>
        <time>2010-06-12T07:15:32Z</time>
      </trkpt>
      <trkpt lat="46.07427" lon="6.58664">
        <ele>581.25</ele>
        <time>2010-06-12T07:15:34Z</time>
      </trkpt>
      <trkpt lat="46.0743" lon="6.58643">
        <ele>583.18</ele>
        <time>2010-06-12T07:15:42Z</time>
      </trkpt>
      <trkpt lat="46.0744" lon="6.58616">
        <ele>586.06</ele>
        <time>2010-06-12T07:15:54Z</time>
      </trkpt>
      <trkpt lat="46.07444" lon="6.58608">
        <ele>587.02</ele>
        <time>2010-06-12T07:15:58Z</time>
      </trkpt>
      <trkpt lat="46.07459" lon="6.5859">
        <ele>588.46</ele>
        <time>2010-06-12T07:16:09Z</time>
      </trkpt>
      <trkpt lat="46.07461" lon="6.58588">
        <ele>589.43</ele>
        <time>2010-06-12T07:16:11Z</time>
      </trkpt>
      <trkpt lat="46.07468" lon="6.5859">
        <ele>589.91</ele>
        <time>2010-06-12T07:16:16Z</time>
      </trkpt>
      <trkpt lat="46.07475" lon="6.58601">
        <ele>591.35</ele>
        <time>2010-06-12T07:16:22Z</time>
      </trkpt>
      <trkpt lat="46.07477" lon="6.58611">
        <ele>592.79</ele>
        <time>2010-06-12T07:16:28Z</time>
      </trkpt>
      <trkpt lat="46.07479" lon="6.58621">
        <ele>593.75</ele>
        <time>2010-06-12T07:16:32Z</time>
      </trkpt>
      <trkpt lat="46.07482" lon="6.5865">
        <ele>596.15</ele>
        <time>2010-06-12T07:16:46Z</time>
      </trkpt>
      <trkpt lat="46.07484" lon="6.58657">
        <ele>596.64</ele>
        <time>2010-06-12T07:16:49Z</time>
      </trkpt>
      <trkpt lat="46.07492" lon="6.58669">
        <ele>599.04</ele>
        <time>2010-06-12T07:17:01Z</time>
      </trkpt>
      <trkpt lat="46.07493" lon="6.58672">
        <ele>599.04</ele>
        <time>2010-06-12T07:17:03Z</time>
      </trkpt>
      <trkpt lat="46.07501" lon="6.58675">
        <ele>600.48</ele>
        <time>2010-06-12T07:17:08Z</time>
      </trkpt>
      <trkpt lat="46.07513" lon="6.58681">
        <ele>601.92</ele>
        <time>2010-06-12T07:17:18Z</time>
      </trkpt>
      <trkpt lat="46.07518" lon="6.58681">
        <ele>601.92</ele>
        <time>2010-06-12T07:17:22Z</time>
      </trkpt>
      <trkpt lat="46.0754" lon="6.58688">
        <ele>603.36</ele>
        <time>2010-06-12T07:17:35Z</time>
      </trkpt>
      <trkpt lat="46.07569" lon="6.58691">
        <ele>603.85</ele>
        <time>2010-06-12T07:17:48Z</time>
      </trkpt>
      <trkpt lat="46.07602" lon="6.58693">
        <ele>605.29</ele>
        <time>2010-06-12T07:18:02Z</time>
      </trkpt>
      <trkpt lat="46.07635" lon="6.58692">
        <ele>607.69</ele>
        <time>2010-06-12T07:18:18Z</time>
      </trkpt>
      <trkpt lat="46.07664" lon="6.5868">
        <ele>609.61</ele>
        <time>2010-06-12T07:18:33Z</time>
      </trkpt>
      <trkpt lat="46.07693" lon="6.58668">
        <ele>612.5</ele>
        <time>2010-06-12T07:18:49Z</time>
      </trkpt>
      <trkpt lat="46.07712" lon="6.5867">
        <ele>614.42</ele>
        <time>2010-06-12T07:19:03Z</time>
      </trkpt>
      <trkpt lat="46.07712" lon="6.5867">
        <ele>614.42</ele>
        <time>2010-06-12T07:19:28Z</time>
      </trkpt>
      <trkpt lat="46.07712" lon="6.58669">
        <ele>614.42</ele>
        <time>2010-06-12T07:20:01Z</time>
      </trkpt>
      <trkpt lat="46.07712" lon="6.58669">
        <ele>614.42</ele>
        <time>2010-06-12T07:20:40Z</time>
      </trkpt>
      <trkpt lat="46.07715" lon="6.5867">
        <ele>614.42</ele>
        <time>2010-06-12T07:20:55Z</time>
      </trkpt>
      <trkpt lat="46.07719" lon="6.58672">
        <ele>614.9</ele>
        <time>2010-06-12T07:20:58Z</time>
      </trkpt>
      <trkpt lat="46.0774" lon="6.58656">
        <ele>616.82</ele>
        <time>2010-06-12T07:21:12Z</time>
      </trkpt>
      <trkpt lat="46.07761" lon="6.58617">
        <ele>619.71</ele>
        <time>2010-06-12T07:21:30Z</time>
      </trkpt>
      <trkpt lat="46.07774" lon="6.58596">
        <ele>622.11</ele>
        <time>2010-06-12T07:21:40Z</time>
      </trkpt>
      <trkpt lat="46.07783" lon="6.5858">
        <ele>623.07</ele>
        <time>2010-06-12T07:21:47Z</time>
      </trkpt>
      <trkpt lat="46.07804" lon="6.58551">
        <ele>624.99</ele>
        <time>2010-06-12T07:22:01Z</time>
      </trkpt>
      <trkpt lat="46.07833" lon="6.58516">
        <ele>627.88</ele>
        <time>2010-06-12T07:22:18Z</time>
      </trkpt>
      <trkpt lat="46.07856" lon="6.58483">
        <ele>630.76</ele>
        <time>2010-06-12T07:22:33Z</time>
      </trkpt>
      <trkpt lat="46.07883" lon="6.58441">
        <ele>634.13</ele>
        <time>2010-06-12T07:22:51Z</time>
      </trkpt>
      <trkpt lat="46.07916" lon="6.58433">
        <ele>636.53</ele>
        <time>2010-06-12T07:23:07Z</time>
      </trkpt>
      <trkpt lat="46.07938" lon="6.5846">
        <ele>639.89</ele>
        <time>2010-06-12T07:23:21Z</time>
      </trkpt>
      <trkpt lat="46.0795" lon="6.58476">
        <ele>641.82</ele>
        <time>2010-06-12T07:23:29Z</time>
      </trkpt>
      <trkpt lat="46.07972" lon="6.58507">
        <ele>645.18</ele>
        <time>2010-06-12T07:23:44Z</time>
      </trkpt>
      <trkpt lat="46.07997" lon="6.58527">
        <ele>648.07</ele>
        <time>2010-06-12T07:23:59Z</time>
      </trkpt>
      <trkpt lat="46.08025" lon="6.58517">
        <ele>650.47</ele>
        <time>2010-06-12T07:24:13Z</time>
      </trkpt>
      <trkpt lat="46.08064" lon="6.58503">
        <ele>653.83</ele>
        <time>2010-06-12T07:24:32Z</time>
      </trkpt>
      <trkpt lat="46.08095" lon="6.58514">
        <ele>657.2</ele>
        <time>2010-06-12T07:24:48Z</time>
      </trkpt>
      <trkpt lat="46.08126" lon="6.58522">
        <ele>661.04</ele>
        <time>2010-06-12T07:25:03Z</time>
      </trkpt>
      <trkpt lat="46.08128" lon="6.58522">
        <ele>661.04</ele>
        <time>2010-06-12T07:25:04Z</time>
      </trkpt>
      <trkpt lat="46.08157" lon="6.58511">
        <ele>664.41</ele>
        <time>2010-06-12T07:25:17Z</time>
      </trkpt>
      <trkpt lat="46.08187" lon="6.58485">
        <ele>666.81</ele>
        <time>2010-06-12T07:25:32Z</time>
      </trkpt>
      <trkpt lat="46.08216" lon="6.58455">
        <ele>669.7</ele>
        <time>2010-06-12T07:25:48Z</time>
      </trkpt>
      <trkpt lat="46.08241" lon="6.58452">
        <ele>673.06</ele>
        <time>2010-06-12T07:26:00Z</time>
      </trkpt>
      <trkpt lat="46.08262" lon="6.58473">
        <ele>675.46</ele>
        <time>2010-06-12T07:26:12Z</time>
      </trkpt>
      <trkpt lat="46.08286" lon="6.58494">
        <ele>677.87</ele>
        <time>2010-06-12T07:26:26Z</time>
      </trkpt>
      <trkpt lat="46.0832" lon="6.58492">
        <ele>681.23</ele>
        <time>2010-06-12T07:26:42Z</time>
      </trkpt>
      <trkpt lat="46.08351" lon="6.58472">
        <ele>684.12</ele>
        <time>2010-06-12T07:26:59Z</time>
      </trkpt>
      <trkpt lat="46.08362" lon="6.58487">
        <ele>686.04</ele>
        <time>2010-06-12T07:27:06Z</time>
      </trkpt>
      <trkpt lat="46.08354" lon="6.58504">
        <ele>687</ele>
        <time>2010-06-12T07:27:13Z</time>
      </trkpt>
      <trkpt lat="46.08325" lon="6.5853">
        <ele>689.88</ele>
        <time>2010-06-12T07:27:28Z</time>
      </trkpt>
      <trkpt lat="46.08303" lon="6.58574">
        <ele>693.25</ele>
        <time>2010-06-12T07:27:45Z</time>
      </trkpt>
      <trkpt lat="46.08285" lon="6.58607">
        <ele>696.13</ele>
        <time>2010-06-12T07:27:59Z</time>
      </trkpt>
      <trkpt lat="46.08268" lon="6.5864">
        <ele>699.5</ele>
        <time>2010-06-12T07:28:13Z</time>
      </trkpt>
      <trkpt lat="46.08241" lon="6.58663">
        <ele>701.9</ele>
        <time>2010-06-12T07:28:28Z</time>
      </trkpt>
      <trkpt lat="46.08225" lon="6.58689">
        <ele>704.78</ele>
        <time>2010-06-12T07:28:41Z</time>
      </trkpt>
      <trkpt lat="46.08241" lon="6.58707">
        <ele>707.19</ele>
        <time>2010-06-12T07:28:52Z</time>
      </trkpt>
      <trkpt lat="46.08272" lon="6.58708">
        <ele>710.07</ele>
        <time>2010-06-12T07:29:06Z</time>
      </trkpt>
      <trkpt lat="46.08305" lon="6.58709">
        <ele>713.44</ele>
        <time>2010-06-12T07:29:21Z</time>
      </trkpt>
      <trkpt lat="46.08338" lon="6.58705">
        <ele>716.32</ele>
        <time>2010-06-12T07:29:37Z</time>
      </trkpt>
      <trkpt lat="46.0836" lon="6.58695">
        <ele>719.2</ele>
        <time>2010-06-12T07:29:48Z</time>
      </trkpt>
      <trkpt lat="46.08385" lon="6.58671">
        <ele>722.09</ele>
        <time>2010-06-12T07:30:03Z</time>
      </trkpt>
      <trkpt lat="46.08399" lon="6.58637">
        <ele>725.45</ele>
        <time>2010-06-12T07:30:17Z</time>
      </trkpt>
      <trkpt lat="46.08422" lon="6.58611">
        <ele>727.86</ele>
        <time>2010-06-12T07:30:30Z</time>
      </trkpt>
      <trkpt lat="46.08442" lon="6.58592">
        <ele>730.26</ele>
        <time>2010-06-12T07:30:41Z</time>
      </trkpt>
      <trkpt lat="46.0846" lon="6.58558">
        <ele>733.14</ele>
        <time>2010-06-12T07:30:53Z</time>
      </trkpt>
      <trkpt lat="46.08461" lon="6.58556">
        <ele>733.14</ele>
        <time>2010-06-12T07:30:54Z</time>
      </trkpt>
      <trkpt lat="46.08471" lon="6.58545">
        <ele>734.1</ele>
        <time>2010-06-12T07:31:00Z</time>
      </trkpt>
      <trkpt lat="46.08476" lon="6.5854">
        <ele>735.55</ele>
        <time>2010-06-12T07:31:03Z</time>
      </trkpt>
      <trkpt lat="46.08495" lon="6.58506">
        <ele>738.43</ele>
        <time>2010-06-12T07:31:16Z</time>
      </trkpt>
      <trkpt lat="46.08494" lon="6.58474">
        <ele>740.35</ele>
        <time>2010-06-12T07:31:29Z</time>
      </trkpt>
      <trkpt lat="46.08484" lon="6.5844">
        <ele>743.72</ele>
        <time>2010-06-12T07:31:41Z</time>
      </trkpt>
      <trkpt lat="46.08481" lon="6.58417">
        <ele>745.16</ele>
        <time>2010-06-12T07:31:49Z</time>
      </trkpt>
      <trkpt lat="46.08499" lon="6.58391">
        <ele>748.04</ele>
        <time>2010-06-12T07:32:01Z</time>
      </trkpt>
      <trkpt lat="46.08529" lon="6.58368">
        <ele>746.12</ele>
        <time>2010-06-12T07:32:14Z</time>
      </trkpt>
      <trkpt lat="46.08534" lon="6.58365">
        <ele>746.12</ele>
        <time>2010-06-12T07:32:25Z</time>
      </trkpt>
      <trkpt lat="46.08534" lon="6.58365">
        <ele>746.12</ele>
        <time>2010-06-12T07:32:54Z</time>
      </trkpt>
      <trkpt lat="46.08534" lon="6.58365">
        <ele>746.6</ele>
        <time>2010-06-12T07:33:27Z</time>
      </trkpt>
      <trkpt lat="46.08534" lon="6.58365">
        <ele>736.99</ele>
        <time>2010-06-12T07:33:41Z</time>
      </trkpt>
      <trkpt lat="46.08534" lon="6.58365">
        <ele>739.39</ele>
        <time>2010-06-12T07:33:42Z</time>
      </trkpt>
      <trkpt lat="46.08534" lon="6.58365">
        <ele>750.45</ele>
        <time>2010-06-12T07:33:43Z</time>
      </trkpt>
      <trkpt lat="46.08534" lon="6.58365">
        <ele>742.76</ele>
        <time>2010-06-12T07:33:44Z</time>
      </trkpt>
      <trkpt lat="46.08534" lon="6.58365">
        <ele>748.04</ele>
        <time>2010-06-12T07:33:45Z</time>
      </trkpt>
      <trkpt lat="46.08534" lon="6.58365">
        <ele>747.08</ele>
        <time>2010-06-12T07:33:50Z</time>
      </trkpt>
      <trkpt lat="46.08534" lon="6.58365">
        <ele>746.12</ele>
        <time>2010-06-12T07:34:26Z</time>
      </trkpt>
      <trkpt lat="46.08537" lon="6.58363">
        <ele>746.6</ele>
        <time>2010-06-12T07:34:46Z</time>
      </trkpt>
      <trkpt lat="46.08537" lon="6.58363">
        <ele>746.12</ele>
        <time>2010-06-12T07:35:06Z</time>
      </trkpt>
      <trkpt lat="46.08537" lon="6.58363">
        <ele>746.6</ele>
        <time>2010-06-12T07:35:34Z</time>
      </trkpt>
      <trkpt lat="46.08537" lon="6.58362">
        <ele>747.08</ele>
        <time>2010-06-12T07:36:01Z</time>
      </trkpt>
      <trkpt lat="46.08538" lon="6.58361">
        <ele>747.08</ele>
        <time>2010-06-12T07:36:38Z</time>
      </trkpt>
      <trkpt lat="46.08539" lon="6.58347">
        <ele>745.64</ele>
        <time>2010-06-12T07:36:43Z</time>
      </trkpt>
      <trkpt lat="46.08541" lon="6.58341">
        <ele>745.16</ele>
        <time>2010-06-12T07:36:44Z</time>
      </trkpt>
      <trkpt lat="46.08544" lon="6.58334">
        <ele>743.72</ele>
        <time>2010-06-12T07:36:45Z</time>
      </trkpt>
      <trkpt lat="46.08551" lon="6.58319">
        <ele>742.76</ele>
        <time>2010-06-12T07:36:47Z</time>
      </trkpt>
      <trkpt lat="46.08557" lon="6.58311">
        <ele>741.79</ele>
        <time>2010-06-12T07:36:48Z</time>
      </trkpt>
      <trkpt lat="46.08581" lon="6.58278">
        <ele>738.43</ele>
        <time>2010-06-12T07:36:52Z</time>
      </trkpt>
      <trkpt lat="46.08588" lon="6.58269">
        <ele>738.43</ele>
        <time>2010-06-12T07:36:53Z</time>
      </trkpt>
      <trkpt lat="46.086" lon="6.58252">
        <ele>736.99</ele>
        <time>2010-06-12T07:36:55Z</time>
      </trkpt>
      <trkpt lat="46.08605" lon="6.58243">
        <ele>737.47</ele>
        <time>2010-06-12T07:36:56Z</time>
      </trkpt>
      <trkpt lat="46.08622" lon="6.5822">
        <ele>736.51</ele>
        <time>2010-06-12T07:36:59Z</time>
      </trkpt>
      <trkpt lat="46.08629" lon="6.58215">
        <ele>736.51</ele>
        <time>2010-06-12T07:37:00Z</time>
      </trkpt>
      <trkpt lat="46.08634" lon="6.58212">
        <ele>736.99</ele>
        <time>2010-06-12T07:37:01Z</time>
      </trkpt>
      <trkpt lat="46.08639" lon="6.58211">
        <ele>736.99</ele>
        <time>2010-06-12T07:37:02Z</time>
      </trkpt>
      <trkpt lat="46.08643" lon="6.58211">
        <ele>737.95</ele>
        <time>2010-06-12T07:37:03Z</time>
      </trkpt>
      <trkpt lat="46.08646" lon="6.58212">
        <ele>737.47</ele>
        <time>2010-06-12T07:37:04Z</time>
      </trkpt>
      <trkpt lat="46.08648" lon="6.58214">
        <ele>738.43</ele>
        <time>2010-06-12T07:37:05Z</time>
      </trkpt>
      <trkpt lat="46.08651" lon="6.58216">
        <ele>737.95</ele>
        <time>2010-06-12T07:37:06Z</time>
      </trkpt>
      <trkpt lat="46.08653" lon="6.58219">
        <ele>738.43</ele>
        <time>2010-06-12T07:37:07Z</time>
      </trkpt>
      <trkpt lat="46.08655" lon="6.58222">
        <ele>738.43</ele>
        <time>2010-06-12T07:37:08Z</time>
      </trkpt>
      <trkpt lat="46.08657" lon="6.58225">
        <ele>738.43</ele>
        <time>2010-06-12T07:37:09Z</time>
      </trkpt>
      <trkpt lat="46.0866" lon="6.58229">
        <ele>738.91</ele>
        <time>2010-06-12T07:37:10Z</time>
      </trkpt>
      <trkpt lat="46.08697" lon="6.58257">
        <ele>741.31</ele>
        <time>2010-06-12T07:37:22Z</time>
      </trkpt>
      <trkpt lat="46.08739" lon="6.58287">
        <ele>743.24</ele>
        <time>2010-06-12T07:37:36Z</time>
      </trkpt>
      <trkpt lat="46.0878" lon="6.58313">
        <ele>744.2</ele>
        <time>2010-06-12T07:37:48Z</time>
      </trkpt>
      <trkpt lat="46.08845" lon="6.58354">
        <ele>742.76</ele>
        <time>2010-06-12T07:38:02Z</time>
      </trkpt>
      <trkpt lat="46.08933" lon="6.58412">
        <ele>739.87</ele>
        <time>2010-06-12T07:38:17Z</time>
      </trkpt>
      <trkpt lat="46.08952" lon="6.58425">
        <ele>738.43</ele>
        <time>2010-06-12T07:38:20Z</time>
      </trkpt>
      <trkpt lat="46.09054" lon="6.58491">
        <ele>738.43</ele>
        <time>2010-06-12T07:38:37Z</time>
      </trkpt>
      <trkpt lat="46.09059" lon="6.58492">
        <ele>738.43</ele>
        <time>2010-06-12T07:38:38Z</time>
      </trkpt>
      <trkpt lat="46.09071" lon="6.58492">
        <ele>738.43</ele>
        <time>2010-06-12T07:38:40Z</time>
      </trkpt>
      <trkpt lat="46.09076" lon="6.58493">
        <ele>738.43</ele>
        <time>2010-06-12T07:38:41Z</time>
      </trkpt>
      <trkpt lat="46.09082" lon="6.58495">
        <ele>737.95</ele>
        <time>2010-06-12T07:38:42Z</time>
      </trkpt>
      <trkpt lat="46.09088" lon="6.58498">
        <ele>738.43</ele>
        <time>2010-06-12T07:38:43Z</time>
      </trkpt>
      <trkpt lat="46.09093" lon="6.58501">
        <ele>737.95</ele>
        <time>2010-06-12T07:38:44Z</time>
      </trkpt>
      <trkpt lat="46.09099" lon="6.58505">
        <ele>737.95</ele>
        <time>2010-06-12T07:38:45Z</time>
      </trkpt>
      <trkpt lat="46.09106" lon="6.58507">
        <ele>737.95</ele>
        <time>2010-06-12T07:38:46Z</time>
      </trkpt>
      <trkpt lat="46.09112" lon="6.58508">
        <ele>737.47</ele>
        <time>2010-06-12T07:38:47Z</time>
      </trkpt>
      <trkpt lat="46.09118" lon="6.58509">
        <ele>737.95</ele>
        <time>2010-06-12T07:38:48Z</time>
      </trkpt>
      <trkpt lat="46.09124" lon="6.5851">
        <ele>737.95</ele>
        <time>2010-06-12T07:38:49Z</time>
      </trkpt>
      <trkpt lat="46.09191" lon="6.58512">
        <ele>734.58</ele>
        <time>2010-06-12T07:39:00Z</time>
      </trkpt>
      <trkpt lat="46.09211" lon="6.58517">
        <ele>732.66</ele>
        <time>2010-06-12T07:39:03Z</time>
      </trkpt>
      <trkpt lat="46.09245" lon="6.58527">
        <ele>729.3</ele>
        <time>2010-06-12T07:39:10Z</time>
      </trkpt>
      <trkpt lat="46.09249" lon="6.58529">
        <ele>727.86</ele>
        <time>2010-06-12T07:39:11Z</time>
      </trkpt>
      <trkpt lat="46.09265" lon="6.58538">
        <ele>724.01</ele>
        <time>2010-06-12T07:39:14Z</time>
      </trkpt>
      <trkpt lat="46.09277" lon="6.58543">
        <ele>721.13</ele>
        <time>2010-06-12T07:39:16Z</time>
      </trkpt>
      <trkpt lat="46.09287" lon="6.58549">
        <ele>719.2</ele>
        <time>2010-06-12T07:39:18Z</time>
      </trkpt>
      <trkpt lat="46.09302" lon="6.58558">
        <ele>716.32</ele>
        <time>2010-06-12T07:39:21Z</time>
      </trkpt>
      <trkpt lat="46.09307" lon="6.5856">
        <ele>715.36</ele>
        <time>2010-06-12T07:39:22Z</time>
      </trkpt>
      <trkpt lat="46.09312" lon="6.58562">
        <ele>714.4</ele>
        <time>2010-06-12T07:39:23Z</time>
      </trkpt>
      <trkpt lat="46.09317" lon="6.58566">
        <ele>713.92</ele>
        <time>2010-06-12T07:39:24Z</time>
      </trkpt>
      <trkpt lat="46.09326" lon="6.58573">
        <ele>711.99</ele>
        <time>2010-06-12T07:39:26Z</time>
      </trkpt>
      <trkpt lat="46.09331" lon="6.58578">
        <ele>711.51</ele>
        <time>2010-06-12T07:39:27Z</time>
      </trkpt>
      <trkpt lat="46.09336" lon="6.58584">
        <ele>711.03</ele>
        <time>2010-06-12T07:39:28Z</time>
      </trkpt>
      <trkpt lat="46.0934" lon="6.5859">
        <ele>710.55</ele>
        <time>2010-06-12T07:39:29Z</time>
      </trkpt>
      <trkpt lat="46.09342" lon="6.58597">
        <ele>710.07</ele>
        <time>2010-06-12T07:39:30Z</time>
      </trkpt>
      <trkpt lat="46.09343" lon="6.58603">
        <ele>709.11</ele>
        <time>2010-06-12T07:39:31Z</time>
      </trkpt>
      <trkpt lat="46.09343" lon="6.58609">
        <ele>708.63</ele>
        <time>2010-06-12T07:39:32Z</time>
      </trkpt>
      <trkpt lat="46.09346" lon="6.58639">
        <ele>706.71</ele>
        <time>2010-06-12T07:39:39Z</time>
      </trkpt>
      <trkpt lat="46.0935" lon="6.58651">
        <ele>705.75</ele>
        <time>2010-06-12T07:39:42Z</time>
      </trkpt>
      <trkpt lat="46.09353" lon="6.58655">
        <ele>704.78</ele>
        <time>2010-06-12T07:39:43Z</time>
      </trkpt>
      <trkpt lat="46.09363" lon="6.5866">
        <ele>701.42</ele>
        <time>2010-06-12T07:39:48Z</time>
      </trkpt>
      <trkpt lat="46.09365" lon="6.58661">
        <ele>701.42</ele>
        <time>2010-06-12T07:39:49Z</time>
      </trkpt>
      <trkpt lat="46.09373" lon="6.5867">
        <ele>699.02</ele>
        <time>2010-06-12T07:39:56Z</time>
      </trkpt>
      <trkpt lat="46.0938" lon="6.58674">
        <ele>697.57</ele>
        <time>2010-06-12T07:39:59Z</time>
      </trkpt>
      <trkpt lat="46.09391" lon="6.58685">
        <ele>694.21</ele>
        <time>2010-06-12T07:40:04Z</time>
      </trkpt>
      <trkpt lat="46.09397" lon="6.58693">
        <ele>691.33</ele>
        <time>2010-06-12T07:40:08Z</time>
      </trkpt>
      <trkpt lat="46.09407" lon="6.58714">
        <ele>687.96</ele>
        <time>2010-06-12T07:40:15Z</time>
      </trkpt>
      <trkpt lat="46.09407" lon="6.58714">
        <ele>687.96</ele>
        <time>2010-06-12T07:40:16Z</time>
      </trkpt>
      <trkpt lat="46.09412" lon="6.58722">
        <ele>686.52</ele>
        <time>2010-06-12T07:40:19Z</time>
      </trkpt>
      <trkpt lat="46.09419" lon="6.58732">
        <ele>683.15</ele>
        <time>2010-06-12T07:40:22Z</time>
      </trkpt>
      <trkpt lat="46.0943" lon="6.58747">
        <ele>679.79</ele>
        <time>2010-06-12T07:40:26Z</time>
      </trkpt>
      <trkpt lat="46.09439" lon="6.58756">
        <ele>676.91</ele>
        <time>2010-06-12T07:40:29Z</time>
      </trkpt>
      <trkpt lat="46.09446" lon="6.58772">
        <ele>671.62</ele>
        <time>2010-06-12T07:40:35Z</time>
      </trkpt>
      <trkpt lat="46.09447" lon="6.58776">
        <ele>669.22</ele>
        <time>2010-06-12T07:40:39Z</time>
      </trkpt>
      <trkpt lat="46.09457" lon="6.58787">
        <ele>667.77</ele>
        <time>2010-06-12T07:40:41Z</time>
      </trkpt>
      <trkpt lat="46.09464" lon="6.58807">
        <ele>665.37</ele>
        <time>2010-06-12T07:40:45Z</time>
      </trkpt>
      <trkpt lat="46.09466" lon="6.58811">
        <ele>664.89</ele>
        <time>2010-06-12T07:40:46Z</time>
      </trkpt>
      <trkpt lat="46.09472" lon="6.58823">
        <ele>664.89</ele>
        <time>2010-06-12T07:40:48Z</time>
      </trkpt>
      <trkpt lat="46.09476" lon="6.5883">
        <ele>664.41</ele>
        <time>2010-06-12T07:40:49Z</time>
      </trkpt>
      <trkpt lat="46.09486" lon="6.58842">
        <ele>663.45</ele>
        <time>2010-06-12T07:40:51Z</time>
      </trkpt>
      <trkpt lat="46.09489" lon="6.58849">
        <ele>662.97</ele>
        <time>2010-06-12T07:40:52Z</time>
      </trkpt>
      <trkpt lat="46.09493" lon="6.58856">
        <ele>662.49</ele>
        <time>2010-06-12T07:40:53Z</time>
      </trkpt>
      <trkpt lat="46.09496" lon="6.58863">
        <ele>661.52</ele>
        <time>2010-06-12T07:40:54Z</time>
      </trkpt>
      <trkpt lat="46.09521" lon="6.58913">
        <ele>659.6</ele>
        <time>2010-06-12T07:41:04Z</time>
      </trkpt>
      <trkpt lat="46.09546" lon="6.58955">
        <ele>657.2</ele>
        <time>2010-06-12T07:41:17Z</time>
      </trkpt>
      <trkpt lat="46.09557" lon="6.5897">
        <ele>656.72</ele>
        <time>2010-06-12T07:41:22Z</time>
      </trkpt>
      <trkpt lat="46.09573" lon="6.59002">
        <ele>654.31</ele>
        <time>2010-06-12T07:41:32Z</time>
      </trkpt>
      <trkpt lat="46.09579" lon="6.59013">
        <ele>653.83</ele>
        <time>2010-06-12T07:41:36Z</time>
      </trkpt>
      <trkpt lat="46.0958" lon="6.59015">
        <ele>653.83</ele>
        <time>2010-06-12T07:41:37Z</time>
      </trkpt>
      <trkpt lat="46.09581" lon="6.59018">
        <ele>653.83</ele>
        <time>2010-06-12T07:41:38Z</time>
      </trkpt>
      <trkpt lat="46.09581" lon="6.59021">
        <ele>653.35</ele>
        <time>2010-06-12T07:41:39Z</time>
      </trkpt>
      <trkpt lat="46.09582" lon="6.59023">
        <ele>653.35</ele>
        <time>2010-06-12T07:41:40Z</time>
      </trkpt>
      <trkpt lat="46.09594" lon="6.59052">
        <ele>650.95</ele>
        <time>2010-06-12T07:41:47Z</time>
      </trkpt>
      <trkpt lat="46.09597" lon="6.59055">
        <ele>650.47</ele>
        <time>2010-06-12T07:41:48Z</time>
      </trkpt>
      <trkpt lat="46.09607" lon="6.5906">
        <ele>649.99</ele>
        <time>2010-06-12T07:41:50Z</time>
      </trkpt>
      <trkpt lat="46.09613" lon="6.59065">
        <ele>649.03</ele>
        <time>2010-06-12T07:41:51Z</time>
      </trkpt>
      <trkpt lat="46.09618" lon="6.5907">
        <ele>648.55</ele>
        <time>2010-06-12T07:41:52Z</time>
      </trkpt>
      <trkpt lat="46.09622" lon="6.59074">
        <ele>648.55</ele>
        <time>2010-06-12T07:41:53Z</time>
      </trkpt>
      <trkpt lat="46.09631" lon="6.59082">
        <ele>647.1</ele>
        <time>2010-06-12T07:41:55Z</time>
      </trkpt>
      <trkpt lat="46.09636" lon="6.59086">
        <ele>646.14</ele>
        <time>2010-06-12T07:41:56Z</time>
      </trkpt>
      <trkpt lat="46.09652" lon="6.59094">
        <ele>643.26</ele>
        <time>2010-06-12T07:42:02Z</time>
      </trkpt>
      <trkpt lat="46.09656" lon="6.59093">
        <ele>643.26</ele>
        <time>2010-06-12T07:42:03Z</time>
      </trkpt>
      <trkpt lat="46.09658" lon="6.5909">
        <ele>642.3</ele>
        <time>2010-06-12T07:42:04Z</time>
      </trkpt>
      <trkpt lat="46.0966" lon="6.59087">
        <ele>642.3</ele>
        <time>2010-06-12T07:42:05Z</time>
      </trkpt>
      <trkpt lat="46.09661" lon="6.59082">
        <ele>641.82</ele>
        <time>2010-06-12T07:42:06Z</time>
      </trkpt>
      <trkpt lat="46.09662" lon="6.59078">
        <ele>641.34</ele>
        <time>2010-06-12T07:42:07Z</time>
      </trkpt>
      <trkpt lat="46.09665" lon="6.59057">
        <ele>640.86</ele>
        <time>2010-06-12T07:42:11Z</time>
      </trkpt>
      <trkpt lat="46.09666" lon="6.59051">
        <ele>639.89</ele>
        <time>2010-06-12T07:42:12Z</time>
      </trkpt>
      <trkpt lat="46.09669" lon="6.59025">
        <ele>638.93</ele>
        <time>2010-06-12T07:42:15Z</time>
      </trkpt>
      <trkpt lat="46.09672" lon="6.59015">
        <ele>638.45</ele>
        <time>2010-06-12T07:42:16Z</time>
      </trkpt>
      <trkpt lat="46.09677" lon="6.59006">
        <ele>637.49</ele>
        <time>2010-06-12T07:42:17Z</time>
      </trkpt>
      <trkpt lat="46.09682" lon="6.58999">
        <ele>637.01</ele>
        <time>2010-06-12T07:42:18Z</time>
      </trkpt>
      <trkpt lat="46.09688" lon="6.58992">
        <ele>636.53</ele>
        <time>2010-06-12T07:42:19Z</time>
      </trkpt>
      <trkpt lat="46.09695" lon="6.58989">
        <ele>636.53</ele>
        <time>2010-06-12T07:42:20Z</time>
      </trkpt>
      <trkpt lat="46.09703" lon="6.58988">
        <ele>636.53</ele>
        <time>2010-06-12T07:42:21Z</time>
      </trkpt>
      <trkpt lat="46.09717" lon="6.58989">
        <ele>636.53</ele>
        <time>2010-06-12T07:42:23Z</time>
      </trkpt>
      <trkpt lat="46.09725" lon="6.58989">
        <ele>637.01</ele>
        <time>2010-06-12T07:42:24Z</time>
      </trkpt>
      <trkpt lat="46.09812" lon="6.59001">
        <ele>633.65</ele>
        <time>2010-06-12T07:42:36Z</time>
      </trkpt>
      <trkpt lat="46.09918" lon="6.59014">
        <ele>634.13</ele>
        <time>2010-06-12T07:42:52Z</time>
      </trkpt>
      <trkpt lat="46.09982" lon="6.59022">
        <ele>635.09</ele>
        <time>2010-06-12T07:43:05Z</time>
      </trkpt>
      <trkpt lat="46.09986" lon="6.59022">
        <ele>635.57</ele>
        <time>2010-06-12T07:43:06Z</time>
      </trkpt>
      <trkpt lat="46.10021" lon="6.59026">
        <ele>636.05</ele>
        <time>2010-06-12T07:43:14Z</time>
      </trkpt>
      <trkpt lat="46.10044" lon="6.59029">
        <ele>636.05</ele>
        <time>2010-06-12T07:43:19Z</time>
      </trkpt>
      <trkpt lat="46.10115" lon="6.59037">
        <ele>637.49</ele>
        <time>2010-06-12T07:43:33Z</time>
      </trkpt>
      <trkpt lat="46.1018" lon="6.59047">
        <ele>637.97</ele>
        <time>2010-06-12T07:43:46Z</time>
      </trkpt>
      <trkpt lat="46.10256" lon="6.59055">
        <ele>639.89</ele>
        <time>2010-06-12T07:44:02Z</time>
      </trkpt>
      <trkpt lat="46.1033" lon="6.59063">
        <ele>641.34</ele>
        <time>2010-06-12T07:44:19Z</time>
      </trkpt>
      <trkpt lat="46.10415" lon="6.59073">
        <ele>643.74</ele>
        <time>2010-06-12T07:44:38Z</time>
      </trkpt>
      <trkpt lat="46.10436" lon="6.59076">
        <ele>644.22</ele>
        <time>2010-06-12T07:44:43Z</time>
      </trkpt>
      <trkpt lat="46.10504" lon="6.59085">
        <ele>645.18</ele>
        <time>2010-06-12T07:44:58Z</time>
      </trkpt>
      <trkpt lat="46.10531" lon="6.59089">
        <ele>646.14</ele>
        <time>2010-06-12T07:45:04Z</time>
      </trkpt>
      <trkpt lat="46.10604" lon="6.59094">
        <ele>647.59</ele>
        <time>2010-06-12T07:45:20Z</time>
      </trkpt>
      <trkpt lat="46.10684" lon="6.59103">
        <ele>649.99</ele>
        <time>2010-06-12T07:45:38Z</time>
      </trkpt>
      <trkpt lat="46.10739" lon="6.59108">
        <ele>651.91</ele>
        <time>2010-06-12T07:45:51Z</time>
      </trkpt>
      <trkpt lat="46.10743" lon="6.5911">
        <ele>651.91</ele>
        <time>2010-06-12T07:45:52Z</time>
      </trkpt>
      <trkpt lat="46.10784" lon="6.59116">
        <ele>653.83</ele>
        <time>2010-06-12T07:46:05Z</time>
      </trkpt>
      <trkpt lat="46.10795" lon="6.59116">
        <ele>653.83</ele>
        <time>2010-06-12T07:46:12Z</time>
      </trkpt>
      <trkpt lat="46.10797" lon="6.59112">
        <ele>654.31</ele>
        <time>2010-06-12T07:46:13Z</time>
      </trkpt>
      <trkpt lat="46.10798" lon="6.59107">
        <ele>653.83</ele>
        <time>2010-06-12T07:46:14Z</time>
      </trkpt>
      <trkpt lat="46.10798" lon="6.59102">
        <ele>653.83</ele>
        <time>2010-06-12T07:46:15Z</time>
      </trkpt>
      <trkpt lat="46.10798" lon="6.59096">
        <ele>654.31</ele>
        <time>2010-06-12T07:46:16Z</time>
      </trkpt>
      <trkpt lat="46.10798" lon="6.59084">
        <ele>654.31</ele>
        <time>2010-06-12T07:46:18Z</time>
      </trkpt>
      <trkpt lat="46.108" lon="6.59058">
        <ele>654.31</ele>
        <time>2010-06-12T07:46:22Z</time>
      </trkpt>
      <trkpt lat="46.10802" lon="6.59051">
        <ele>654.31</ele>
        <time>2010-06-12T07:46:23Z</time>
      </trkpt>
      <trkpt lat="46.10805" lon="6.59046">
        <ele>654.31</ele>
        <time>2010-06-12T07:46:24Z</time>
      </trkpt>
      <trkpt lat="46.10809" lon="6.59044">
        <ele>653.83</ele>
        <time>2010-06-12T07:46:25Z</time>
      </trkpt>
      <trkpt lat="46.10814" lon="6.59044">
        <ele>653.83</ele>
        <time>2010-06-12T07:46:26Z</time>
      </trkpt>
      <trkpt lat="46.10819" lon="6.59044">
        <ele>654.31</ele>
        <time>2010-06-12T07:46:27Z</time>
      </trkpt>
      <trkpt lat="46.10823" lon="6.59046">
        <ele>653.83</ele>
        <time>2010-06-12T07:46:28Z</time>
      </trkpt>
      <trkpt lat="46.10828" lon="6.59047">
        <ele>654.31</ele>
        <time>2010-06-12T07:46:29Z</time>
      </trkpt>
      <trkpt lat="46.10867" lon="6.5906">
        <ele>655.28</ele>
        <time>2010-06-12T07:46:42Z</time>
      </trkpt>
      <trkpt lat="46.10894" lon="6.59077">
        <ele>656.72</ele>
        <time>2010-06-12T07:46:54Z</time>
      </trkpt>
      <trkpt lat="46.10917" lon="6.59109">
        <ele>658.64</ele>
        <time>2010-06-12T07:47:08Z</time>
      </trkpt>
      <trkpt lat="46.10938" lon="6.59132">
        <ele>659.12</ele>
        <time>2010-06-12T07:47:20Z</time>
      </trkpt>
      <trkpt lat="46.10954" lon="6.59124">
        <ele>662.49</ele>
        <time>2010-06-12T07:47:30Z</time>
      </trkpt>
      <trkpt lat="46.10966" lon="6.5912">
        <ele>665.37</ele>
        <time>2010-06-12T07:47:37Z</time>
      </trkpt>
      <trkpt lat="46.10982" lon="6.59123">
        <ele>668.25</ele>
        <time>2010-06-12T07:47:45Z</time>
      </trkpt>
      <trkpt lat="46.11" lon="6.59122">
        <ele>671.14</ele>
        <time>2010-06-12T07:47:55Z</time>
      </trkpt>
      <trkpt lat="46.11017" lon="6.59118">
        <ele>674.98</ele>
        <time>2010-06-12T07:48:06Z</time>
      </trkpt>
      <trkpt lat="46.11032" lon="6.59108">
        <ele>678.35</ele>
        <time>2010-06-12T07:48:17Z</time>
      </trkpt>
      <trkpt lat="46.11033" lon="6.59107">
        <ele>678.35</ele>
        <time>2010-06-12T07:48:18Z</time>
      </trkpt>
      <trkpt lat="46.11041" lon="6.591">
        <ele>680.27</ele>
        <time>2010-06-12T07:48:25Z</time>
      </trkpt>
      <trkpt lat="46.1104" lon="6.59098">
        <ele>680.75</ele>
        <time>2010-06-12T07:48:26Z</time>
      </trkpt>
      <trkpt lat="46.11038" lon="6.59094">
        <ele>681.23</ele>
        <time>2010-06-12T07:48:28Z</time>
      </trkpt>
      <trkpt lat="46.11036" lon="6.59093">
        <ele>681.23</ele>
        <time>2010-06-12T07:48:29Z</time>
      </trkpt>
      <trkpt lat="46.11035" lon="6.59092">
        <ele>681.23</ele>
        <time>2010-06-12T07:48:30Z</time>
      </trkpt>
      <trkpt lat="46.11033" lon="6.59092">
        <ele>681.71</ele>
        <time>2010-06-12T07:48:31Z</time>
      </trkpt>
      <trkpt lat="46.11032" lon="6.59091">
        <ele>681.71</ele>
        <time>2010-06-12T07:48:32Z</time>
      </trkpt>
      <trkpt lat="46.11031" lon="6.59089">
        <ele>682.19</ele>
        <time>2010-06-12T07:48:33Z</time>
      </trkpt>
      <trkpt lat="46.11031" lon="6.59088">
        <ele>681.71</ele>
        <time>2010-06-12T07:48:34Z</time>
      </trkpt>
      <trkpt lat="46.1103" lon="6.59086">
        <ele>681.71</ele>
        <time>2010-06-12T07:48:35Z</time>
      </trkpt>
      <trkpt lat="46.1103" lon="6.59084">
        <ele>682.19</ele>
        <time>2010-06-12T07:48:36Z</time>
      </trkpt>
      <trkpt lat="46.1103" lon="6.59082">
        <ele>682.19</ele>
        <time>2010-06-12T07:48:37Z</time>
      </trkpt>
      <trkpt lat="46.1103" lon="6.5908">
        <ele>682.19</ele>
        <time>2010-06-12T07:48:38Z</time>
      </trkpt>
      <trkpt lat="46.11031" lon="6.59078">
        <ele>682.67</ele>
        <time>2010-06-12T07:48:39Z</time>
      </trkpt>
      <trkpt lat="46.11033" lon="6.59076">
        <ele>682.19</ele>
        <time>2010-06-12T07:48:40Z</time>
      </trkpt>
      <trkpt lat="46.11035" lon="6.59074">
        <ele>683.15</ele>
        <time>2010-06-12T07:48:41Z</time>
      </trkpt>
      <trkpt lat="46.11038" lon="6.59074">
        <ele>683.15</ele>
        <time>2010-06-12T07:48:42Z</time>
      </trkpt>
      <trkpt lat="46.1104" lon="6.59074">
        <ele>683.15</ele>
        <time>2010-06-12T07:48:43Z</time>
      </trkpt>
      <trkpt lat="46.11055" lon="6.59066">
        <ele>686.52</ele>
        <time>2010-06-12T07:48:55Z</time>
      </trkpt>
      <trkpt lat="46.11065" lon="6.59044">
        <ele>689.4</ele>
        <time>2010-06-12T07:49:08Z</time>
      </trkpt>
      <trkpt lat="46.11071" lon="6.59036">
        <ele>690.84</ele>
        <time>2010-06-12T07:49:15Z</time>
      </trkpt>
      <trkpt lat="46.11072" lon="6.59035">
        <ele>691.33</ele>
        <time>2010-06-12T07:49:16Z</time>
      </trkpt>
      <trkpt lat="46.11074" lon="6.59035">
        <ele>691.81</ele>
        <time>2010-06-12T07:49:17Z</time>
      </trkpt>
      <trkpt lat="46.11091" lon="6.59021">
        <ele>695.17</ele>
        <time>2010-06-12T07:49:32Z</time>
      </trkpt>
      <trkpt lat="46.11106" lon="6.59016">
        <ele>698.53</ele>
        <time>2010-06-12T07:49:44Z</time>
      </trkpt>
      <trkpt lat="46.11118" lon="6.59002">
        <ele>701.9</ele>
        <time>2010-06-12T07:49:56Z</time>
      </trkpt>
      <trkpt lat="46.11125" lon="6.58995">
        <ele>703.82</ele>
        <time>2010-06-12T07:50:09Z</time>
      </trkpt>
      <trkpt lat="46.11132" lon="6.58991">
        <ele>705.75</ele>
        <time>2010-06-12T07:50:23Z</time>
      </trkpt>
      <trkpt lat="46.11138" lon="6.58995">
        <ele>706.71</ele>
        <time>2010-06-12T07:50:33Z</time>
      </trkpt>
      <trkpt lat="46.1114" lon="6.58996">
        <ele>706.23</ele>
        <time>2010-06-12T07:50:34Z</time>
      </trkpt>
      <trkpt lat="46.11149" lon="6.58996">
        <ele>708.63</ele>
        <time>2010-06-12T07:50:42Z</time>
      </trkpt>
      <trkpt lat="46.1115" lon="6.58995">
        <ele>708.15</ele>
        <time>2010-06-12T07:50:43Z</time>
      </trkpt>
      <trkpt lat="46.11151" lon="6.58993">
        <ele>709.11</ele>
        <time>2010-06-12T07:50:44Z</time>
      </trkpt>
      <trkpt lat="46.11151" lon="6.58991">
        <ele>709.11</ele>
        <time>2010-06-12T07:50:45Z</time>
      </trkpt>
      <trkpt lat="46.11152" lon="6.58989">
        <ele>709.11</ele>
        <time>2010-06-12T07:50:46Z</time>
      </trkpt>
      <trkpt lat="46.11152" lon="6.58987">
        <ele>709.59</ele>
        <time>2010-06-12T07:50:47Z</time>
      </trkpt>
      <trkpt lat="46.11154" lon="6.58984">
        <ele>709.59</ele>
        <time>2010-06-12T07:50:49Z</time>
      </trkpt>
      <trkpt lat="46.11168" lon="6.5898">
        <ele>712.95</ele>
        <time>2010-06-12T07:51:01Z</time>
      </trkpt>
      <trkpt lat="46.11183" lon="6.58989">
        <ele>715.84</ele>
        <time>2010-06-12T07:51:15Z</time>
      </trkpt>
      <trkpt lat="46.11187" lon="6.58995">
        <ele>716.8</ele>
        <time>2010-06-12T07:51:20Z</time>
      </trkpt>
      <trkpt lat="46.11188" lon="6.58996">
        <ele>716.8</ele>
        <time>2010-06-12T07:51:21Z</time>
      </trkpt>
      <trkpt lat="46.11189" lon="6.58998">
        <ele>717.28</ele>
        <time>2010-06-12T07:51:22Z</time>
      </trkpt>
      <trkpt lat="46.11198" lon="6.59006">
        <ele>718.24</ele>
        <time>2010-06-12T07:51:30Z</time>
      </trkpt>
      <trkpt lat="46.11199" lon="6.59006">
        <ele>719.2</ele>
        <time>2010-06-12T07:51:31Z</time>
      </trkpt>
      <trkpt lat="46.11211" lon="6.59013">
        <ele>721.13</ele>
        <time>2010-06-12T07:51:40Z</time>
      </trkpt>
      <trkpt lat="46.11212" lon="6.59012">
        <ele>721.13</ele>
        <time>2010-06-12T07:51:41Z</time>
      </trkpt>
      <trkpt lat="46.11214" lon="6.59011">
        <ele>721.61</ele>
        <time>2010-06-12T07:51:42Z</time>
      </trkpt>
      <trkpt lat="46.11221" lon="6.5901">
        <ele>722.57</ele>
        <time>2010-06-12T07:51:47Z</time>
      </trkpt>
      <trkpt lat="46.11227" lon="6.59006">
        <ele>724.01</ele>
        <time>2010-06-12T07:51:52Z</time>
      </trkpt>
      <trkpt lat="46.11231" lon="6.59008">
        <ele>725.93</ele>
        <time>2010-06-12T07:51:56Z</time>
      </trkpt>
      <trkpt lat="46.11234" lon="6.59009">
        <ele>725.93</ele>
        <time>2010-06-12T07:52:00Z</time>
      </trkpt>
      <trkpt lat="46.11236" lon="6.5901">
        <ele>725.93</ele>
        <time>2010-06-12T07:52:12Z</time>
      </trkpt>
      <trkpt lat="46.11236" lon="6.5901">
        <ele>725.93</ele>
        <time>2010-06-12T07:52:39Z</time>
      </trkpt>
      <trkpt lat="46.11236" lon="6.5901">
        <ele>725.93</ele>
        <time>2010-06-12T07:53:15Z</time>
      </trkpt>
      <trkpt lat="46.11236" lon="6.5901">
        <ele>725.93</ele>
        <time>2010-06-12T07:53:40Z</time>
      </trkpt>
      <trkpt lat="46.11236" lon="6.5901">
        <ele>726.41</ele>
        <time>2010-06-12T07:53:51Z</time>
      </trkpt>
      <trkpt lat="46.11236" lon="6.5901">
        <ele>725.93</ele>
        <time>2010-06-12T07:54:20Z</time>
      </trkpt>
      <trkpt lat="46.11236" lon="6.5901">
        <ele>726.41</ele>
        <time>2010-06-12T07:54:34Z</time>
      </trkpt>
      <trkpt lat="46.11236" lon="6.5901">
        <ele>726.41</ele>
        <time>2010-06-12T07:55:04Z</time>
      </trkpt>
      <trkpt lat="46.11239" lon="6.59016">
        <ele>726.89</ele>
        <time>2010-06-12T07:55:11Z</time>
      </trkpt>
      <trkpt lat="46.11241" lon="6.59017">
        <ele>726.89</ele>
        <time>2010-06-12T07:55:12Z</time>
      </trkpt>
      <trkpt lat="46.11241" lon="6.59018">
        <ele>727.37</ele>
        <time>2010-06-12T07:55:13Z</time>
      </trkpt>
      <trkpt lat="46.11242" lon="6.59018">
        <ele>727.37</ele>
        <time>2010-06-12T07:55:14Z</time>
      </trkpt>
      <trkpt lat="46.11243" lon="6.59019">
        <ele>727.86</ele>
        <time>2010-06-12T07:55:15Z</time>
      </trkpt>
      <trkpt lat="46.11244" lon="6.59019">
        <ele>728.34</ele>
        <time>2010-06-12T07:55:16Z</time>
      </trkpt>
      <trkpt lat="46.11245" lon="6.59021">
        <ele>728.34</ele>
        <time>2010-06-12T07:55:17Z</time>
      </trkpt>
      <trkpt lat="46.11256" lon="6.59024">
        <ele>731.7</ele>
        <time>2010-06-12T07:55:28Z</time>
      </trkpt>
      <trkpt lat="46.11263" lon="6.59025">
        <ele>733.62</ele>
        <time>2010-06-12T07:55:35Z</time>
      </trkpt>
      <trkpt lat="46.11272" lon="6.59016">
        <ele>736.03</ele>
        <time>2010-06-12T07:55:47Z</time>
      </trkpt>
      <trkpt lat="46.11273" lon="6.59015">
        <ele>736.51</ele>
        <time>2010-06-12T07:55:48Z</time>
      </trkpt>
      <trkpt lat="46.1128" lon="6.59013">
        <ele>738.43</ele>
        <time>2010-06-12T07:55:56Z</time>
      </trkpt>
      <trkpt lat="46.11284" lon="6.59015">
        <ele>739.87</ele>
        <time>2010-06-12T07:56:07Z</time>
      </trkpt>
      <trkpt lat="46.11292" lon="6.59024">
        <ele>742.28</ele>
        <time>2010-06-12T07:56:21Z</time>
      </trkpt>
      <trkpt lat="46.11298" lon="6.5903">
        <ele>744.2</ele>
        <time>2010-06-12T07:56:36Z</time>
      </trkpt>
      <trkpt lat="46.11308" lon="6.59037">
        <ele>746.12</ele>
        <time>2010-06-12T07:56:49Z</time>
      </trkpt>
      <trkpt lat="46.11309" lon="6.59038">
        <ele>746.12</ele>
        <time>2010-06-12T07:56:50Z</time>
      </trkpt>
      <trkpt lat="46.11319" lon="6.59052">
        <ele>748.52</ele>
        <time>2010-06-12T07:57:01Z</time>
      </trkpt>
      <trkpt lat="46.1132" lon="6.59054">
        <ele>748.52</ele>
        <time>2010-06-12T07:57:02Z</time>
      </trkpt>
      <trkpt lat="46.1132" lon="6.59055">
        <ele>748.52</ele>
        <time>2010-06-12T07:57:03Z</time>
      </trkpt>
      <trkpt lat="46.11321" lon="6.59057">
        <ele>749</ele>
        <time>2010-06-12T07:57:04Z</time>
      </trkpt>
      <trkpt lat="46.11322" lon="6.59058">
        <ele>748.52</ele>
        <time>2010-06-12T07:57:05Z</time>
      </trkpt>
      <trkpt lat="46.11323" lon="6.59059">
        <ele>749.49</ele>
        <time>2010-06-12T07:57:06Z</time>
      </trkpt>
      <trkpt lat="46.11324" lon="6.5906">
        <ele>749.49</ele>
        <time>2010-06-12T07:57:07Z</time>
      </trkpt>
      <trkpt lat="46.11327" lon="6.59063">
        <ele>750.45</ele>
        <time>2010-06-12T07:57:10Z</time>
      </trkpt>
      <trkpt lat="46.11328" lon="6.59063">
        <ele>750.45</ele>
        <time>2010-06-12T07:57:11Z</time>
      </trkpt>
      <trkpt lat="46.11329" lon="6.59063">
        <ele>750.45</ele>
        <time>2010-06-12T07:57:12Z</time>
      </trkpt>
      <trkpt lat="46.11337" lon="6.59061">
        <ele>752.37</ele>
        <time>2010-06-12T07:57:24Z</time>
      </trkpt>
      <trkpt lat="46.11343" lon="6.59058">
        <ele>754.29</ele>
        <time>2010-06-12T07:57:36Z</time>
      </trkpt>
      <trkpt lat="46.11351" lon="6.59051">
        <ele>756.21</ele>
        <time>2010-06-12T07:57:48Z</time>
      </trkpt>
      <trkpt lat="46.11356" lon="6.5905">
        <ele>758.14</ele>
        <time>2010-06-12T07:57:59Z</time>
      </trkpt>
      <trkpt lat="46.11362" lon="6.59045">
        <ele>760.06</ele>
        <time>2010-06-12T07:58:12Z</time>
      </trkpt>
      <trkpt lat="46.1137" lon="6.5904">
        <ele>762.46</ele>
        <time>2010-06-12T07:58:27Z</time>
      </trkpt>
      <trkpt lat="46.11378" lon="6.59033">
        <ele>765.35</ele>
        <time>2010-06-12T07:58:40Z</time>
      </trkpt>
      <trkpt lat="46.1139" lon="6.59031">
        <ele>767.75</ele>
        <time>2010-06-12T07:58:54Z</time>
      </trkpt>
      <trkpt lat="46.11395" lon="6.59029">
        <ele>769.19</ele>
        <time>2010-06-12T07:59:05Z</time>
      </trkpt>
      <trkpt lat="46.11397" lon="6.59028">
        <ele>770.63</ele>
        <time>2010-06-12T07:59:10Z</time>
      </trkpt>
      <trkpt lat="46.11404" lon="6.5902">
        <ele>772.08</ele>
        <time>2010-06-12T07:59:23Z</time>
      </trkpt>
      <trkpt lat="46.11409" lon="6.59016">
        <ele>774</ele>
        <time>2010-06-12T07:59:34Z</time>
      </trkpt>
      <trkpt lat="46.1141" lon="6.59014">
        <ele>773.52</ele>
        <time>2010-06-12T07:59:36Z</time>
      </trkpt>
      <trkpt lat="46.1141" lon="6.59012">
        <ele>773.52</ele>
        <time>2010-06-12T07:59:37Z</time>
      </trkpt>
      <trkpt lat="46.1141" lon="6.59007">
        <ele>774</ele>
        <time>2010-06-12T07:59:50Z</time>
      </trkpt>
      <trkpt lat="46.11408" lon="6.59001">
        <ele>774.48</ele>
        <time>2010-06-12T08:00:03Z</time>
      </trkpt>
      <trkpt lat="46.11403" lon="6.58994">
        <ele>774.48</ele>
        <time>2010-06-12T08:00:08Z</time>
      </trkpt>
      <trkpt lat="46.11401" lon="6.58977">
        <ele>776.4</ele>
        <time>2010-06-12T08:00:20Z</time>
      </trkpt>
      <trkpt lat="46.11401" lon="6.58969">
        <ele>776.88</ele>
        <time>2010-06-12T08:00:24Z</time>
      </trkpt>
      <trkpt lat="46.114" lon="6.58964">
        <ele>777.84</ele>
        <time>2010-06-12T08:00:27Z</time>
      </trkpt>
      <trkpt lat="46.11399" lon="6.58958">
        <ele>778.32</ele>
        <time>2010-06-12T08:00:30Z</time>
      </trkpt>
      <trkpt lat="46.11398" lon="6.58957">
        <ele>778.32</ele>
        <time>2010-06-12T08:00:31Z</time>
      </trkpt>
      <trkpt lat="46.11395" lon="6.58947">
        <ele>778.81</ele>
        <time>2010-06-12T08:00:36Z</time>
      </trkpt>
      <trkpt lat="46.1139" lon="6.5892">
        <ele>782.17</ele>
        <time>2010-06-12T08:00:51Z</time>
      </trkpt>
      <trkpt lat="46.11385" lon="6.58906">
        <ele>783.13</ele>
        <time>2010-06-12T08:00:59Z</time>
      </trkpt>
      <trkpt lat="46.11385" lon="6.58905">
        <ele>783.61</ele>
        <time>2010-06-12T08:01:00Z</time>
      </trkpt>
      <trkpt lat="46.11384" lon="6.58904">
        <ele>783.61</ele>
        <time>2010-06-12T08:01:01Z</time>
      </trkpt>
      <trkpt lat="46.11383" lon="6.58902">
        <ele>783.61</ele>
        <time>2010-06-12T08:01:02Z</time>
      </trkpt>
      <trkpt lat="46.11383" lon="6.589">
        <ele>783.61</ele>
        <time>2010-06-12T08:01:03Z</time>
      </trkpt>
      <trkpt lat="46.11382" lon="6.58899">
        <ele>783.61</ele>
        <time>2010-06-12T08:01:04Z</time>
      </trkpt>
      <trkpt lat="46.1138" lon="6.58897">
        <ele>783.61</ele>
        <time>2010-06-12T08:01:05Z</time>
      </trkpt>
      <trkpt lat="46.11366" lon="6.58873">
        <ele>784.57</ele>
        <time>2010-06-12T08:01:19Z</time>
      </trkpt>
      <trkpt lat="46.11362" lon="6.58865">
        <ele>785.53</ele>
        <time>2010-06-12T08:01:23Z</time>
      </trkpt>
      <trkpt lat="46.11361" lon="6.58863">
        <ele>785.05</ele>
        <time>2010-06-12T08:01:24Z</time>
      </trkpt>
      <trkpt lat="46.11361" lon="6.58861">
        <ele>785.53</ele>
        <time>2010-06-12T08:01:25Z</time>
      </trkpt>
      <trkpt lat="46.11361" lon="6.58858">
        <ele>785.53</ele>
        <time>2010-06-12T08:01:26Z</time>
      </trkpt>
      <trkpt lat="46.1136" lon="6.58855">
        <ele>785.53</ele>
        <time>2010-06-12T08:01:27Z</time>
      </trkpt>
      <trkpt lat="46.1136" lon="6.58853">
        <ele>786.02</ele>
        <time>2010-06-12T08:01:28Z</time>
      </trkpt>
      <trkpt lat="46.1136" lon="6.58851">
        <ele>786.02</ele>
        <time>2010-06-12T08:01:29Z</time>
      </trkpt>
      <trkpt lat="46.11361" lon="6.58849">
        <ele>786.02</ele>
        <time>2010-06-12T08:01:30Z</time>
      </trkpt>
      <trkpt lat="46.11362" lon="6.58847">
        <ele>786.5</ele>
        <time>2010-06-12T08:01:31Z</time>
      </trkpt>
      <trkpt lat="46.11362" lon="6.58845">
        <ele>786.02</ele>
        <time>2010-06-12T08:01:32Z</time>
      </trkpt>
      <trkpt lat="46.11363" lon="6.58843">
        <ele>786.5</ele>
        <time>2010-06-12T08:01:33Z</time>
      </trkpt>
      <trkpt lat="46.11363" lon="6.58841">
        <ele>786.5</ele>
        <time>2010-06-12T08:01:34Z</time>
      </trkpt>
      <trkpt lat="46.11363" lon="6.58838">
        <ele>786.02</ele>
        <time>2010-06-12T08:01:35Z</time>
      </trkpt>
      <trkpt lat="46.11363" lon="6.58835">
        <ele>786.02</ele>
        <time>2010-06-12T08:01:36Z</time>
      </trkpt>
      <trkpt lat="46.11341" lon="6.5878">
        <ele>785.05</ele>
        <time>2010-06-12T08:01:52Z</time>
      </trkpt>
      <trkpt lat="46.11325" lon="6.58717">
        <ele>784.09</ele>
        <time>2010-06-12T08:02:06Z</time>
      </trkpt>
      <trkpt lat="46.11328" lon="6.58645">
        <ele>783.13</ele>
        <time>2010-06-12T08:02:18Z</time>
      </trkpt>
      <trkpt lat="46.11329" lon="6.5864">
        <ele>782.65</ele>
        <time>2010-06-12T08:02:19Z</time>
      </trkpt>
      <trkpt lat="46.1133" lon="6.58635">
        <ele>783.13</ele>
        <time>2010-06-12T08:02:20Z</time>
      </trkpt>
      <trkpt lat="46.11335" lon="6.58615">
        <ele>785.53</ele>
        <time>2010-06-12T08:02:30Z</time>
      </trkpt>
      <trkpt lat="46.11335" lon="6.58612">
        <ele>786.02</ele>
        <time>2010-06-12T08:02:33Z</time>
      </trkpt>
      <trkpt lat="46.11334" lon="6.58603">
        <ele>785.53</ele>
        <time>2010-06-12T08:02:40Z</time>
      </trkpt>
      <trkpt lat="46.11347" lon="6.58571">
        <ele>786.5</ele>
        <time>2010-06-12T08:02:52Z</time>
      </trkpt>
      <trkpt lat="46.11352" lon="6.58516">
        <ele>784.09</ele>
        <time>2010-06-12T08:03:03Z</time>
      </trkpt>
      <trkpt lat="46.11348" lon="6.58478">
        <ele>781.69</ele>
        <time>2010-06-12T08:03:10Z</time>
      </trkpt>
      <trkpt lat="46.11336" lon="6.58422">
        <ele>780.25</ele>
        <time>2010-06-12T08:03:18Z</time>
      </trkpt>
      <trkpt lat="46.11335" lon="6.58414">
        <ele>779.77</ele>
        <time>2010-06-12T08:03:19Z</time>
      </trkpt>
      <trkpt lat="46.11334" lon="6.58406">
        <ele>779.77</ele>
        <time>2010-06-12T08:03:20Z</time>
      </trkpt>
      <trkpt lat="46.11335" lon="6.5835">
        <ele>776.88</ele>
        <time>2010-06-12T08:03:28Z</time>
      </trkpt>
      <trkpt lat="46.11334" lon="6.58343">
        <ele>776.4</ele>
        <time>2010-06-12T08:03:29Z</time>
      </trkpt>
      <trkpt lat="46.11332" lon="6.58335">
        <ele>775.92</ele>
        <time>2010-06-12T08:03:30Z</time>
      </trkpt>
      <trkpt lat="46.11329" lon="6.58326">
        <ele>775.44</ele>
        <time>2010-06-12T08:03:31Z</time>
      </trkpt>
      <trkpt lat="46.11327" lon="6.58315">
        <ele>774.96</ele>
        <time>2010-06-12T08:03:32Z</time>
      </trkpt>
      <trkpt lat="46.11327" lon="6.58304">
        <ele>774.48</ele>
        <time>2010-06-12T08:03:33Z</time>
      </trkpt>
      <trkpt lat="46.11328" lon="6.58276">
        <ele>774.48</ele>
        <time>2010-06-12T08:03:36Z</time>
      </trkpt>
      <trkpt lat="46.11337" lon="6.58224">
        <ele>774.96</ele>
        <time>2010-06-12T08:03:46Z</time>
      </trkpt>
      <trkpt lat="46.11344" lon="6.58165">
        <ele>775.44</ele>
        <time>2010-06-12T08:04:00Z</time>
      </trkpt>
      <trkpt lat="46.11355" lon="6.58125">
        <ele>774.96</ele>
        <time>2010-06-12T08:04:13Z</time>
      </trkpt>
      <trkpt lat="46.11356" lon="6.58121">
        <ele>774.48</ele>
        <time>2010-06-12T08:04:26Z</time>
      </trkpt>
      <trkpt lat="46.11357" lon="6.5812">
        <ele>775.44</ele>
        <time>2010-06-12T08:04:41Z</time>
      </trkpt>
      <trkpt lat="46.11357" lon="6.5812">
        <ele>774.96</ele>
        <time>2010-06-12T08:05:00Z</time>
      </trkpt>
      <trkpt lat="46.11358" lon="6.58121">
        <ele>774.96</ele>
        <time>2010-06-12T08:05:18Z</time>
      </trkpt>
      <trkpt lat="46.11358" lon="6.5812">
        <ele>774.96</ele>
        <time>2010-06-12T08:05:32Z</time>
      </trkpt>
      <trkpt lat="46.11359" lon="6.58116">
        <ele>775.44</ele>
        <time>2010-06-12T08:05:49Z</time>
      </trkpt>
      <trkpt lat="46.11359" lon="6.58114">
        <ele>774.48</ele>
        <time>2010-06-12T08:05:50Z</time>
      </trkpt>
      <trkpt lat="46.11359" lon="6.58111">
        <ele>775.44</ele>
        <time>2010-06-12T08:05:51Z</time>
      </trkpt>
      <trkpt lat="46.1136" lon="6.58109">
        <ele>775.44</ele>
        <time>2010-06-12T08:05:52Z</time>
      </trkpt>
      <trkpt lat="46.1136" lon="6.58106">
        <ele>774.96</ele>
        <time>2010-06-12T08:05:53Z</time>
      </trkpt>
      <trkpt lat="46.11361" lon="6.58103">
        <ele>774.96</ele>
        <time>2010-06-12T08:05:54Z</time>
      </trkpt>
      <trkpt lat="46.11361" lon="6.58036">
        <ele>774.96</ele>
        <time>2010-06-12T08:06:08Z</time>
      </trkpt>
      <trkpt lat="46.11372" lon="6.57963">
        <ele>776.4</ele>
        <time>2010-06-12T08:06:21Z</time>
      </trkpt>
      <trkpt lat="46.11389" lon="6.57905">
        <ele>777.36</ele>
        <time>2010-06-12T08:06:33Z</time>
      </trkpt>
      <trkpt lat="46.11391" lon="6.579">
        <ele>777.36</ele>
        <time>2010-06-12T08:06:34Z</time>
      </trkpt>
      <trkpt lat="46.11392" lon="6.57894">
        <ele>776.88</ele>
        <time>2010-06-12T08:06:35Z</time>
      </trkpt>
      <trkpt lat="46.11394" lon="6.57886">
        <ele>775.92</ele>
        <time>2010-06-12T08:06:36Z</time>
      </trkpt>
      <trkpt lat="46.11395" lon="6.57879">
        <ele>774.96</ele>
        <time>2010-06-12T08:06:37Z</time>
      </trkpt>
      <trkpt lat="46.11396" lon="6.5787">
        <ele>774.96</ele>
        <time>2010-06-12T08:06:38Z</time>
      </trkpt>
      <trkpt lat="46.11403" lon="6.57831">
        <ele>771.6</ele>
        <time>2010-06-12T08:06:42Z</time>
      </trkpt>
      <trkpt lat="46.11406" lon="6.57808">
        <ele>770.63</ele>
        <time>2010-06-12T08:06:44Z</time>
      </trkpt>
      <trkpt lat="46.11414" lon="6.57771">
        <ele>769.19</ele>
        <time>2010-06-12T08:06:47Z</time>
      </trkpt>
      <trkpt lat="46.11417" lon="6.5776">
        <ele>768.71</ele>
        <time>2010-06-12T08:06:48Z</time>
      </trkpt>
      <trkpt lat="46.11422" lon="6.57749">
        <ele>768.23</ele>
        <time>2010-06-12T08:06:49Z</time>
      </trkpt>
      <trkpt lat="46.11426" lon="6.57738">
        <ele>767.75</ele>
        <time>2010-06-12T08:06:50Z</time>
      </trkpt>
      <trkpt lat="46.11441" lon="6.57697">
        <ele>767.27</ele>
        <time>2010-06-12T08:06:54Z</time>
      </trkpt>
      <trkpt lat="46.11443" lon="6.57686">
        <ele>767.27</ele>
        <time>2010-06-12T08:06:55Z</time>
      </trkpt>
      <trkpt lat="46.11444" lon="6.57676">
        <ele>767.27</ele>
        <time>2010-06-12T08:06:56Z</time>
      </trkpt>
      <trkpt lat="46.11444" lon="6.57667">
        <ele>767.75</ele>
        <time>2010-06-12T08:06:57Z</time>
      </trkpt>
      <trkpt lat="46.11444" lon="6.57658">
        <ele>766.79</ele>
        <time>2010-06-12T08:06:58Z</time>
      </trkpt>
      <trkpt lat="46.11442" lon="6.57626">
        <ele>764.87</ele>
        <time>2010-06-12T08:07:01Z</time>
      </trkpt>
      <trkpt lat="46.1144" lon="6.57617">
        <ele>764.39</ele>
        <time>2010-06-12T08:07:02Z</time>
      </trkpt>
      <trkpt lat="46.11436" lon="6.57575">
        <ele>762.94</ele>
        <time>2010-06-12T08:07:09Z</time>
      </trkpt>
      <trkpt lat="46.11439" lon="6.57548">
        <ele>762.46</ele>
        <time>2010-06-12T08:07:14Z</time>
      </trkpt>
      <trkpt lat="46.11442" lon="6.57543">
        <ele>762.46</ele>
        <time>2010-06-12T08:07:15Z</time>
      </trkpt>
      <trkpt lat="46.11444" lon="6.57538">
        <ele>762.46</ele>
        <time>2010-06-12T08:07:16Z</time>
      </trkpt>
      <trkpt lat="46.1146" lon="6.57509">
        <ele>759.58</ele>
        <time>2010-06-12T08:07:22Z</time>
      </trkpt>
      <trkpt lat="46.11464" lon="6.57504">
        <ele>758.14</ele>
        <time>2010-06-12T08:07:23Z</time>
      </trkpt>
      <trkpt lat="46.11468" lon="6.57499">
        <ele>757.18</ele>
        <time>2010-06-12T08:07:24Z</time>
      </trkpt>
      <trkpt lat="46.11483" lon="6.57477">
        <ele>755.25</ele>
        <time>2010-06-12T08:07:27Z</time>
      </trkpt>
      <trkpt lat="46.11521" lon="6.57428">
        <ele>754.77</ele>
        <time>2010-06-12T08:07:34Z</time>
      </trkpt>
      <trkpt lat="46.11529" lon="6.57415">
        <ele>754.77</ele>
        <time>2010-06-12T08:07:36Z</time>
      </trkpt>
      <trkpt lat="46.11531" lon="6.57409">
        <ele>755.25</ele>
        <time>2010-06-12T08:07:37Z</time>
      </trkpt>
      <trkpt lat="46.11538" lon="6.57354">
        <ele>755.25</ele>
        <time>2010-06-12T08:07:47Z</time>
      </trkpt>
      <trkpt lat="46.11535" lon="6.57297">
        <ele>755.73</ele>
        <time>2010-06-12T08:07:57Z</time>
      </trkpt>
      <trkpt lat="46.11534" lon="6.57283">
        <ele>754.29</ele>
        <time>2010-06-12T08:08:00Z</time>
      </trkpt>
      <trkpt lat="46.11536" lon="6.57276">
        <ele>754.29</ele>
        <time>2010-06-12T08:08:01Z</time>
      </trkpt>
      <trkpt lat="46.11539" lon="6.57269">
        <ele>754.29</ele>
        <time>2010-06-12T08:08:02Z</time>
      </trkpt>
      <trkpt lat="46.11545" lon="6.57259">
        <ele>754.29</ele>
        <time>2010-06-12T08:08:04Z</time>
      </trkpt>
      <trkpt lat="46.11548" lon="6.57253">
        <ele>753.33</ele>
        <time>2010-06-12T08:08:05Z</time>
      </trkpt>
      <trkpt lat="46.1155" lon="6.57247">
        <ele>752.85</ele>
        <time>2010-06-12T08:08:06Z</time>
      </trkpt>
      <trkpt lat="46.11552" lon="6.57241">
        <ele>752.37</ele>
        <time>2010-06-12T08:08:07Z</time>
      </trkpt>
      <trkpt lat="46.11562" lon="6.57213">
        <ele>751.41</ele>
        <time>2010-06-12T08:08:11Z</time>
      </trkpt>
      <trkpt lat="46.11567" lon="6.57196">
        <ele>753.81</ele>
        <time>2010-06-12T08:08:14Z</time>
      </trkpt>
      <trkpt lat="46.11567" lon="6.57193">
        <ele>753.81</ele>
        <time>2010-06-12T08:08:15Z</time>
      </trkpt>
      <trkpt lat="46.11568" lon="6.57191">
        <ele>754.29</ele>
        <time>2010-06-12T08:08:16Z</time>
      </trkpt>
      <trkpt lat="46.11569" lon="6.57187">
        <ele>754.29</ele>
        <time>2010-06-12T08:08:17Z</time>
      </trkpt>
      <trkpt lat="46.11576" lon="6.57152">
        <ele>755.25</ele>
        <time>2010-06-12T08:08:27Z</time>
      </trkpt>
      <trkpt lat="46.11593" lon="6.57109">
        <ele>755.25</ele>
        <time>2010-06-12T08:08:37Z</time>
      </trkpt>
      <trkpt lat="46.11597" lon="6.57105">
        <ele>755.25</ele>
        <time>2010-06-12T08:08:39Z</time>
      </trkpt>
      <trkpt lat="46.11599" lon="6.57101">
        <ele>755.73</ele>
        <time>2010-06-12T08:08:40Z</time>
      </trkpt>
      <trkpt lat="46.11611" lon="6.57072">
        <ele>758.62</ele>
        <time>2010-06-12T08:08:53Z</time>
      </trkpt>
      <trkpt lat="46.11625" lon="6.5705">
        <ele>761.02</ele>
        <time>2010-06-12T08:09:04Z</time>
      </trkpt>
      <trkpt lat="46.11626" lon="6.57048">
        <ele>761.5</ele>
        <time>2010-06-12T08:09:05Z</time>
      </trkpt>
      <trkpt lat="46.11627" lon="6.57047">
        <ele>761.5</ele>
        <time>2010-06-12T08:09:06Z</time>
      </trkpt>
      <trkpt lat="46.11629" lon="6.57046">
        <ele>761.5</ele>
        <time>2010-06-12T08:09:07Z</time>
      </trkpt>
      <trkpt lat="46.11631" lon="6.57044">
        <ele>761.98</ele>
        <time>2010-06-12T08:09:08Z</time>
      </trkpt>
      <trkpt lat="46.11632" lon="6.57042">
        <ele>762.46</ele>
        <time>2010-06-12T08:09:09Z</time>
      </trkpt>
      <trkpt lat="46.11633" lon="6.5704">
        <ele>762.46</ele>
        <time>2010-06-12T08:09:10Z</time>
      </trkpt>
      <trkpt lat="46.11638" lon="6.57032">
        <ele>763.42</ele>
        <time>2010-06-12T08:09:14Z</time>
      </trkpt>
      <trkpt lat="46.11652" lon="6.57013">
        <ele>766.79</ele>
        <time>2010-06-12T08:09:25Z</time>
      </trkpt>
      <trkpt lat="46.11654" lon="6.57011">
        <ele>766.79</ele>
        <time>2010-06-12T08:09:26Z</time>
      </trkpt>
      <trkpt lat="46.11655" lon="6.57009">
        <ele>767.27</ele>
        <time>2010-06-12T08:09:27Z</time>
      </trkpt>
      <trkpt lat="46.11656" lon="6.57008">
        <ele>767.27</ele>
        <time>2010-06-12T08:09:28Z</time>
      </trkpt>
      <trkpt lat="46.11659" lon="6.57005">
        <ele>767.75</ele>
        <time>2010-06-12T08:09:30Z</time>
      </trkpt>
      <trkpt lat="46.1166" lon="6.57004">
        <ele>768.23</ele>
        <time>2010-06-12T08:09:31Z</time>
      </trkpt>
      <trkpt lat="46.11664" lon="6.57002">
        <ele>769.19</ele>
        <time>2010-06-12T08:09:34Z</time>
      </trkpt>
      <trkpt lat="46.11665" lon="6.57001">
        <ele>769.19</ele>
        <time>2010-06-12T08:09:35Z</time>
      </trkpt>
      <trkpt lat="46.11667" lon="6.57">
        <ele>768.71</ele>
        <time>2010-06-12T08:09:36Z</time>
      </trkpt>
      <trkpt lat="46.11669" lon="6.56998">
        <ele>769.19</ele>
        <time>2010-06-12T08:09:37Z</time>
      </trkpt>
      <trkpt lat="46.11681" lon="6.56987">
        <ele>772.08</ele>
        <time>2010-06-12T08:09:48Z</time>
      </trkpt>
      <trkpt lat="46.11685" lon="6.56986">
        <ele>773.04</ele>
        <time>2010-06-12T08:09:52Z</time>
      </trkpt>
      <trkpt lat="46.11698" lon="6.56973">
        <ele>775.92</ele>
        <time>2010-06-12T08:10:04Z</time>
      </trkpt>
      <trkpt lat="46.11699" lon="6.56973">
        <ele>775.44</ele>
        <time>2010-06-12T08:10:05Z</time>
      </trkpt>
      <trkpt lat="46.11706" lon="6.56964">
        <ele>776.88</ele>
        <time>2010-06-12T08:10:12Z</time>
      </trkpt>
      <trkpt lat="46.11707" lon="6.56963">
        <ele>777.36</ele>
        <time>2010-06-12T08:10:13Z</time>
      </trkpt>
      <trkpt lat="46.11708" lon="6.56961">
        <ele>776.88</ele>
        <time>2010-06-12T08:10:14Z</time>
      </trkpt>
      <trkpt lat="46.11715" lon="6.56953">
        <ele>777.84</ele>
        <time>2010-06-12T08:10:20Z</time>
      </trkpt>
      <trkpt lat="46.11731" lon="6.56936">
        <ele>778.81</ele>
        <time>2010-06-12T08:10:32Z</time>
      </trkpt>
      <trkpt lat="46.11732" lon="6.56934">
        <ele>778.32</ele>
        <time>2010-06-12T08:10:33Z</time>
      </trkpt>
      <trkpt lat="46.11733" lon="6.56931">
        <ele>778.32</ele>
        <time>2010-06-12T08:10:34Z</time>
      </trkpt>
      <trkpt lat="46.11737" lon="6.56923">
        <ele>779.29</ele>
        <time>2010-06-12T08:10:39Z</time>
      </trkpt>
      <trkpt lat="46.11739" lon="6.56922">
        <ele>779.29</ele>
        <time>2010-06-12T08:10:40Z</time>
      </trkpt>
      <trkpt lat="46.1174" lon="6.5692">
        <ele>779.77</ele>
        <time>2010-06-12T08:10:41Z</time>
      </trkpt>
      <trkpt lat="46.11742" lon="6.56919">
        <ele>779.29</ele>
        <time>2010-06-12T08:10:42Z</time>
      </trkpt>
      <trkpt lat="46.11743" lon="6.56917">
        <ele>779.29</ele>
        <time>2010-06-12T08:10:43Z</time>
      </trkpt>
      <trkpt lat="46.11744" lon="6.56915">
        <ele>779.77</ele>
        <time>2010-06-12T08:10:44Z</time>
      </trkpt>
      <trkpt lat="46.11759" lon="6.56893">
        <ele>781.21</ele>
        <time>2010-06-12T08:10:56Z</time>
      </trkpt>
      <trkpt lat="46.11769" lon="6.56871">
        <ele>783.61</ele>
        <time>2010-06-12T08:11:07Z</time>
      </trkpt>
      <trkpt lat="46.11779" lon="6.56858">
        <ele>784.09</ele>
        <time>2010-06-12T08:11:15Z</time>
      </trkpt>
      <trkpt lat="46.11782" lon="6.56854">
        <ele>784.57</ele>
        <time>2010-06-12T08:11:18Z</time>
      </trkpt>
      <trkpt lat="46.11783" lon="6.56852">
        <ele>784.09</ele>
        <time>2010-06-12T08:11:19Z</time>
      </trkpt>
      <trkpt lat="46.11785" lon="6.56849">
        <ele>784.57</ele>
        <time>2010-06-12T08:11:21Z</time>
      </trkpt>
      <trkpt lat="46.11786" lon="6.56847">
        <ele>784.57</ele>
        <time>2010-06-12T08:11:22Z</time>
      </trkpt>
      <trkpt lat="46.11787" lon="6.56846">
        <ele>784.57</ele>
        <time>2010-06-12T08:11:23Z</time>
      </trkpt>
      <trkpt lat="46.11789" lon="6.56843">
        <ele>784.57</ele>
        <time>2010-06-12T08:11:24Z</time>
      </trkpt>
      <trkpt lat="46.1179" lon="6.56841">
        <ele>785.05</ele>
        <time>2010-06-12T08:11:25Z</time>
      </trkpt>
      <trkpt lat="46.11807" lon="6.56818">
        <ele>786.02</ele>
        <time>2010-06-12T08:11:37Z</time>
      </trkpt>
      <trkpt lat="46.1181" lon="6.56813">
        <ele>785.53</ele>
        <time>2010-06-12T08:11:40Z</time>
      </trkpt>
      <trkpt lat="46.11811" lon="6.56813">
        <ele>786.02</ele>
        <time>2010-06-12T08:11:41Z</time>
      </trkpt>
      <trkpt lat="46.11813" lon="6.56809">
        <ele>785.53</ele>
        <time>2010-06-12T08:11:43Z</time>
      </trkpt>
      <trkpt lat="46.11814" lon="6.56807">
        <ele>785.53</ele>
        <time>2010-06-12T08:11:44Z</time>
      </trkpt>
      <trkpt lat="46.11835" lon="6.56769">
        <ele>783.13</ele>
        <time>2010-06-12T08:11:53Z</time>
      </trkpt>
      <trkpt lat="46.11839" lon="6.56765">
        <ele>783.61</ele>
        <time>2010-06-12T08:11:54Z</time>
      </trkpt>
      <trkpt lat="46.11872" lon="6.56742">
        <ele>784.57</ele>
        <time>2010-06-12T08:12:05Z</time>
      </trkpt>
      <trkpt lat="46.11901" lon="6.56704">
        <ele>783.61</ele>
        <time>2010-06-12T08:12:19Z</time>
      </trkpt>
      <trkpt lat="46.11903" lon="6.56692">
        <ele>782.65</ele>
        <time>2010-06-12T08:12:21Z</time>
      </trkpt>
      <trkpt lat="46.11905" lon="6.56685">
        <ele>781.21</ele>
        <time>2010-06-12T08:12:22Z</time>
      </trkpt>
      <trkpt lat="46.11907" lon="6.56677">
        <ele>781.21</ele>
        <time>2010-06-12T08:12:23Z</time>
      </trkpt>
      <trkpt lat="46.11908" lon="6.5667">
        <ele>781.21</ele>
        <time>2010-06-12T08:12:24Z</time>
      </trkpt>
      <trkpt lat="46.11908" lon="6.56663">
        <ele>779.77</ele>
        <time>2010-06-12T08:12:25Z</time>
      </trkpt>
      <trkpt lat="46.11907" lon="6.56656">
        <ele>778.81</ele>
        <time>2010-06-12T08:12:26Z</time>
      </trkpt>
      <trkpt lat="46.11906" lon="6.56639">
        <ele>777.36</ele>
        <time>2010-06-12T08:12:28Z</time>
      </trkpt>
      <trkpt lat="46.11905" lon="6.56604">
        <ele>774</ele>
        <time>2010-06-12T08:12:32Z</time>
      </trkpt>
      <trkpt lat="46.11903" lon="6.56594">
        <ele>774</ele>
        <time>2010-06-12T08:12:33Z</time>
      </trkpt>
      <trkpt lat="46.11909" lon="6.56538">
        <ele>771.6</ele>
        <time>2010-06-12T08:12:42Z</time>
      </trkpt>
      <trkpt lat="46.11913" lon="6.5651">
        <ele>770.63</ele>
        <time>2010-06-12T08:12:48Z</time>
      </trkpt>
      <trkpt lat="46.11913" lon="6.56504">
        <ele>770.63</ele>
        <time>2010-06-12T08:12:49Z</time>
      </trkpt>
      <trkpt lat="46.11913" lon="6.56499">
        <ele>770.63</ele>
        <time>2010-06-12T08:12:50Z</time>
      </trkpt>
      <trkpt lat="46.11913" lon="6.56495">
        <ele>771.11</ele>
        <time>2010-06-12T08:12:51Z</time>
      </trkpt>
      <trkpt lat="46.11913" lon="6.56492">
        <ele>770.63</ele>
        <time>2010-06-12T08:12:52Z</time>
      </trkpt>
      <trkpt lat="46.11912" lon="6.56488">
        <ele>770.63</ele>
        <time>2010-06-12T08:12:53Z</time>
      </trkpt>
      <trkpt lat="46.11911" lon="6.56477">
        <ele>770.63</ele>
        <time>2010-06-12T08:12:57Z</time>
      </trkpt>
      <trkpt lat="46.11912" lon="6.56473">
        <ele>769.19</ele>
        <time>2010-06-12T08:12:58Z</time>
      </trkpt>
      <trkpt lat="46.11913" lon="6.56467">
        <ele>767.75</ele>
        <time>2010-06-12T08:12:59Z</time>
      </trkpt>
      <trkpt lat="46.11914" lon="6.56454">
        <ele>766.79</ele>
        <time>2010-06-12T08:13:01Z</time>
      </trkpt>
      <trkpt lat="46.11914" lon="6.56446">
        <ele>766.31</ele>
        <time>2010-06-12T08:13:02Z</time>
      </trkpt>
      <trkpt lat="46.11915" lon="6.56439">
        <ele>765.83</ele>
        <time>2010-06-12T08:13:03Z</time>
      </trkpt>
      <trkpt lat="46.11916" lon="6.56432">
        <ele>764.39</ele>
        <time>2010-06-12T08:13:04Z</time>
      </trkpt>
      <trkpt lat="46.11917" lon="6.56423">
        <ele>763.42</ele>
        <time>2010-06-12T08:13:05Z</time>
      </trkpt>
      <trkpt lat="46.11919" lon="6.56415">
        <ele>762.94</ele>
        <time>2010-06-12T08:13:06Z</time>
      </trkpt>
      <trkpt lat="46.1192" lon="6.56409">
        <ele>763.42</ele>
        <time>2010-06-12T08:13:07Z</time>
      </trkpt>
      <trkpt lat="46.11921" lon="6.56404">
        <ele>762.94</ele>
        <time>2010-06-12T08:13:08Z</time>
      </trkpt>
      <trkpt lat="46.11921" lon="6.56399">
        <ele>762.46</ele>
        <time>2010-06-12T08:13:09Z</time>
      </trkpt>
      <trkpt lat="46.11921" lon="6.56394">
        <ele>761.98</ele>
        <time>2010-06-12T08:13:10Z</time>
      </trkpt>
      <trkpt lat="46.11922" lon="6.56387">
        <ele>761.5</ele>
        <time>2010-06-12T08:13:11Z</time>
      </trkpt>
      <trkpt lat="46.11923" lon="6.56382">
        <ele>761.02</ele>
        <time>2010-06-12T08:13:12Z</time>
      </trkpt>
      <trkpt lat="46.11921" lon="6.56376">
        <ele>759.58</ele>
        <time>2010-06-12T08:13:13Z</time>
      </trkpt>
      <trkpt lat="46.11918" lon="6.56371">
        <ele>758.14</ele>
        <time>2010-06-12T08:13:14Z</time>
      </trkpt>
      <trkpt lat="46.11917" lon="6.56367">
        <ele>758.14</ele>
        <time>2010-06-12T08:13:15Z</time>
      </trkpt>
      <trkpt lat="46.11916" lon="6.56362">
        <ele>756.69</ele>
        <time>2010-06-12T08:13:16Z</time>
      </trkpt>
      <trkpt lat="46.11915" lon="6.56355">
        <ele>755.25</ele>
        <time>2010-06-12T08:13:17Z</time>
      </trkpt>
      <trkpt lat="46.11916" lon="6.5635">
        <ele>755.25</ele>
        <time>2010-06-12T08:13:18Z</time>
      </trkpt>
      <trkpt lat="46.11918" lon="6.56345">
        <ele>755.25</ele>
        <time>2010-06-12T08:13:19Z</time>
      </trkpt>
      <trkpt lat="46.11936" lon="6.56309">
        <ele>756.21</ele>
        <time>2010-06-12T08:13:29Z</time>
      </trkpt>
      <trkpt lat="46.11953" lon="6.56281">
        <ele>756.21</ele>
        <time>2010-06-12T08:13:42Z</time>
      </trkpt>
      <trkpt lat="46.11972" lon="6.5626">
        <ele>756.69</ele>
        <time>2010-06-12T08:13:53Z</time>
      </trkpt>
      <trkpt lat="46.11985" lon="6.5625">
        <ele>758.14</ele>
        <time>2010-06-12T08:14:00Z</time>
      </trkpt>
      <trkpt lat="46.11991" lon="6.56245">
        <ele>759.1</ele>
        <time>2010-06-12T08:14:06Z</time>
      </trkpt>
      <trkpt lat="46.12006" lon="6.56222">
        <ele>757.66</ele>
        <time>2010-06-12T08:14:14Z</time>
      </trkpt>
      <trkpt lat="46.1201" lon="6.56198">
        <ele>754.29</ele>
        <time>2010-06-12T08:14:18Z</time>
      </trkpt>
      <trkpt lat="46.12009" lon="6.56183">
        <ele>752.85</ele>
        <time>2010-06-12T08:14:20Z</time>
      </trkpt>
      <trkpt lat="46.1201" lon="6.56176">
        <ele>752.37</ele>
        <time>2010-06-12T08:14:21Z</time>
      </trkpt>
      <trkpt lat="46.12011" lon="6.56167">
        <ele>751.89</ele>
        <time>2010-06-12T08:14:22Z</time>
      </trkpt>
      <trkpt lat="46.12013" lon="6.56159">
        <ele>750.93</ele>
        <time>2010-06-12T08:14:23Z</time>
      </trkpt>
      <trkpt lat="46.12023" lon="6.56119">
        <ele>750.93</ele>
        <time>2010-06-12T08:14:28Z</time>
      </trkpt>
      <trkpt lat="46.1203" lon="6.5607">
        <ele>750.45</ele>
        <time>2010-06-12T08:14:37Z</time>
      </trkpt>
      <trkpt lat="46.12048" lon="6.56031">
        <ele>751.41</ele>
        <time>2010-06-12T08:14:48Z</time>
      </trkpt>
      <trkpt lat="46.12055" lon="6.56019">
        <ele>751.89</ele>
        <time>2010-06-12T08:14:52Z</time>
      </trkpt>
      <trkpt lat="46.12057" lon="6.56017">
        <ele>751.89</ele>
        <time>2010-06-12T08:14:53Z</time>
      </trkpt>
      <trkpt lat="46.12059" lon="6.56016">
        <ele>751.89</ele>
        <time>2010-06-12T08:14:54Z</time>
      </trkpt>
      <trkpt lat="46.12073" lon="6.56011">
        <ele>752.85</ele>
        <time>2010-06-12T08:15:00Z</time>
      </trkpt>
      <trkpt lat="46.121" lon="6.55991">
        <ele>753.33</ele>
        <time>2010-06-12T08:15:11Z</time>
      </trkpt>
      <trkpt lat="46.12114" lon="6.55979">
        <ele>754.77</ele>
        <time>2010-06-12T08:15:17Z</time>
      </trkpt>
      <trkpt lat="46.12116" lon="6.55975">
        <ele>755.25</ele>
        <time>2010-06-12T08:15:18Z</time>
      </trkpt>
      <trkpt lat="46.12117" lon="6.55971">
        <ele>755.25</ele>
        <time>2010-06-12T08:15:19Z</time>
      </trkpt>
      <trkpt lat="46.12119" lon="6.55968">
        <ele>755.25</ele>
        <time>2010-06-12T08:15:20Z</time>
      </trkpt>
      <trkpt lat="46.1212" lon="6.55964">
        <ele>755.25</ele>
        <time>2010-06-12T08:15:21Z</time>
      </trkpt>
      <trkpt lat="46.12126" lon="6.55927">
        <ele>754.29</ele>
        <time>2010-06-12T08:15:31Z</time>
      </trkpt>
      <trkpt lat="46.12124" lon="6.55877">
        <ele>751.89</ele>
        <time>2010-06-12T08:15:39Z</time>
      </trkpt>
      <trkpt lat="46.12125" lon="6.55866">
        <ele>751.41</ele>
        <time>2010-06-12T08:15:43Z</time>
      </trkpt>
      <trkpt lat="46.12125" lon="6.55864">
        <ele>751.89</ele>
        <time>2010-06-12T08:15:44Z</time>
      </trkpt>
      <trkpt lat="46.12126" lon="6.55861">
        <ele>751.41</ele>
        <time>2010-06-12T08:15:45Z</time>
      </trkpt>
      <trkpt lat="46.12131" lon="6.55821">
        <ele>750.45</ele>
        <time>2010-06-12T08:15:55Z</time>
      </trkpt>
      <trkpt lat="46.12131" lon="6.55817">
        <ele>750.93</ele>
        <time>2010-06-12T08:16:14Z</time>
      </trkpt>
      <trkpt lat="46.12129" lon="6.55816">
        <ele>749</ele>
        <time>2010-06-12T08:16:40Z</time>
      </trkpt>
      <trkpt lat="46.12127" lon="6.55815">
        <ele>748.04</ele>
        <time>2010-06-12T08:16:41Z</time>
      </trkpt>
      <trkpt lat="46.12125" lon="6.55814">
        <ele>746.6</ele>
        <time>2010-06-12T08:16:42Z</time>
      </trkpt>
      <trkpt lat="46.12122" lon="6.55814">
        <ele>746.12</ele>
        <time>2010-06-12T08:16:43Z</time>
      </trkpt>
      <trkpt lat="46.1212" lon="6.55812">
        <ele>745.64</ele>
        <time>2010-06-12T08:16:44Z</time>
      </trkpt>
      <trkpt lat="46.12115" lon="6.55808">
        <ele>744.68</ele>
        <time>2010-06-12T08:16:46Z</time>
      </trkpt>
      <trkpt lat="46.12104" lon="6.55795">
        <ele>741.31</ele>
        <time>2010-06-12T08:16:51Z</time>
      </trkpt>
      <trkpt lat="46.12091" lon="6.55782">
        <ele>737.95</ele>
        <time>2010-06-12T08:16:56Z</time>
      </trkpt>
      <trkpt lat="46.1208" lon="6.55769">
        <ele>734.58</ele>
        <time>2010-06-12T08:17:00Z</time>
      </trkpt>
      <trkpt lat="46.12063" lon="6.55755">
        <ele>731.22</ele>
        <time>2010-06-12T08:17:05Z</time>
      </trkpt>
      <trkpt lat="46.12043" lon="6.55728">
        <ele>728.34</ele>
        <time>2010-06-12T08:17:11Z</time>
      </trkpt>
      <trkpt lat="46.12039" lon="6.55725">
        <ele>728.34</ele>
        <time>2010-06-12T08:17:12Z</time>
      </trkpt>
      <trkpt lat="46.12036" lon="6.55724">
        <ele>727.86</ele>
        <time>2010-06-12T08:17:13Z</time>
      </trkpt>
      <trkpt lat="46.12033" lon="6.55722">
        <ele>727.86</ele>
        <time>2010-06-12T08:17:14Z</time>
      </trkpt>
      <trkpt lat="46.12032" lon="6.5572">
        <ele>728.34</ele>
        <time>2010-06-12T08:17:15Z</time>
      </trkpt>
      <trkpt lat="46.1203" lon="6.55717">
        <ele>728.34</ele>
        <time>2010-06-12T08:17:30Z</time>
      </trkpt>
      <trkpt lat="46.1203" lon="6.55716">
        <ele>728.34</ele>
        <time>2010-06-12T08:17:37Z</time>
      </trkpt>
      <trkpt lat="46.12032" lon="6.55711">
        <ele>727.86</ele>
        <time>2010-06-12T08:17:41Z</time>
      </trkpt>
      <trkpt lat="46.12046" lon="6.55691">
        <ele>728.34</ele>
        <time>2010-06-12T08:17:54Z</time>
      </trkpt>
      <trkpt lat="46.12059" lon="6.5567">
        <ele>729.3</ele>
        <time>2010-06-12T08:18:06Z</time>
      </trkpt>
      <trkpt lat="46.1206" lon="6.55666">
        <ele>729.78</ele>
        <time>2010-06-12T08:18:08Z</time>
      </trkpt>
      <trkpt lat="46.12066" lon="6.55656">
        <ele>729.78</ele>
        <time>2010-06-12T08:18:11Z</time>
      </trkpt>
      <trkpt lat="46.12089" lon="6.55625">
        <ele>730.74</ele>
        <time>2010-06-12T08:18:27Z</time>
      </trkpt>
      <trkpt lat="46.121" lon="6.55609">
        <ele>731.7</ele>
        <time>2010-06-12T08:18:32Z</time>
      </trkpt>
      <trkpt lat="46.12103" lon="6.55599">
        <ele>731.7</ele>
        <time>2010-06-12T08:18:35Z</time>
      </trkpt>
      <trkpt lat="46.12105" lon="6.55586">
        <ele>732.18</ele>
        <time>2010-06-12T08:18:39Z</time>
      </trkpt>
      <trkpt lat="46.12108" lon="6.5557">
        <ele>732.66</ele>
        <time>2010-06-12T08:18:44Z</time>
      </trkpt>
      <trkpt lat="46.12109" lon="6.55557">
        <ele>732.18</ele>
        <time>2010-06-12T08:18:48Z</time>
      </trkpt>
      <trkpt lat="46.12105" lon="6.55517">
        <ele>730.74</ele>
        <time>2010-06-12T08:19:00Z</time>
      </trkpt>
      <trkpt lat="46.12106" lon="6.55494">
        <ele>727.37</ele>
        <time>2010-06-12T08:19:06Z</time>
      </trkpt>
      <trkpt lat="46.12107" lon="6.55477">
        <ele>726.89</ele>
        <time>2010-06-12T08:19:09Z</time>
      </trkpt>
      <trkpt lat="46.12113" lon="6.55446">
        <ele>724.01</ele>
        <time>2010-06-12T08:19:14Z</time>
      </trkpt>
      <trkpt lat="46.12124" lon="6.55405">
        <ele>720.65</ele>
        <time>2010-06-12T08:19:21Z</time>
      </trkpt>
      <trkpt lat="46.12128" lon="6.55387">
        <ele>719.2</ele>
        <time>2010-06-12T08:19:24Z</time>
      </trkpt>
      <trkpt lat="46.12133" lon="6.55366">
        <ele>715.84</ele>
        <time>2010-06-12T08:19:28Z</time>
      </trkpt>
      <trkpt lat="46.12138" lon="6.55341">
        <ele>713.92</ele>
        <time>2010-06-12T08:19:35Z</time>
      </trkpt>
      <trkpt lat="46.12132" lon="6.55328">
        <ele>711.03</ele>
        <time>2010-06-12T08:19:41Z</time>
      </trkpt>
      <trkpt lat="46.12131" lon="6.55323">
        <ele>710.07</ele>
        <time>2010-06-12T08:19:43Z</time>
      </trkpt>
      <trkpt lat="46.12125" lon="6.55315">
        <ele>707.19</ele>
        <time>2010-06-12T08:19:46Z</time>
      </trkpt>
      <trkpt lat="46.12117" lon="6.55302">
        <ele>705.75</ele>
        <time>2010-06-12T08:19:49Z</time>
      </trkpt>
      <trkpt lat="46.12113" lon="6.55292">
        <ele>703.34</ele>
        <time>2010-06-12T08:19:52Z</time>
      </trkpt>
      <trkpt lat="46.12109" lon="6.55285">
        <ele>702.86</ele>
        <time>2010-06-12T08:19:54Z</time>
      </trkpt>
      <trkpt lat="46.12097" lon="6.55274">
        <ele>700.46</ele>
        <time>2010-06-12T08:19:58Z</time>
      </trkpt>
      <trkpt lat="46.12091" lon="6.5527">
        <ele>699.02</ele>
        <time>2010-06-12T08:20:01Z</time>
      </trkpt>
      <trkpt lat="46.12087" lon="6.55267">
        <ele>698.05</ele>
        <time>2010-06-12T08:20:03Z</time>
      </trkpt>
      <trkpt lat="46.12076" lon="6.55271">
        <ele>694.69</ele>
        <time>2010-06-12T08:20:08Z</time>
      </trkpt>
      <trkpt lat="46.12069" lon="6.55272">
        <ele>693.73</ele>
        <time>2010-06-12T08:20:10Z</time>
      </trkpt>
      <trkpt lat="46.12049" lon="6.55275">
        <ele>689.88</ele>
        <time>2010-06-12T08:20:16Z</time>
      </trkpt>
      <trkpt lat="46.12034" lon="6.55286">
        <ele>686.52</ele>
        <time>2010-06-12T08:20:20Z</time>
      </trkpt>
      <trkpt lat="46.1203" lon="6.55289">
        <ele>687</ele>
        <time>2010-06-12T08:20:21Z</time>
      </trkpt>
      <trkpt lat="46.12021" lon="6.55297">
        <ele>685.56</ele>
        <time>2010-06-12T08:20:23Z</time>
      </trkpt>
      <trkpt lat="46.12017" lon="6.55301">
        <ele>686.04</ele>
        <time>2010-06-12T08:20:24Z</time>
      </trkpt>
      <trkpt lat="46.12014" lon="6.55302">
        <ele>685.08</ele>
        <time>2010-06-12T08:20:25Z</time>
      </trkpt>
      <trkpt lat="46.12003" lon="6.55301">
        <ele>682.19</ele>
        <time>2010-06-12T08:20:28Z</time>
      </trkpt>
      <trkpt lat="46.1199" lon="6.55306">
        <ele>679.31</ele>
        <time>2010-06-12T08:20:31Z</time>
      </trkpt>
      <trkpt lat="46.11958" lon="6.5532">
        <ele>675.94</ele>
        <time>2010-06-12T08:20:39Z</time>
      </trkpt>
      <trkpt lat="46.11948" lon="6.55323">
        <ele>673.06</ele>
        <time>2010-06-12T08:20:42Z</time>
      </trkpt>
      <trkpt lat="46.11908" lon="6.55346">
        <ele>671.14</ele>
        <time>2010-06-12T08:20:51Z</time>
      </trkpt>
      <trkpt lat="46.11893" lon="6.55351">
        <ele>669.22</ele>
        <time>2010-06-12T08:20:54Z</time>
      </trkpt>
      <trkpt lat="46.11865" lon="6.5536">
        <ele>667.29</ele>
        <time>2010-06-12T08:21:00Z</time>
      </trkpt>
      <trkpt lat="46.11846" lon="6.55356">
        <ele>663.45</ele>
        <time>2010-06-12T08:21:06Z</time>
      </trkpt>
      <trkpt lat="46.11834" lon="6.55353">
        <ele>659.6</ele>
        <time>2010-06-12T08:21:10Z</time>
      </trkpt>
      <trkpt lat="46.11818" lon="6.55344">
        <ele>656.24</ele>
        <time>2010-06-12T08:21:14Z</time>
      </trkpt>
      <trkpt lat="46.11802" lon="6.55338">
        <ele>652.39</ele>
        <time>2010-06-12T08:21:18Z</time>
      </trkpt>
      <trkpt lat="46.11789" lon="6.55329">
        <ele>649.51</ele>
        <time>2010-06-12T08:21:21Z</time>
      </trkpt>
      <trkpt lat="46.11785" lon="6.55326">
        <ele>649.03</ele>
        <time>2010-06-12T08:21:22Z</time>
      </trkpt>
      <trkpt lat="46.1178" lon="6.55324">
        <ele>648.07</ele>
        <time>2010-06-12T08:21:23Z</time>
      </trkpt>
      <trkpt lat="46.11775" lon="6.55323">
        <ele>647.1</ele>
        <time>2010-06-12T08:21:24Z</time>
      </trkpt>
      <trkpt lat="46.11772" lon="6.55323">
        <ele>646.62</ele>
        <time>2010-06-12T08:21:25Z</time>
      </trkpt>
      <trkpt lat="46.11768" lon="6.55323">
        <ele>646.14</ele>
        <time>2010-06-12T08:21:26Z</time>
      </trkpt>
      <trkpt lat="46.11764" lon="6.55324">
        <ele>645.66</ele>
        <time>2010-06-12T08:21:28Z</time>
      </trkpt>
      <trkpt lat="46.11757" lon="6.55325">
        <ele>644.7</ele>
        <time>2010-06-12T08:21:29Z</time>
      </trkpt>
      <trkpt lat="46.11745" lon="6.5532">
        <ele>642.78</ele>
        <time>2010-06-12T08:21:32Z</time>
      </trkpt>
      <trkpt lat="46.1174" lon="6.55318">
        <ele>641.34</ele>
        <time>2010-06-12T08:21:33Z</time>
      </trkpt>
      <trkpt lat="46.11736" lon="6.55319">
        <ele>640.86</ele>
        <time>2010-06-12T08:21:34Z</time>
      </trkpt>
      <trkpt lat="46.1172" lon="6.55323">
        <ele>638.93</ele>
        <time>2010-06-12T08:21:37Z</time>
      </trkpt>
      <trkpt lat="46.11715" lon="6.55325">
        <ele>638.45</ele>
        <time>2010-06-12T08:21:38Z</time>
      </trkpt>
      <trkpt lat="46.11711" lon="6.55326">
        <ele>637.97</ele>
        <time>2010-06-12T08:21:39Z</time>
      </trkpt>
      <trkpt lat="46.11686" lon="6.55326">
        <ele>635.57</ele>
        <time>2010-06-12T08:21:47Z</time>
      </trkpt>
      <trkpt lat="46.11682" lon="6.55319">
        <ele>636.05</ele>
        <time>2010-06-12T08:22:00Z</time>
      </trkpt>
      <trkpt lat="46.1168" lon="6.55316">
        <ele>636.05</ele>
        <time>2010-06-12T08:22:01Z</time>
      </trkpt>
      <trkpt lat="46.11677" lon="6.55314">
        <ele>635.57</ele>
        <time>2010-06-12T08:22:02Z</time>
      </trkpt>
      <trkpt lat="46.11673" lon="6.55314">
        <ele>636.05</ele>
        <time>2010-06-12T08:22:03Z</time>
      </trkpt>
      <trkpt lat="46.11603" lon="6.55319">
        <ele>635.57</ele>
        <time>2010-06-12T08:22:22Z</time>
      </trkpt>
      <trkpt lat="46.11517" lon="6.55322">
        <ele>635.09</ele>
        <time>2010-06-12T08:22:43Z</time>
      </trkpt>
      <trkpt lat="46.11438" lon="6.55321">
        <ele>635.57</ele>
        <time>2010-06-12T08:23:02Z</time>
      </trkpt>
      <trkpt lat="46.11408" lon="6.55318">
        <ele>635.09</ele>
        <time>2010-06-12T08:23:13Z</time>
      </trkpt>
      <trkpt lat="46.11395" lon="6.55311">
        <ele>632.2</ele>
        <time>2010-06-12T08:23:17Z</time>
      </trkpt>
      <trkpt lat="46.11382" lon="6.55305">
        <ele>630.28</ele>
        <time>2010-06-12T08:23:20Z</time>
      </trkpt>
      <trkpt lat="46.11377" lon="6.55302">
        <ele>629.32</ele>
        <time>2010-06-12T08:23:21Z</time>
      </trkpt>
      <trkpt lat="46.11374" lon="6.55299">
        <ele>628.36</ele>
        <time>2010-06-12T08:23:22Z</time>
      </trkpt>
      <trkpt lat="46.1137" lon="6.55296">
        <ele>627.88</ele>
        <time>2010-06-12T08:23:23Z</time>
      </trkpt>
      <trkpt lat="46.11366" lon="6.55294">
        <ele>626.92</ele>
        <time>2010-06-12T08:23:24Z</time>
      </trkpt>
      <trkpt lat="46.11362" lon="6.55291">
        <ele>626.44</ele>
        <time>2010-06-12T08:23:25Z</time>
      </trkpt>
      <trkpt lat="46.11354" lon="6.55283">
        <ele>624.51</ele>
        <time>2010-06-12T08:23:27Z</time>
      </trkpt>
      <trkpt lat="46.11354" lon="6.55253">
        <ele>621.63</ele>
        <time>2010-06-12T08:23:34Z</time>
      </trkpt>
      <trkpt lat="46.11358" lon="6.55253">
        <ele>621.63</ele>
        <time>2010-06-12T08:23:35Z</time>
      </trkpt>
      <trkpt lat="46.11363" lon="6.55254">
        <ele>621.15</ele>
        <time>2010-06-12T08:23:36Z</time>
      </trkpt>
      <trkpt lat="46.11367" lon="6.55255">
        <ele>620.67</ele>
        <time>2010-06-12T08:23:37Z</time>
      </trkpt>
      <trkpt lat="46.11372" lon="6.55256">
        <ele>621.15</ele>
        <time>2010-06-12T08:23:38Z</time>
      </trkpt>
      <trkpt lat="46.11376" lon="6.55257">
        <ele>620.67</ele>
        <time>2010-06-12T08:23:39Z</time>
      </trkpt>
      <trkpt lat="46.11413" lon="6.55236">
        <ele>621.15</ele>
        <time>2010-06-12T08:23:50Z</time>
      </trkpt>
      <trkpt lat="46.11429" lon="6.55211">
        <ele>621.63</ele>
        <time>2010-06-12T08:23:57Z</time>
      </trkpt>
      <trkpt lat="46.11429" lon="6.55205">
        <ele>621.63</ele>
        <time>2010-06-12T08:23:58Z</time>
      </trkpt>
      <trkpt lat="46.1142" lon="6.55141">
        <ele>621.63</ele>
        <time>2010-06-12T08:24:10Z</time>
      </trkpt>
      <trkpt lat="46.11403" lon="6.55095">
        <ele>623.55</ele>
        <time>2010-06-12T08:24:23Z</time>
      </trkpt>
      <trkpt lat="46.11371" lon="6.55089">
        <ele>626.44</ele>
        <time>2010-06-12T08:24:37Z</time>
      </trkpt>
      <trkpt lat="46.11337" lon="6.55089">
        <ele>628.84</ele>
        <time>2010-06-12T08:24:52Z</time>
      </trkpt>
      <trkpt lat="46.11313" lon="6.55063">
        <ele>632.2</ele>
        <time>2010-06-12T08:25:06Z</time>
      </trkpt>
      <trkpt lat="46.1132" lon="6.55016">
        <ele>634.61</ele>
        <time>2010-06-12T08:25:20Z</time>
      </trkpt>
      <trkpt lat="46.11363" lon="6.5499">
        <ele>634.61</ele>
        <time>2010-06-12T08:25:36Z</time>
      </trkpt>
      <trkpt lat="46.11426" lon="6.54981">
        <ele>635.57</ele>
        <time>2010-06-12T08:25:56Z</time>
      </trkpt>
      <trkpt lat="46.11492" lon="6.54959">
        <ele>637.01</ele>
        <time>2010-06-12T08:26:17Z</time>
      </trkpt>
      <trkpt lat="46.11515" lon="6.54945">
        <ele>639.89</ele>
        <time>2010-06-12T08:26:25Z</time>
      </trkpt>
      <trkpt lat="46.11518" lon="6.54943">
        <ele>637.01</ele>
        <time>2010-06-12T08:26:26Z</time>
      </trkpt>
      <trkpt lat="46.11534" lon="6.54918">
        <ele>639.89</ele>
        <time>2010-06-12T08:26:35Z</time>
      </trkpt>
      <trkpt lat="46.1156" lon="6.54859">
        <ele>641.34</ele>
        <time>2010-06-12T08:26:51Z</time>
      </trkpt>
      <trkpt lat="46.11587" lon="6.54811">
        <ele>644.22</ele>
        <time>2010-06-12T08:27:06Z</time>
      </trkpt>
      <trkpt lat="46.11575" lon="6.54744">
        <ele>644.7</ele>
        <time>2010-06-12T08:27:22Z</time>
      </trkpt>
      <trkpt lat="46.11554" lon="6.54684">
        <ele>645.66</ele>
        <time>2010-06-12T08:27:37Z</time>
      </trkpt>
      <trkpt lat="46.11515" lon="6.54634">
        <ele>648.55</ele>
        <time>2010-06-12T08:27:54Z</time>
      </trkpt>
      <trkpt lat="46.11484" lon="6.54601">
        <ele>651.43</ele>
        <time>2010-06-12T08:28:08Z</time>
      </trkpt>
      <trkpt lat="46.11443" lon="6.54582">
        <ele>653.83</ele>
        <time>2010-06-12T08:28:24Z</time>
      </trkpt>
      <trkpt lat="46.11392" lon="6.54571">
        <ele>656.24</ele>
        <time>2010-06-12T08:28:42Z</time>
      </trkpt>
      <trkpt lat="46.11349" lon="6.54591">
        <ele>657.68</ele>
        <time>2010-06-12T08:28:58Z</time>
      </trkpt>
      <trkpt lat="46.11321" lon="6.54586">
        <ele>657.68</ele>
        <time>2010-06-12T08:29:10Z</time>
      </trkpt>
      <trkpt lat="46.11316" lon="6.54581">
        <ele>658.64</ele>
        <time>2010-06-12T08:29:22Z</time>
      </trkpt>
      <trkpt lat="46.11315" lon="6.54582">
        <ele>658.64</ele>
        <time>2010-06-12T08:29:25Z</time>
      </trkpt>
      <trkpt lat="46.11295" lon="6.546">
        <ele>659.6</ele>
        <time>2010-06-12T08:29:37Z</time>
      </trkpt>
      <trkpt lat="46.11271" lon="6.54626">
        <ele>661.52</ele>
        <time>2010-06-12T08:29:48Z</time>
      </trkpt>
      <trkpt lat="46.1124" lon="6.54659">
        <ele>663.93</ele>
        <time>2010-06-12T08:30:03Z</time>
      </trkpt>
      <trkpt lat="46.11213" lon="6.54691">
        <ele>667.29</ele>
        <time>2010-06-12T08:30:17Z</time>
      </trkpt>
      <trkpt lat="46.112" lon="6.5474">
        <ele>667.29</ele>
        <time>2010-06-12T08:30:30Z</time>
      </trkpt>
      <trkpt lat="46.11189" lon="6.54796">
        <ele>670.66</ele>
        <time>2010-06-12T08:30:46Z</time>
      </trkpt>
      <trkpt lat="46.11177" lon="6.54833">
        <ele>672.1</ele>
        <time>2010-06-12T08:30:58Z</time>
      </trkpt>
      <trkpt lat="46.11141" lon="6.54873">
        <ele>674.5</ele>
        <time>2010-06-12T08:31:12Z</time>
      </trkpt>
      <trkpt lat="46.11112" lon="6.54884">
        <ele>676.42</ele>
        <time>2010-06-12T08:31:26Z</time>
      </trkpt>
      <trkpt lat="46.11084" lon="6.54918">
        <ele>678.83</ele>
        <time>2010-06-12T08:31:41Z</time>
      </trkpt>
      <trkpt lat="46.11062" lon="6.54901">
        <ele>679.79</ele>
        <time>2010-06-12T08:31:52Z</time>
      </trkpt>
      <trkpt lat="46.11058" lon="6.54852">
        <ele>682.19</ele>
        <time>2010-06-12T08:32:07Z</time>
      </trkpt>
      <trkpt lat="46.11054" lon="6.54809">
        <ele>686.04</ele>
        <time>2010-06-12T08:32:22Z</time>
      </trkpt>
      <trkpt lat="46.11049" lon="6.54763">
        <ele>688.92</ele>
        <time>2010-06-12T08:32:38Z</time>
      </trkpt>
      <trkpt lat="46.11052" lon="6.54723">
        <ele>691.81</ele>
        <time>2010-06-12T08:32:53Z</time>
      </trkpt>
      <trkpt lat="46.11047" lon="6.54668">
        <ele>695.17</ele>
        <time>2010-06-12T08:33:12Z</time>
      </trkpt>
      <trkpt lat="46.11041" lon="6.5462">
        <ele>698.05</ele>
        <time>2010-06-12T08:33:29Z</time>
      </trkpt>
      <trkpt lat="46.11039" lon="6.54578">
        <ele>700.94</ele>
        <time>2010-06-12T08:33:44Z</time>
      </trkpt>
      <trkpt lat="46.11043" lon="6.54531">
        <ele>703.82</ele>
        <time>2010-06-12T08:34:00Z</time>
      </trkpt>
      <trkpt lat="46.11035" lon="6.54491">
        <ele>706.71</ele>
        <time>2010-06-12T08:34:14Z</time>
      </trkpt>
      <trkpt lat="46.11029" lon="6.54464">
        <ele>710.07</ele>
        <time>2010-06-12T08:34:24Z</time>
      </trkpt>
      <trkpt lat="46.1103" lon="6.5446">
        <ele>710.07</ele>
        <time>2010-06-12T08:34:26Z</time>
      </trkpt>
      <trkpt lat="46.11031" lon="6.54458">
        <ele>711.03</ele>
        <time>2010-06-12T08:34:27Z</time>
      </trkpt>
      <trkpt lat="46.11032" lon="6.54456">
        <ele>711.51</ele>
        <time>2010-06-12T08:34:28Z</time>
      </trkpt>
      <trkpt lat="46.11039" lon="6.54417">
        <ele>714.4</ele>
        <time>2010-06-12T08:34:43Z</time>
      </trkpt>
      <trkpt lat="46.11053" lon="6.54385">
        <ele>716.32</ele>
        <time>2010-06-12T08:34:57Z</time>
      </trkpt>
      <trkpt lat="46.11072" lon="6.54349">
        <ele>719.2</ele>
        <time>2010-06-12T08:35:13Z</time>
      </trkpt>
      <trkpt lat="46.11089" lon="6.54325">
        <ele>722.09</ele>
        <time>2010-06-12T08:35:26Z</time>
      </trkpt>
      <trkpt lat="46.11111" lon="6.543">
        <ele>724.97</ele>
        <time>2010-06-12T08:35:41Z</time>
      </trkpt>
      <trkpt lat="46.1113" lon="6.54279">
        <ele>727.37</ele>
        <time>2010-06-12T08:35:53Z</time>
      </trkpt>
      <trkpt lat="46.11155" lon="6.54255">
        <ele>729.78</ele>
        <time>2010-06-12T08:36:09Z</time>
      </trkpt>
      <trkpt lat="46.11156" lon="6.54253">
        <ele>728.82</ele>
        <time>2010-06-12T08:36:10Z</time>
      </trkpt>
      <trkpt lat="46.11156" lon="6.5425">
        <ele>728.82</ele>
        <time>2010-06-12T08:36:11Z</time>
      </trkpt>
      <trkpt lat="46.11156" lon="6.54247">
        <ele>729.3</ele>
        <time>2010-06-12T08:36:12Z</time>
      </trkpt>
      <trkpt lat="46.11155" lon="6.54246">
        <ele>728.82</ele>
        <time>2010-06-12T08:36:13Z</time>
      </trkpt>
      <trkpt lat="46.11153" lon="6.54245">
        <ele>728.82</ele>
        <time>2010-06-12T08:36:14Z</time>
      </trkpt>
      <trkpt lat="46.11152" lon="6.54244">
        <ele>729.3</ele>
        <time>2010-06-12T08:36:15Z</time>
      </trkpt>
      <trkpt lat="46.11151" lon="6.54244">
        <ele>729.78</ele>
        <time>2010-06-12T08:36:16Z</time>
      </trkpt>
      <trkpt lat="46.11149" lon="6.54243">
        <ele>729.78</ele>
        <time>2010-06-12T08:36:17Z</time>
      </trkpt>
      <trkpt lat="46.11147" lon="6.54243">
        <ele>729.78</ele>
        <time>2010-06-12T08:36:18Z</time>
      </trkpt>
      <trkpt lat="46.11134" lon="6.54243">
        <ele>731.22</ele>
        <time>2010-06-12T08:36:27Z</time>
      </trkpt>
      <trkpt lat="46.11132" lon="6.54243">
        <ele>731.7</ele>
        <time>2010-06-12T08:36:28Z</time>
      </trkpt>
      <trkpt lat="46.11113" lon="6.5425">
        <ele>734.58</ele>
        <time>2010-06-12T08:36:42Z</time>
      </trkpt>
      <trkpt lat="46.11096" lon="6.54257">
        <ele>737.47</ele>
        <time>2010-06-12T08:36:55Z</time>
      </trkpt>
      <trkpt lat="46.11087" lon="6.54261">
        <ele>737.95</ele>
        <time>2010-06-12T08:37:02Z</time>
      </trkpt>
      <trkpt lat="46.11086" lon="6.54262">
        <ele>738.43</ele>
        <time>2010-06-12T08:37:03Z</time>
      </trkpt>
      <trkpt lat="46.11079" lon="6.54266">
        <ele>739.39</ele>
        <time>2010-06-12T08:37:08Z</time>
      </trkpt>
      <trkpt lat="46.11078" lon="6.54267">
        <ele>739.87</ele>
        <time>2010-06-12T08:37:09Z</time>
      </trkpt>
      <trkpt lat="46.11076" lon="6.54268">
        <ele>739.39</ele>
        <time>2010-06-12T08:37:10Z</time>
      </trkpt>
      <trkpt lat="46.11054" lon="6.5428">
        <ele>741.79</ele>
        <time>2010-06-12T08:37:26Z</time>
      </trkpt>
      <trkpt lat="46.11038" lon="6.5429">
        <ele>744.68</ele>
        <time>2010-06-12T08:37:40Z</time>
      </trkpt>
      <trkpt lat="46.11037" lon="6.54291">
        <ele>745.16</ele>
        <time>2010-06-12T08:37:41Z</time>
      </trkpt>
      <trkpt lat="46.11035" lon="6.54292">
        <ele>745.16</ele>
        <time>2010-06-12T08:37:43Z</time>
      </trkpt>
      <trkpt lat="46.11027" lon="6.5429">
        <ele>746.12</ele>
        <time>2010-06-12T08:37:49Z</time>
      </trkpt>
      <trkpt lat="46.11019" lon="6.54288">
        <ele>748.04</ele>
        <time>2010-06-12T08:38:01Z</time>
      </trkpt>
      <trkpt lat="46.1101" lon="6.54284">
        <ele>751.41</ele>
        <time>2010-06-12T08:38:16Z</time>
      </trkpt>
      <trkpt lat="46.11003" lon="6.54283">
        <ele>753.81</ele>
        <time>2010-06-12T08:38:34Z</time>
      </trkpt>
      <trkpt lat="46.10996" lon="6.54283">
        <ele>756.21</ele>
        <time>2010-06-12T08:38:47Z</time>
      </trkpt>
      <trkpt lat="46.10986" lon="6.54279">
        <ele>759.58</ele>
        <time>2010-06-12T08:39:03Z</time>
      </trkpt>
      <trkpt lat="46.10981" lon="6.54276">
        <ele>761.98</ele>
        <time>2010-06-12T08:39:18Z</time>
      </trkpt>
      <trkpt lat="46.10974" lon="6.54275">
        <ele>764.87</ele>
        <time>2010-06-12T08:39:32Z</time>
      </trkpt>
      <trkpt lat="46.10967" lon="6.54268">
        <ele>767.27</ele>
        <time>2010-06-12T08:39:46Z</time>
      </trkpt>
      <trkpt lat="46.10966" lon="6.54264">
        <ele>769.67</ele>
        <time>2010-06-12T08:39:56Z</time>
      </trkpt>
      <trkpt lat="46.10963" lon="6.54255">
        <ele>771.6</ele>
        <time>2010-06-12T08:40:08Z</time>
      </trkpt>
      <trkpt lat="46.10959" lon="6.54248">
        <ele>774</ele>
        <time>2010-06-12T08:40:23Z</time>
      </trkpt>
      <trkpt lat="46.10948" lon="6.54245">
        <ele>776.4</ele>
        <time>2010-06-12T08:40:37Z</time>
      </trkpt>
      <trkpt lat="46.1094" lon="6.5425">
        <ele>778.32</ele>
        <time>2010-06-12T08:40:49Z</time>
      </trkpt>
      <trkpt lat="46.10927" lon="6.54255">
        <ele>781.21</ele>
        <time>2010-06-12T08:41:04Z</time>
      </trkpt>
      <trkpt lat="46.10918" lon="6.54262">
        <ele>783.13</ele>
        <time>2010-06-12T08:41:18Z</time>
      </trkpt>
      <trkpt lat="46.10912" lon="6.54269">
        <ele>784.57</ele>
        <time>2010-06-12T08:41:32Z</time>
      </trkpt>
      <trkpt lat="46.10908" lon="6.54275">
        <ele>785.53</ele>
        <time>2010-06-12T08:41:39Z</time>
      </trkpt>
      <trkpt lat="46.10904" lon="6.54286">
        <ele>786.5</ele>
        <time>2010-06-12T08:41:50Z</time>
      </trkpt>
      <trkpt lat="46.10905" lon="6.54282">
        <ele>786.5</ele>
        <time>2010-06-12T08:42:04Z</time>
      </trkpt>
      <trkpt lat="46.10905" lon="6.54282">
        <ele>786.5</ele>
        <time>2010-06-12T08:42:28Z</time>
      </trkpt>
      <trkpt lat="46.10905" lon="6.54282">
        <ele>786.02</ele>
        <time>2010-06-12T08:42:58Z</time>
      </trkpt>
      <trkpt lat="46.10905" lon="6.54281">
        <ele>786.98</ele>
        <time>2010-06-12T08:43:30Z</time>
      </trkpt>
      <trkpt lat="46.10905" lon="6.54281">
        <ele>786.98</ele>
        <time>2010-06-12T08:44:05Z</time>
      </trkpt>
      <trkpt lat="46.10905" lon="6.54281">
        <ele>786.98</ele>
        <time>2010-06-12T08:44:37Z</time>
      </trkpt>
      <trkpt lat="46.10905" lon="6.5428">
        <ele>786.98</ele>
        <time>2010-06-12T08:45:17Z</time>
      </trkpt>
      <trkpt lat="46.10903" lon="6.54282">
        <ele>787.94</ele>
        <time>2010-06-12T08:45:40Z</time>
      </trkpt>
      <trkpt lat="46.10892" lon="6.54286">
        <ele>790.82</ele>
        <time>2010-06-12T08:45:55Z</time>
      </trkpt>
      <trkpt lat="46.10882" lon="6.54291">
        <ele>794.19</ele>
        <time>2010-06-12T08:46:09Z</time>
      </trkpt>
      <trkpt lat="46.10871" lon="6.54296">
        <ele>796.11</ele>
        <time>2010-06-12T08:46:23Z</time>
      </trkpt>
      <trkpt lat="46.10866" lon="6.54296">
        <ele>798.99</ele>
        <time>2010-06-12T08:46:39Z</time>
      </trkpt>
      <trkpt lat="46.10859" lon="6.54299">
        <ele>801.88</ele>
        <time>2010-06-12T08:46:56Z</time>
      </trkpt>
      <trkpt lat="46.10856" lon="6.54293">
        <ele>804.76</ele>
        <time>2010-06-12T08:47:09Z</time>
      </trkpt>
      <trkpt lat="46.10856" lon="6.5429">
        <ele>805.24</ele>
        <time>2010-06-12T08:47:18Z</time>
      </trkpt>
      <trkpt lat="46.10858" lon="6.5428">
        <ele>805.72</ele>
        <time>2010-06-12T08:47:29Z</time>
      </trkpt>
      <trkpt lat="46.10858" lon="6.54278">
        <ele>805.24</ele>
        <time>2010-06-12T08:47:30Z</time>
      </trkpt>
      <trkpt lat="46.10858" lon="6.54273">
        <ele>805.72</ele>
        <time>2010-06-12T08:47:32Z</time>
      </trkpt>
      <trkpt lat="46.10859" lon="6.54271">
        <ele>805.72</ele>
        <time>2010-06-12T08:47:33Z</time>
      </trkpt>
      <trkpt lat="46.10857" lon="6.54265">
        <ele>806.2</ele>
        <time>2010-06-12T08:47:37Z</time>
      </trkpt>
      <trkpt lat="46.10853" lon="6.54254">
        <ele>807.16</ele>
        <time>2010-06-12T08:47:44Z</time>
      </trkpt>
      <trkpt lat="46.10852" lon="6.54253">
        <ele>807.16</ele>
        <time>2010-06-12T08:47:45Z</time>
      </trkpt>
      <trkpt lat="46.10852" lon="6.54251">
        <ele>807.64</ele>
        <time>2010-06-12T08:47:46Z</time>
      </trkpt>
      <trkpt lat="46.10847" lon="6.54236">
        <ele>808.61</ele>
        <time>2010-06-12T08:47:54Z</time>
      </trkpt>
      <trkpt lat="46.10848" lon="6.54234">
        <ele>808.61</ele>
        <time>2010-06-12T08:47:55Z</time>
      </trkpt>
      <trkpt lat="46.10849" lon="6.54232">
        <ele>809.09</ele>
        <time>2010-06-12T08:47:56Z</time>
      </trkpt>
      <trkpt lat="46.1085" lon="6.5423">
        <ele>808.13</ele>
        <time>2010-06-12T08:47:57Z</time>
      </trkpt>
      <trkpt lat="46.10853" lon="6.54228">
        <ele>808.13</ele>
        <time>2010-06-12T08:47:58Z</time>
      </trkpt>
      <trkpt lat="46.10855" lon="6.54226">
        <ele>807.64</ele>
        <time>2010-06-12T08:47:59Z</time>
      </trkpt>
      <trkpt lat="46.1088" lon="6.54206">
        <ele>804.76</ele>
        <time>2010-06-12T08:48:07Z</time>
      </trkpt>
      <trkpt lat="46.10883" lon="6.54203">
        <ele>803.8</ele>
        <time>2010-06-12T08:48:08Z</time>
      </trkpt>
      <trkpt lat="46.10887" lon="6.54199">
        <ele>803.8</ele>
        <time>2010-06-12T08:48:09Z</time>
      </trkpt>
      <trkpt lat="46.10913" lon="6.54176">
        <ele>800.44</ele>
        <time>2010-06-12T08:48:15Z</time>
      </trkpt>
      <trkpt lat="46.10963" lon="6.54131">
        <ele>797.55</ele>
        <time>2010-06-12T08:48:26Z</time>
      </trkpt>
      <trkpt lat="46.10987" lon="6.54096">
        <ele>798.03</ele>
        <time>2010-06-12T08:48:35Z</time>
      </trkpt>
      <trkpt lat="46.10988" lon="6.54095">
        <ele>798.51</ele>
        <time>2010-06-12T08:48:36Z</time>
      </trkpt>
      <trkpt lat="46.10988" lon="6.54093">
        <ele>798.03</ele>
        <time>2010-06-12T08:48:37Z</time>
      </trkpt>
      <trkpt lat="46.10989" lon="6.54092">
        <ele>798.99</ele>
        <time>2010-06-12T08:48:38Z</time>
      </trkpt>
      <trkpt lat="46.1099" lon="6.5409">
        <ele>798.51</ele>
        <time>2010-06-12T08:48:39Z</time>
      </trkpt>
      <trkpt lat="46.10993" lon="6.54086">
        <ele>798.51</ele>
        <time>2010-06-12T08:48:41Z</time>
      </trkpt>
      <trkpt lat="46.10994" lon="6.54084">
        <ele>798.51</ele>
        <time>2010-06-12T08:48:42Z</time>
      </trkpt>
      <trkpt lat="46.11019" lon="6.54056">
        <ele>798.99</ele>
        <time>2010-06-12T08:48:55Z</time>
      </trkpt>
      <trkpt lat="46.11046" lon="6.54029">
        <ele>800.92</ele>
        <time>2010-06-12T08:49:07Z</time>
      </trkpt>
      <trkpt lat="46.11081" lon="6.54008">
        <ele>802.36</ele>
        <time>2010-06-12T08:49:21Z</time>
      </trkpt>
      <trkpt lat="46.11125" lon="6.53989">
        <ele>803.8</ele>
        <time>2010-06-12T08:49:39Z</time>
      </trkpt>
      <trkpt lat="46.11161" lon="6.53957">
        <ele>805.72</ele>
        <time>2010-06-12T08:49:56Z</time>
      </trkpt>
      <trkpt lat="46.11194" lon="6.53935">
        <ele>807.64</ele>
        <time>2010-06-12T08:50:10Z</time>
      </trkpt>
      <trkpt lat="46.11204" lon="6.53898">
        <ele>807.16</ele>
        <time>2010-06-12T08:50:21Z</time>
      </trkpt>
      <trkpt lat="46.11202" lon="6.53852">
        <ele>807.64</ele>
        <time>2010-06-12T08:50:33Z</time>
      </trkpt>
      <trkpt lat="46.11201" lon="6.53818">
        <ele>809.09</ele>
        <time>2010-06-12T08:50:44Z</time>
      </trkpt>
      <trkpt lat="46.11186" lon="6.53783">
        <ele>807.16</ele>
        <time>2010-06-12T08:50:55Z</time>
      </trkpt>
      <trkpt lat="46.11186" lon="6.53778">
        <ele>811.97</ele>
        <time>2010-06-12T08:50:57Z</time>
      </trkpt>
      <trkpt lat="46.11187" lon="6.53771">
        <ele>808.61</ele>
        <time>2010-06-12T08:51:00Z</time>
      </trkpt>
      <trkpt lat="46.11187" lon="6.5377">
        <ele>811.01</ele>
        <time>2010-06-12T08:51:01Z</time>
      </trkpt>
      <trkpt lat="46.11189" lon="6.53769">
        <ele>810.53</ele>
        <time>2010-06-12T08:51:02Z</time>
      </trkpt>
      <trkpt lat="46.11219" lon="6.53736">
        <ele>807.64</ele>
        <time>2010-06-12T08:51:12Z</time>
      </trkpt>
      <trkpt lat="46.11231" lon="6.53723">
        <ele>808.13</ele>
        <time>2010-06-12T08:51:15Z</time>
      </trkpt>
      <trkpt lat="46.11234" lon="6.5372">
        <ele>808.13</ele>
        <time>2010-06-12T08:51:16Z</time>
      </trkpt>
      <trkpt lat="46.11255" lon="6.53689">
        <ele>808.13</ele>
        <time>2010-06-12T08:51:26Z</time>
      </trkpt>
      <trkpt lat="46.11281" lon="6.53654">
        <ele>808.61</ele>
        <time>2010-06-12T08:51:39Z</time>
      </trkpt>
      <trkpt lat="46.11297" lon="6.53632">
        <ele>811.97</ele>
        <time>2010-06-12T08:51:50Z</time>
      </trkpt>
      <trkpt lat="46.11313" lon="6.5361">
        <ele>812.45</ele>
        <time>2010-06-12T08:52:01Z</time>
      </trkpt>
      <trkpt lat="46.11314" lon="6.53607">
        <ele>812.45</ele>
        <time>2010-06-12T08:52:02Z</time>
      </trkpt>
      <trkpt lat="46.11332" lon="6.53583">
        <ele>812.45</ele>
        <time>2010-06-12T08:52:15Z</time>
      </trkpt>
      <trkpt lat="46.11333" lon="6.53577">
        <ele>812.93</ele>
        <time>2010-06-12T08:52:17Z</time>
      </trkpt>
      <trkpt lat="46.11333" lon="6.53574">
        <ele>812.93</ele>
        <time>2010-06-12T08:52:18Z</time>
      </trkpt>
      <trkpt lat="46.11333" lon="6.53572">
        <ele>812.93</ele>
        <time>2010-06-12T08:52:19Z</time>
      </trkpt>
      <trkpt lat="46.11332" lon="6.53569">
        <ele>812.93</ele>
        <time>2010-06-12T08:52:20Z</time>
      </trkpt>
      <trkpt lat="46.11332" lon="6.53567">
        <ele>812.93</ele>
        <time>2010-06-12T08:52:21Z</time>
      </trkpt>
      <trkpt lat="46.11332" lon="6.5355">
        <ele>812.45</ele>
        <time>2010-06-12T08:52:32Z</time>
      </trkpt>
      <trkpt lat="46.11334" lon="6.53518">
        <ele>810.53</ele>
        <time>2010-06-12T08:52:37Z</time>
      </trkpt>
      <trkpt lat="46.11332" lon="6.53511">
        <ele>810.05</ele>
        <time>2010-06-12T08:52:38Z</time>
      </trkpt>
      <trkpt lat="46.11328" lon="6.53505">
        <ele>810.05</ele>
        <time>2010-06-12T08:52:39Z</time>
      </trkpt>
      <trkpt lat="46.11324" lon="6.53499">
        <ele>808.61</ele>
        <time>2010-06-12T08:52:40Z</time>
      </trkpt>
      <trkpt lat="46.11318" lon="6.53494">
        <ele>808.61</ele>
        <time>2010-06-12T08:52:41Z</time>
      </trkpt>
      <trkpt lat="46.11313" lon="6.5349">
        <ele>808.61</ele>
        <time>2010-06-12T08:52:42Z</time>
      </trkpt>
      <trkpt lat="46.11309" lon="6.53485">
        <ele>808.13</ele>
        <time>2010-06-12T08:52:43Z</time>
      </trkpt>
      <trkpt lat="46.11304" lon="6.53479">
        <ele>808.13</ele>
        <time>2010-06-12T08:52:44Z</time>
      </trkpt>
      <trkpt lat="46.113" lon="6.53473">
        <ele>807.64</ele>
        <time>2010-06-12T08:52:45Z</time>
      </trkpt>
      <trkpt lat="46.11297" lon="6.53466">
        <ele>808.13</ele>
        <time>2010-06-12T08:52:46Z</time>
      </trkpt>
      <trkpt lat="46.11293" lon="6.5346">
        <ele>808.13</ele>
        <time>2010-06-12T08:52:47Z</time>
      </trkpt>
      <trkpt lat="46.1129" lon="6.53454">
        <ele>808.13</ele>
        <time>2010-06-12T08:52:48Z</time>
      </trkpt>
      <trkpt lat="46.11286" lon="6.53448">
        <ele>807.64</ele>
        <time>2010-06-12T08:52:49Z</time>
      </trkpt>
      <trkpt lat="46.11284" lon="6.5344">
        <ele>806.68</ele>
        <time>2010-06-12T08:52:50Z</time>
      </trkpt>
      <trkpt lat="46.11283" lon="6.53431">
        <ele>806.68</ele>
        <time>2010-06-12T08:52:51Z</time>
      </trkpt>
      <trkpt lat="46.11282" lon="6.53422">
        <ele>806.2</ele>
        <time>2010-06-12T08:52:52Z</time>
      </trkpt>
      <trkpt lat="46.11283" lon="6.53413">
        <ele>806.2</ele>
        <time>2010-06-12T08:52:53Z</time>
      </trkpt>
      <trkpt lat="46.11285" lon="6.53405">
        <ele>805.72</ele>
        <time>2010-06-12T08:52:54Z</time>
      </trkpt>
      <trkpt lat="46.11288" lon="6.53396">
        <ele>805.24</ele>
        <time>2010-06-12T08:52:55Z</time>
      </trkpt>
      <trkpt lat="46.11295" lon="6.5338">
        <ele>803.32</ele>
        <time>2010-06-12T08:52:57Z</time>
      </trkpt>
      <trkpt lat="46.11299" lon="6.53374">
        <ele>802.36</ele>
        <time>2010-06-12T08:52:58Z</time>
      </trkpt>
      <trkpt lat="46.11304" lon="6.53368">
        <ele>800.92</ele>
        <time>2010-06-12T08:52:59Z</time>
      </trkpt>
      <trkpt lat="46.11311" lon="6.53364">
        <ele>799.47</ele>
        <time>2010-06-12T08:53:00Z</time>
      </trkpt>
      <trkpt lat="46.11318" lon="6.53361">
        <ele>798.51</ele>
        <time>2010-06-12T08:53:01Z</time>
      </trkpt>
      <trkpt lat="46.11326" lon="6.53359">
        <ele>798.03</ele>
        <time>2010-06-12T08:53:02Z</time>
      </trkpt>
      <trkpt lat="46.11334" lon="6.53357">
        <ele>797.07</ele>
        <time>2010-06-12T08:53:03Z</time>
      </trkpt>
      <trkpt lat="46.11365" lon="6.53355">
        <ele>792.74</ele>
        <time>2010-06-12T08:53:07Z</time>
      </trkpt>
      <trkpt lat="46.11382" lon="6.53358">
        <ele>789.38</ele>
        <time>2010-06-12T08:53:09Z</time>
      </trkpt>
      <trkpt lat="46.11416" lon="6.53367">
        <ele>786.5</ele>
        <time>2010-06-12T08:53:13Z</time>
      </trkpt>
      <trkpt lat="46.11422" lon="6.53367">
        <ele>785.53</ele>
        <time>2010-06-12T08:53:14Z</time>
      </trkpt>
      <trkpt lat="46.11428" lon="6.53365">
        <ele>785.05</ele>
        <time>2010-06-12T08:53:15Z</time>
      </trkpt>
      <trkpt lat="46.11433" lon="6.53361">
        <ele>785.05</ele>
        <time>2010-06-12T08:53:16Z</time>
      </trkpt>
      <trkpt lat="46.11434" lon="6.53356">
        <ele>784.09</ele>
        <time>2010-06-12T08:53:17Z</time>
      </trkpt>
      <trkpt lat="46.11434" lon="6.53351">
        <ele>783.61</ele>
        <time>2010-06-12T08:53:18Z</time>
      </trkpt>
      <trkpt lat="46.11433" lon="6.53346">
        <ele>783.13</ele>
        <time>2010-06-12T08:53:19Z</time>
      </trkpt>
      <trkpt lat="46.11431" lon="6.53341">
        <ele>782.17</ele>
        <time>2010-06-12T08:53:20Z</time>
      </trkpt>
      <trkpt lat="46.1143" lon="6.53334">
        <ele>781.69</ele>
        <time>2010-06-12T08:53:21Z</time>
      </trkpt>
      <trkpt lat="46.11418" lon="6.53281">
        <ele>779.29</ele>
        <time>2010-06-12T08:53:26Z</time>
      </trkpt>
      <trkpt lat="46.11414" lon="6.53269">
        <ele>777.84</ele>
        <time>2010-06-12T08:53:27Z</time>
      </trkpt>
      <trkpt lat="46.11404" lon="6.53245">
        <ele>774.48</ele>
        <time>2010-06-12T08:53:29Z</time>
      </trkpt>
      <trkpt lat="46.11392" lon="6.53211">
        <ele>772.08</ele>
        <time>2010-06-12T08:53:32Z</time>
      </trkpt>
      <trkpt lat="46.11386" lon="6.53201">
        <ele>771.11</ele>
        <time>2010-06-12T08:53:33Z</time>
      </trkpt>
      <trkpt lat="46.11379" lon="6.53192">
        <ele>770.15</ele>
        <time>2010-06-12T08:53:34Z</time>
      </trkpt>
      <trkpt lat="46.11361" lon="6.53177">
        <ele>766.79</ele>
        <time>2010-06-12T08:53:37Z</time>
      </trkpt>
      <trkpt lat="46.11341" lon="6.53162">
        <ele>762.94</ele>
        <time>2010-06-12T08:53:38Z</time>
      </trkpt>
      <trkpt lat="46.11317" lon="6.53143">
        <ele>759.1</ele>
        <time>2010-06-12T08:53:40Z</time>
      </trkpt>
      <trkpt lat="46.11273" lon="6.53102">
        <ele>755.73</ele>
        <time>2010-06-12T08:53:44Z</time>
      </trkpt>
      <trkpt lat="46.11265" lon="6.53094">
        <ele>755.73</ele>
        <time>2010-06-12T08:53:45Z</time>
      </trkpt>
      <trkpt lat="46.11258" lon="6.53086">
        <ele>755.25</ele>
        <time>2010-06-12T08:53:46Z</time>
      </trkpt>
      <trkpt lat="46.11253" lon="6.53079">
        <ele>755.25</ele>
        <time>2010-06-12T08:53:47Z</time>
      </trkpt>
      <trkpt lat="46.11251" lon="6.53071">
        <ele>754.29</ele>
        <time>2010-06-12T08:53:48Z</time>
      </trkpt>
      <trkpt lat="46.1125" lon="6.53064">
        <ele>753.81</ele>
        <time>2010-06-12T08:53:49Z</time>
      </trkpt>
      <trkpt lat="46.11252" lon="6.53056">
        <ele>752.85</ele>
        <time>2010-06-12T08:53:50Z</time>
      </trkpt>
      <trkpt lat="46.11255" lon="6.53049">
        <ele>752.37</ele>
        <time>2010-06-12T08:53:51Z</time>
      </trkpt>
      <trkpt lat="46.11259" lon="6.53041">
        <ele>751.41</ele>
        <time>2010-06-12T08:53:52Z</time>
      </trkpt>
      <trkpt lat="46.11264" lon="6.53033">
        <ele>749.97</ele>
        <time>2010-06-12T08:53:53Z</time>
      </trkpt>
      <trkpt lat="46.1131" lon="6.52964">
        <ele>746.6</ele>
        <time>2010-06-12T08:54:01Z</time>
      </trkpt>
      <trkpt lat="46.11326" lon="6.52937">
        <ele>745.16</ele>
        <time>2010-06-12T08:54:04Z</time>
      </trkpt>
      <trkpt lat="46.11345" lon="6.52909">
        <ele>743.24</ele>
        <time>2010-06-12T08:54:07Z</time>
      </trkpt>
      <trkpt lat="46.11352" lon="6.52902">
        <ele>742.76</ele>
        <time>2010-06-12T08:54:08Z</time>
      </trkpt>
      <trkpt lat="46.1136" lon="6.52895">
        <ele>741.79</ele>
        <time>2010-06-12T08:54:09Z</time>
      </trkpt>
      <trkpt lat="46.11368" lon="6.52889">
        <ele>740.83</ele>
        <time>2010-06-12T08:54:10Z</time>
      </trkpt>
      <trkpt lat="46.11375" lon="6.52881">
        <ele>739.87</ele>
        <time>2010-06-12T08:54:11Z</time>
      </trkpt>
      <trkpt lat="46.11381" lon="6.52872">
        <ele>739.39</ele>
        <time>2010-06-12T08:54:12Z</time>
      </trkpt>
      <trkpt lat="46.11385" lon="6.52861">
        <ele>739.39</ele>
        <time>2010-06-12T08:54:13Z</time>
      </trkpt>
      <trkpt lat="46.1139" lon="6.52849">
        <ele>738.43</ele>
        <time>2010-06-12T08:54:14Z</time>
      </trkpt>
      <trkpt lat="46.11399" lon="6.52824">
        <ele>736.99</ele>
        <time>2010-06-12T08:54:16Z</time>
      </trkpt>
      <trkpt lat="46.11415" lon="6.5279">
        <ele>734.58</ele>
        <time>2010-06-12T08:54:19Z</time>
      </trkpt>
      <trkpt lat="46.11422" lon="6.52779">
        <ele>733.62</ele>
        <time>2010-06-12T08:54:20Z</time>
      </trkpt>
      <trkpt lat="46.1143" lon="6.5277">
        <ele>733.62</ele>
        <time>2010-06-12T08:54:21Z</time>
      </trkpt>
      <trkpt lat="46.1149" lon="6.52716">
        <ele>733.62</ele>
        <time>2010-06-12T08:54:29Z</time>
      </trkpt>
      <trkpt lat="46.11497" lon="6.52713">
        <ele>733.62</ele>
        <time>2010-06-12T08:54:30Z</time>
      </trkpt>
      <trkpt lat="46.11504" lon="6.52711">
        <ele>733.14</ele>
        <time>2010-06-12T08:54:31Z</time>
      </trkpt>
      <trkpt lat="46.11511" lon="6.52709">
        <ele>732.66</ele>
        <time>2010-06-12T08:54:32Z</time>
      </trkpt>
      <trkpt lat="46.11518" lon="6.52709">
        <ele>733.14</ele>
        <time>2010-06-12T08:54:33Z</time>
      </trkpt>
      <trkpt lat="46.11537" lon="6.52701">
        <ele>733.14</ele>
        <time>2010-06-12T08:54:36Z</time>
      </trkpt>
      <trkpt lat="46.11559" lon="6.52684">
        <ele>732.18</ele>
        <time>2010-06-12T08:54:40Z</time>
      </trkpt>
      <trkpt lat="46.11563" lon="6.52676">
        <ele>731.22</ele>
        <time>2010-06-12T08:54:41Z</time>
      </trkpt>
      <trkpt lat="46.11567" lon="6.52668">
        <ele>730.74</ele>
        <time>2010-06-12T08:54:42Z</time>
      </trkpt>
      <trkpt lat="46.11569" lon="6.52658">
        <ele>730.74</ele>
        <time>2010-06-12T08:54:43Z</time>
      </trkpt>
      <trkpt lat="46.11584" lon="6.52598">
        <ele>728.34</ele>
        <time>2010-06-12T08:54:49Z</time>
      </trkpt>
      <trkpt lat="46.11583" lon="6.5259">
        <ele>728.82</ele>
        <time>2010-06-12T08:54:50Z</time>
      </trkpt>
      <trkpt lat="46.11581" lon="6.52585">
        <ele>729.3</ele>
        <time>2010-06-12T08:54:51Z</time>
      </trkpt>
      <trkpt lat="46.11578" lon="6.52582">
        <ele>729.78</ele>
        <time>2010-06-12T08:54:52Z</time>
      </trkpt>
      <trkpt lat="46.11576" lon="6.52579">
        <ele>730.26</ele>
        <time>2010-06-12T08:54:53Z</time>
      </trkpt>
      <trkpt lat="46.11573" lon="6.52578">
        <ele>730.26</ele>
        <time>2010-06-12T08:54:54Z</time>
      </trkpt>
      <trkpt lat="46.11562" lon="6.52568">
        <ele>731.22</ele>
        <time>2010-06-12T08:55:02Z</time>
      </trkpt>
      <trkpt lat="46.11561" lon="6.52566">
        <ele>731.7</ele>
        <time>2010-06-12T08:55:03Z</time>
      </trkpt>
      <trkpt lat="46.1156" lon="6.52564">
        <ele>731.7</ele>
        <time>2010-06-12T08:55:04Z</time>
      </trkpt>
      <trkpt lat="46.11559" lon="6.52562">
        <ele>732.18</ele>
        <time>2010-06-12T08:55:05Z</time>
      </trkpt>
      <trkpt lat="46.11558" lon="6.52559">
        <ele>732.18</ele>
        <time>2010-06-12T08:55:06Z</time>
      </trkpt>
      <trkpt lat="46.11541" lon="6.5254">
        <ele>735.55</ele>
        <time>2010-06-12T08:55:19Z</time>
      </trkpt>
      <trkpt lat="46.11515" lon="6.52556">
        <ele>736.99</ele>
        <time>2010-06-12T08:55:33Z</time>
      </trkpt>
      <trkpt lat="46.11488" lon="6.52573">
        <ele>739.87</ele>
        <time>2010-06-12T08:55:48Z</time>
      </trkpt>
      <trkpt lat="46.1147" lon="6.5256">
        <ele>742.76</ele>
        <time>2010-06-12T08:56:01Z</time>
      </trkpt>
      <trkpt lat="46.11483" lon="6.52522">
        <ele>745.64</ele>
        <time>2010-06-12T08:56:17Z</time>
      </trkpt>
      <trkpt lat="46.11498" lon="6.52493">
        <ele>747.56</ele>
        <time>2010-06-12T08:56:31Z</time>
      </trkpt>
      <trkpt lat="46.11521" lon="6.52473">
        <ele>750.93</ele>
        <time>2010-06-12T08:56:46Z</time>
      </trkpt>
      <trkpt lat="46.11545" lon="6.52445">
        <ele>753.81</ele>
        <time>2010-06-12T08:57:03Z</time>
      </trkpt>
      <trkpt lat="46.1157" lon="6.52413">
        <ele>756.21</ele>
        <time>2010-06-12T08:57:21Z</time>
      </trkpt>
      <trkpt lat="46.11591" lon="6.52382">
        <ele>758.14</ele>
        <time>2010-06-12T08:57:38Z</time>
      </trkpt>
      <trkpt lat="46.11599" lon="6.5235">
        <ele>760.54</ele>
        <time>2010-06-12T08:57:51Z</time>
      </trkpt>
      <trkpt lat="46.11601" lon="6.52349">
        <ele>761.5</ele>
        <time>2010-06-12T08:57:52Z</time>
      </trkpt>
      <trkpt lat="46.11602" lon="6.52347">
        <ele>761.02</ele>
        <time>2010-06-12T08:57:53Z</time>
      </trkpt>
      <trkpt lat="46.11624" lon="6.52321">
        <ele>763.42</ele>
        <time>2010-06-12T08:58:08Z</time>
      </trkpt>
      <trkpt lat="46.11637" lon="6.52285">
        <ele>766.31</ele>
        <time>2010-06-12T08:58:24Z</time>
      </trkpt>
      <trkpt lat="46.11638" lon="6.52272">
        <ele>767.75</ele>
        <time>2010-06-12T08:58:30Z</time>
      </trkpt>
      <trkpt lat="46.11638" lon="6.52267">
        <ele>768.23</ele>
        <time>2010-06-12T08:58:32Z</time>
      </trkpt>
      <trkpt lat="46.11639" lon="6.52265">
        <ele>768.71</ele>
        <time>2010-06-12T08:58:33Z</time>
      </trkpt>
      <trkpt lat="46.11639" lon="6.52263">
        <ele>769.19</ele>
        <time>2010-06-12T08:58:34Z</time>
      </trkpt>
      <trkpt lat="46.11639" lon="6.52261">
        <ele>769.19</ele>
        <time>2010-06-12T08:58:35Z</time>
      </trkpt>
      <trkpt lat="46.1164" lon="6.52259">
        <ele>769.19</ele>
        <time>2010-06-12T08:58:36Z</time>
      </trkpt>
      <trkpt lat="46.1164" lon="6.52257">
        <ele>769.67</ele>
        <time>2010-06-12T08:58:37Z</time>
      </trkpt>
      <trkpt lat="46.1164" lon="6.52254">
        <ele>769.67</ele>
        <time>2010-06-12T08:58:38Z</time>
      </trkpt>
      <trkpt lat="46.1164" lon="6.52252">
        <ele>770.15</ele>
        <time>2010-06-12T08:58:39Z</time>
      </trkpt>
      <trkpt lat="46.11641" lon="6.5225">
        <ele>770.15</ele>
        <time>2010-06-12T08:58:40Z</time>
      </trkpt>
      <trkpt lat="46.11641" lon="6.52248">
        <ele>770.63</ele>
        <time>2010-06-12T08:58:41Z</time>
      </trkpt>
      <trkpt lat="46.11642" lon="6.52246">
        <ele>770.63</ele>
        <time>2010-06-12T08:58:42Z</time>
      </trkpt>
      <trkpt lat="46.11643" lon="6.52245">
        <ele>771.11</ele>
        <time>2010-06-12T08:58:43Z</time>
      </trkpt>
      <trkpt lat="46.11644" lon="6.52243">
        <ele>771.6</ele>
        <time>2010-06-12T08:58:44Z</time>
      </trkpt>
      <trkpt lat="46.11644" lon="6.52241">
        <ele>772.08</ele>
        <time>2010-06-12T08:58:45Z</time>
      </trkpt>
      <trkpt lat="46.11645" lon="6.52239">
        <ele>771.6</ele>
        <time>2010-06-12T08:58:47Z</time>
      </trkpt>
      <trkpt lat="46.11647" lon="6.52236">
        <ele>772.56</ele>
        <time>2010-06-12T08:58:48Z</time>
      </trkpt>
      <trkpt lat="46.11648" lon="6.52235">
        <ele>772.56</ele>
        <time>2010-06-12T08:58:49Z</time>
      </trkpt>
      <trkpt lat="46.1165" lon="6.52229">
        <ele>773.52</ele>
        <time>2010-06-12T08:58:52Z</time>
      </trkpt>
      <trkpt lat="46.11651" lon="6.52228">
        <ele>773.52</ele>
        <time>2010-06-12T08:58:53Z</time>
      </trkpt>
      <trkpt lat="46.11652" lon="6.52226">
        <ele>774</ele>
        <time>2010-06-12T08:58:54Z</time>
      </trkpt>
      <trkpt lat="46.11653" lon="6.52224">
        <ele>774</ele>
        <time>2010-06-12T08:58:55Z</time>
      </trkpt>
      <trkpt lat="46.11653" lon="6.52222">
        <ele>774</ele>
        <time>2010-06-12T08:58:56Z</time>
      </trkpt>
      <trkpt lat="46.11654" lon="6.5222">
        <ele>774.48</ele>
        <time>2010-06-12T08:58:57Z</time>
      </trkpt>
      <trkpt lat="46.11655" lon="6.52219">
        <ele>774</ele>
        <time>2010-06-12T08:58:58Z</time>
      </trkpt>
      <trkpt lat="46.11656" lon="6.52217">
        <ele>774.48</ele>
        <time>2010-06-12T08:58:59Z</time>
      </trkpt>
      <trkpt lat="46.11657" lon="6.52216">
        <ele>774.96</ele>
        <time>2010-06-12T08:59:00Z</time>
      </trkpt>
      <trkpt lat="46.11657" lon="6.52214">
        <ele>774.96</ele>
        <time>2010-06-12T08:59:01Z</time>
      </trkpt>
      <trkpt lat="46.11658" lon="6.52212">
        <ele>774.96</ele>
        <time>2010-06-12T08:59:02Z</time>
      </trkpt>
      <trkpt lat="46.11659" lon="6.52211">
        <ele>775.44</ele>
        <time>2010-06-12T08:59:03Z</time>
      </trkpt>
      <trkpt lat="46.1166" lon="6.52209">
        <ele>774.96</ele>
        <time>2010-06-12T08:59:04Z</time>
      </trkpt>
      <trkpt lat="46.11661" lon="6.52208">
        <ele>775.44</ele>
        <time>2010-06-12T08:59:05Z</time>
      </trkpt>
      <trkpt lat="46.11663" lon="6.52206">
        <ele>776.4</ele>
        <time>2010-06-12T08:59:06Z</time>
      </trkpt>
      <trkpt lat="46.11664" lon="6.52204">
        <ele>775.92</ele>
        <time>2010-06-12T08:59:07Z</time>
      </trkpt>
      <trkpt lat="46.11665" lon="6.52203">
        <ele>775.92</ele>
        <time>2010-06-12T08:59:08Z</time>
      </trkpt>
      <trkpt lat="46.11682" lon="6.52183">
        <ele>778.81</ele>
        <time>2010-06-12T08:59:21Z</time>
      </trkpt>
      <trkpt lat="46.117" lon="6.52156">
        <ele>781.21</ele>
        <time>2010-06-12T08:59:37Z</time>
      </trkpt>
      <trkpt lat="46.11711" lon="6.52141">
        <ele>783.61</ele>
        <time>2010-06-12T08:59:48Z</time>
      </trkpt>
      <trkpt lat="46.11723" lon="6.5212">
        <ele>786.5</ele>
        <time>2010-06-12T09:00:01Z</time>
      </trkpt>
      <trkpt lat="46.11725" lon="6.52119">
        <ele>786.98</ele>
        <time>2010-06-12T09:00:02Z</time>
      </trkpt>
      <trkpt lat="46.11726" lon="6.52117">
        <ele>786.98</ele>
        <time>2010-06-12T09:00:03Z</time>
      </trkpt>
      <trkpt lat="46.11727" lon="6.52115">
        <ele>786.98</ele>
        <time>2010-06-12T09:00:04Z</time>
      </trkpt>
      <trkpt lat="46.11729" lon="6.52114">
        <ele>787.46</ele>
        <time>2010-06-12T09:00:05Z</time>
      </trkpt>
      <trkpt lat="46.11731" lon="6.52113">
        <ele>787.94</ele>
        <time>2010-06-12T09:00:06Z</time>
      </trkpt>
      <trkpt lat="46.1175" lon="6.52096">
        <ele>790.82</ele>
        <time>2010-06-12T09:00:20Z</time>
      </trkpt>
      <trkpt lat="46.11763" lon="6.52077">
        <ele>794.19</ele>
        <time>2010-06-12T09:00:32Z</time>
      </trkpt>
      <trkpt lat="46.1178" lon="6.52053">
        <ele>797.07</ele>
        <time>2010-06-12T09:00:47Z</time>
      </trkpt>
      <trkpt lat="46.11789" lon="6.52041">
        <ele>798.51</ele>
        <time>2010-06-12T09:00:54Z</time>
      </trkpt>
      <trkpt lat="46.1179" lon="6.5204">
        <ele>798.51</ele>
        <time>2010-06-12T09:00:55Z</time>
      </trkpt>
      <trkpt lat="46.11805" lon="6.52011">
        <ele>801.4</ele>
        <time>2010-06-12T09:01:11Z</time>
      </trkpt>
      <trkpt lat="46.11815" lon="6.51985">
        <ele>802.84</ele>
        <time>2010-06-12T09:01:26Z</time>
      </trkpt>
      <trkpt lat="46.11808" lon="6.5198">
        <ele>804.28</ele>
        <time>2010-06-12T09:01:34Z</time>
      </trkpt>
      <trkpt lat="46.11807" lon="6.51981">
        <ele>804.28</ele>
        <time>2010-06-12T09:01:35Z</time>
      </trkpt>
      <trkpt lat="46.11805" lon="6.51982">
        <ele>804.76</ele>
        <time>2010-06-12T09:01:36Z</time>
      </trkpt>
      <trkpt lat="46.11804" lon="6.51983">
        <ele>804.76</ele>
        <time>2010-06-12T09:01:37Z</time>
      </trkpt>
      <trkpt lat="46.11802" lon="6.51983">
        <ele>804.76</ele>
        <time>2010-06-12T09:01:38Z</time>
      </trkpt>
      <trkpt lat="46.11801" lon="6.51984">
        <ele>804.76</ele>
        <time>2010-06-12T09:01:39Z</time>
      </trkpt>
      <trkpt lat="46.11799" lon="6.51985">
        <ele>805.24</ele>
        <time>2010-06-12T09:01:40Z</time>
      </trkpt>
      <trkpt lat="46.11782" lon="6.51989">
        <ele>805.72</ele>
        <time>2010-06-12T09:01:51Z</time>
      </trkpt>
      <trkpt lat="46.11765" lon="6.51989">
        <ele>808.13</ele>
        <time>2010-06-12T09:02:02Z</time>
      </trkpt>
      <trkpt lat="46.11764" lon="6.51988">
        <ele>807.64</ele>
        <time>2010-06-12T09:02:03Z</time>
      </trkpt>
      <trkpt lat="46.11762" lon="6.51988">
        <ele>808.13</ele>
        <time>2010-06-12T09:02:04Z</time>
      </trkpt>
      <trkpt lat="46.11761" lon="6.51987">
        <ele>808.13</ele>
        <time>2010-06-12T09:02:05Z</time>
      </trkpt>
      <trkpt lat="46.1176" lon="6.51987">
        <ele>808.61</ele>
        <time>2010-06-12T09:02:06Z</time>
      </trkpt>
      <trkpt lat="46.11758" lon="6.51987">
        <ele>808.61</ele>
        <time>2010-06-12T09:02:07Z</time>
      </trkpt>
      <trkpt lat="46.11757" lon="6.51987">
        <ele>808.61</ele>
        <time>2010-06-12T09:02:08Z</time>
      </trkpt>
      <trkpt lat="46.11744" lon="6.51987">
        <ele>810.05</ele>
        <time>2010-06-12T09:02:18Z</time>
      </trkpt>
      <trkpt lat="46.11719" lon="6.51985">
        <ele>812.93</ele>
        <time>2010-06-12T09:02:34Z</time>
      </trkpt>
      <trkpt lat="46.11695" lon="6.51985">
        <ele>814.85</ele>
        <time>2010-06-12T09:02:48Z</time>
      </trkpt>
      <trkpt lat="46.11675" lon="6.51986">
        <ele>817.26</ele>
        <time>2010-06-12T09:03:00Z</time>
      </trkpt>
      <trkpt lat="46.11656" lon="6.51991">
        <ele>819.66</ele>
        <time>2010-06-12T09:03:14Z</time>
      </trkpt>
      <trkpt lat="46.11637" lon="6.51994">
        <ele>821.58</ele>
        <time>2010-06-12T09:03:27Z</time>
      </trkpt>
      <trkpt lat="46.11615" lon="6.51997">
        <ele>823.99</ele>
        <time>2010-06-12T09:03:42Z</time>
      </trkpt>
      <trkpt lat="46.11593" lon="6.52006">
        <ele>825.91</ele>
        <time>2010-06-12T09:03:57Z</time>
      </trkpt>
      <trkpt lat="46.11571" lon="6.52017">
        <ele>828.79</ele>
        <time>2010-06-12T09:04:12Z</time>
      </trkpt>
      <trkpt lat="46.11546" lon="6.52026">
        <ele>832.16</ele>
        <time>2010-06-12T09:04:27Z</time>
      </trkpt>
      <trkpt lat="46.11531" lon="6.52033">
        <ele>834.08</ele>
        <time>2010-06-12T09:04:39Z</time>
      </trkpt>
      <trkpt lat="46.1152" lon="6.5204">
        <ele>834.56</ele>
        <time>2010-06-12T09:04:50Z</time>
      </trkpt>
      <trkpt lat="46.11498" lon="6.52051">
        <ele>836</ele>
        <time>2010-06-12T09:05:03Z</time>
      </trkpt>
      <trkpt lat="46.1148" lon="6.52066">
        <ele>836.96</ele>
        <time>2010-06-12T09:05:16Z</time>
      </trkpt>
      <trkpt lat="46.11476" lon="6.52066">
        <ele>836.96</ele>
        <time>2010-06-12T09:05:18Z</time>
      </trkpt>
      <trkpt lat="46.11474" lon="6.52063">
        <ele>836.96</ele>
        <time>2010-06-12T09:05:19Z</time>
      </trkpt>
      <trkpt lat="46.11473" lon="6.52061">
        <ele>837.45</ele>
        <time>2010-06-12T09:05:20Z</time>
      </trkpt>
      <trkpt lat="46.11472" lon="6.52059">
        <ele>838.41</ele>
        <time>2010-06-12T09:05:21Z</time>
      </trkpt>
      <trkpt lat="46.11471" lon="6.52056">
        <ele>838.41</ele>
        <time>2010-06-12T09:05:22Z</time>
      </trkpt>
      <trkpt lat="46.11469" lon="6.52055">
        <ele>838.41</ele>
        <time>2010-06-12T09:05:23Z</time>
      </trkpt>
      <trkpt lat="46.11468" lon="6.52053">
        <ele>838.41</ele>
        <time>2010-06-12T09:05:24Z</time>
      </trkpt>
      <trkpt lat="46.11467" lon="6.52052">
        <ele>839.37</ele>
        <time>2010-06-12T09:05:25Z</time>
      </trkpt>
      <trkpt lat="46.11465" lon="6.5205">
        <ele>839.37</ele>
        <time>2010-06-12T09:05:26Z</time>
      </trkpt>
      <trkpt lat="46.11464" lon="6.52049">
        <ele>839.37</ele>
        <time>2010-06-12T09:05:27Z</time>
      </trkpt>
      <trkpt lat="46.11462" lon="6.52049">
        <ele>839.85</ele>
        <time>2010-06-12T09:05:28Z</time>
      </trkpt>
      <trkpt lat="46.11461" lon="6.52049">
        <ele>840.33</ele>
        <time>2010-06-12T09:05:29Z</time>
      </trkpt>
      <trkpt lat="46.1146" lon="6.52048">
        <ele>840.33</ele>
        <time>2010-06-12T09:05:30Z</time>
      </trkpt>
      <trkpt lat="46.11458" lon="6.52048">
        <ele>840.33</ele>
        <time>2010-06-12T09:05:31Z</time>
      </trkpt>
      <trkpt lat="46.11457" lon="6.52047">
        <ele>840.33</ele>
        <time>2010-06-12T09:05:32Z</time>
      </trkpt>
      <trkpt lat="46.11456" lon="6.52046">
        <ele>840.33</ele>
        <time>2010-06-12T09:05:33Z</time>
      </trkpt>
      <trkpt lat="46.11454" lon="6.52045">
        <ele>840.33</ele>
        <time>2010-06-12T09:05:34Z</time>
      </trkpt>
      <trkpt lat="46.11453" lon="6.52045">
        <ele>840.81</ele>
        <time>2010-06-12T09:05:35Z</time>
      </trkpt>
      <trkpt lat="46.11451" lon="6.52044">
        <ele>841.29</ele>
        <time>2010-06-12T09:05:36Z</time>
      </trkpt>
      <trkpt lat="46.11449" lon="6.52044">
        <ele>841.29</ele>
        <time>2010-06-12T09:05:37Z</time>
      </trkpt>
      <trkpt lat="46.11443" lon="6.52043">
        <ele>842.25</ele>
        <time>2010-06-12T09:05:41Z</time>
      </trkpt>
      <trkpt lat="46.11441" lon="6.52042">
        <ele>842.25</ele>
        <time>2010-06-12T09:05:43Z</time>
      </trkpt>
      <trkpt lat="46.1144" lon="6.52042">
        <ele>842.73</ele>
        <time>2010-06-12T09:05:44Z</time>
      </trkpt>
      <trkpt lat="46.11439" lon="6.52042">
        <ele>842.25</ele>
        <time>2010-06-12T09:05:45Z</time>
      </trkpt>
      <trkpt lat="46.11437" lon="6.52042">
        <ele>842.25</ele>
        <time>2010-06-12T09:05:46Z</time>
      </trkpt>
      <trkpt lat="46.11436" lon="6.52042">
        <ele>843.21</ele>
        <time>2010-06-12T09:05:47Z</time>
      </trkpt>
      <trkpt lat="46.11433" lon="6.52043">
        <ele>843.69</ele>
        <time>2010-06-12T09:05:49Z</time>
      </trkpt>
      <trkpt lat="46.11429" lon="6.52045">
        <ele>844.18</ele>
        <time>2010-06-12T09:05:53Z</time>
      </trkpt>
      <trkpt lat="46.11428" lon="6.52045">
        <ele>844.66</ele>
        <time>2010-06-12T09:05:54Z</time>
      </trkpt>
      <trkpt lat="46.11416" lon="6.5205">
        <ele>847.06</ele>
        <time>2010-06-12T09:06:07Z</time>
      </trkpt>
      <trkpt lat="46.11404" lon="6.52051">
        <ele>849.94</ele>
        <time>2010-06-12T09:06:19Z</time>
      </trkpt>
      <trkpt lat="46.11393" lon="6.52053">
        <ele>851.87</ele>
        <time>2010-06-12T09:06:28Z</time>
      </trkpt>
      <trkpt lat="46.1139" lon="6.52053">
        <ele>853.31</ele>
        <time>2010-06-12T09:06:40Z</time>
      </trkpt>
      <trkpt lat="46.11387" lon="6.52054">
        <ele>856.19</ele>
        <time>2010-06-12T09:06:55Z</time>
      </trkpt>
      <trkpt lat="46.11382" lon="6.52054">
        <ele>857.15</ele>
        <time>2010-06-12T09:07:11Z</time>
      </trkpt>
      <trkpt lat="46.11371" lon="6.52062">
        <ele>858.59</ele>
        <time>2010-06-12T09:07:26Z</time>
      </trkpt>
      <trkpt lat="46.11359" lon="6.52069">
        <ele>861</ele>
        <time>2010-06-12T09:07:39Z</time>
      </trkpt>
      <trkpt lat="46.11353" lon="6.52074">
        <ele>861.48</ele>
        <time>2010-06-12T09:07:45Z</time>
      </trkpt>
      <trkpt lat="46.11336" lon="6.5208">
        <ele>862.92</ele>
        <time>2010-06-12T09:07:58Z</time>
      </trkpt>
      <trkpt lat="46.11322" lon="6.52089">
        <ele>864.36</ele>
        <time>2010-06-12T09:08:07Z</time>
      </trkpt>
      <trkpt lat="46.11306" lon="6.52109">
        <ele>863.88</ele>
        <time>2010-06-12T09:08:18Z</time>
      </trkpt>
      <trkpt lat="46.11293" lon="6.52118">
        <ele>864.84</ele>
        <time>2010-06-12T09:08:25Z</time>
      </trkpt>
      <trkpt lat="46.11283" lon="6.52126">
        <ele>865.8</ele>
        <time>2010-06-12T09:08:34Z</time>
      </trkpt>
      <trkpt lat="46.11282" lon="6.52127">
        <ele>865.32</ele>
        <time>2010-06-12T09:08:35Z</time>
      </trkpt>
      <trkpt lat="46.1128" lon="6.52128">
        <ele>865.8</ele>
        <time>2010-06-12T09:08:36Z</time>
      </trkpt>
      <trkpt lat="46.11278" lon="6.52129">
        <ele>865.8</ele>
        <time>2010-06-12T09:08:37Z</time>
      </trkpt>
      <trkpt lat="46.11277" lon="6.5213">
        <ele>865.32</ele>
        <time>2010-06-12T09:08:38Z</time>
      </trkpt>
      <trkpt lat="46.11276" lon="6.52131">
        <ele>865.32</ele>
        <time>2010-06-12T09:08:39Z</time>
      </trkpt>
      <trkpt lat="46.11273" lon="6.52135">
        <ele>865.8</ele>
        <time>2010-06-12T09:08:43Z</time>
      </trkpt>
      <trkpt lat="46.11272" lon="6.52137">
        <ele>865.8</ele>
        <time>2010-06-12T09:08:44Z</time>
      </trkpt>
      <trkpt lat="46.1127" lon="6.5214">
        <ele>865.8</ele>
        <time>2010-06-12T09:08:45Z</time>
      </trkpt>
      <trkpt lat="46.11269" lon="6.52142">
        <ele>865.8</ele>
        <time>2010-06-12T09:08:46Z</time>
      </trkpt>
      <trkpt lat="46.11268" lon="6.52144">
        <ele>865.8</ele>
        <time>2010-06-12T09:08:47Z</time>
      </trkpt>
      <trkpt lat="46.11266" lon="6.52146">
        <ele>865.8</ele>
        <time>2010-06-12T09:08:48Z</time>
      </trkpt>
      <trkpt lat="46.11264" lon="6.52148">
        <ele>865.8</ele>
        <time>2010-06-12T09:08:49Z</time>
      </trkpt>
      <trkpt lat="46.11261" lon="6.52151">
        <ele>865.8</ele>
        <time>2010-06-12T09:08:50Z</time>
      </trkpt>
      <trkpt lat="46.11242" lon="6.52177">
        <ele>866.77</ele>
        <time>2010-06-12T09:08:58Z</time>
      </trkpt>
      <trkpt lat="46.11242" lon="6.52179">
        <ele>866.77</ele>
        <time>2010-06-12T09:08:59Z</time>
      </trkpt>
      <trkpt lat="46.11236" lon="6.52197">
        <ele>866.77</ele>
        <time>2010-06-12T09:09:05Z</time>
      </trkpt>
      <trkpt lat="46.1122" lon="6.52203">
        <ele>868.69</ele>
        <time>2010-06-12T09:09:12Z</time>
      </trkpt>
      <trkpt lat="46.11218" lon="6.52204">
        <ele>868.69</ele>
        <time>2010-06-12T09:09:13Z</time>
      </trkpt>
      <trkpt lat="46.11216" lon="6.52204">
        <ele>869.65</ele>
        <time>2010-06-12T09:09:14Z</time>
      </trkpt>
      <trkpt lat="46.11215" lon="6.52204">
        <ele>870.13</ele>
        <time>2010-06-12T09:09:15Z</time>
      </trkpt>
      <trkpt lat="46.11208" lon="6.52206">
        <ele>871.09</ele>
        <time>2010-06-12T09:09:27Z</time>
      </trkpt>
      <trkpt lat="46.112" lon="6.5221">
        <ele>873.98</ele>
        <time>2010-06-12T09:09:38Z</time>
      </trkpt>
      <trkpt lat="46.11186" lon="6.52216">
        <ele>875.9</ele>
        <time>2010-06-12T09:09:52Z</time>
      </trkpt>
      <trkpt lat="46.1118" lon="6.5222">
        <ele>876.38</ele>
        <time>2010-06-12T09:10:05Z</time>
      </trkpt>
      <trkpt lat="46.11179" lon="6.52221">
        <ele>877.34</ele>
        <time>2010-06-12T09:10:06Z</time>
      </trkpt>
      <trkpt lat="46.11178" lon="6.52222">
        <ele>877.34</ele>
        <time>2010-06-12T09:10:07Z</time>
      </trkpt>
      <trkpt lat="46.11176" lon="6.52223">
        <ele>877.34</ele>
        <time>2010-06-12T09:10:08Z</time>
      </trkpt>
      <trkpt lat="46.11172" lon="6.52228">
        <ele>877.82</ele>
        <time>2010-06-12T09:10:13Z</time>
      </trkpt>
      <trkpt lat="46.1117" lon="6.52233">
        <ele>878.78</ele>
        <time>2010-06-12T09:10:17Z</time>
      </trkpt>
      <trkpt lat="46.11166" lon="6.52237">
        <ele>880.71</ele>
        <time>2010-06-12T09:10:30Z</time>
      </trkpt>
      <trkpt lat="46.11157" lon="6.5224">
        <ele>883.11</ele>
        <time>2010-06-12T09:10:44Z</time>
      </trkpt>
      <trkpt lat="46.11152" lon="6.52238">
        <ele>885.03</ele>
        <time>2010-06-12T09:10:58Z</time>
      </trkpt>
      <trkpt lat="46.11149" lon="6.52232">
        <ele>886.95</ele>
        <time>2010-06-12T09:11:11Z</time>
      </trkpt>
      <trkpt lat="46.11147" lon="6.52218">
        <ele>889.84</ele>
        <time>2010-06-12T09:11:26Z</time>
      </trkpt>
      <trkpt lat="46.11141" lon="6.52215">
        <ele>891.28</ele>
        <time>2010-06-12T09:11:38Z</time>
      </trkpt>
      <trkpt lat="46.11139" lon="6.52216">
        <ele>893.68</ele>
        <time>2010-06-12T09:11:51Z</time>
      </trkpt>
      <trkpt lat="46.11134" lon="6.52217">
        <ele>896.09</ele>
        <time>2010-06-12T09:12:05Z</time>
      </trkpt>
      <trkpt lat="46.11127" lon="6.52221">
        <ele>898.49</ele>
        <time>2010-06-12T09:12:18Z</time>
      </trkpt>
      <trkpt lat="46.11114" lon="6.5223">
        <ele>900.41</ele>
        <time>2010-06-12T09:12:31Z</time>
      </trkpt>
      <trkpt lat="46.11102" lon="6.5224">
        <ele>902.33</ele>
        <time>2010-06-12T09:12:46Z</time>
      </trkpt>
      <trkpt lat="46.11098" lon="6.52247">
        <ele>903.78</ele>
        <time>2010-06-12T09:12:56Z</time>
      </trkpt>
      <trkpt lat="46.11096" lon="6.52251">
        <ele>904.26</ele>
        <time>2010-06-12T09:13:02Z</time>
      </trkpt>
      <trkpt lat="46.11093" lon="6.52259">
        <ele>905.7</ele>
        <time>2010-06-12T09:13:15Z</time>
      </trkpt>
      <trkpt lat="46.11085" lon="6.52265">
        <ele>907.62</ele>
        <time>2010-06-12T09:13:28Z</time>
      </trkpt>
      <trkpt lat="46.11073" lon="6.52277">
        <ele>910.51</ele>
        <time>2010-06-12T09:13:40Z</time>
      </trkpt>
      <trkpt lat="46.11066" lon="6.52286">
        <ele>911.95</ele>
        <time>2010-06-12T09:13:47Z</time>
      </trkpt>
      <trkpt lat="46.11064" lon="6.52288">
        <ele>911.95</ele>
        <time>2010-06-12T09:13:48Z</time>
      </trkpt>
      <trkpt lat="46.11061" lon="6.52291">
        <ele>912.43</ele>
        <time>2010-06-12T09:13:50Z</time>
      </trkpt>
      <trkpt lat="46.11049" lon="6.52306">
        <ele>915.79</ele>
        <time>2010-06-12T09:14:02Z</time>
      </trkpt>
      <trkpt lat="46.11043" lon="6.52315">
        <ele>917.24</ele>
        <time>2010-06-12T09:14:08Z</time>
      </trkpt>
      <trkpt lat="46.11036" lon="6.5232">
        <ele>918.68</ele>
        <time>2010-06-12T09:14:16Z</time>
      </trkpt>
      <trkpt lat="46.11036" lon="6.52313">
        <ele>919.16</ele>
        <time>2010-06-12T09:14:20Z</time>
      </trkpt>
      <trkpt lat="46.11035" lon="6.52303">
        <ele>920.6</ele>
        <time>2010-06-12T09:14:27Z</time>
      </trkpt>
      <trkpt lat="46.11037" lon="6.52273">
        <ele>923.48</ele>
        <time>2010-06-12T09:14:43Z</time>
      </trkpt>
      <trkpt lat="46.11035" lon="6.52256">
        <ele>926.37</ele>
        <time>2010-06-12T09:14:56Z</time>
      </trkpt>
      <trkpt lat="46.1104" lon="6.52235">
        <ele>927.33</ele>
        <time>2010-06-12T09:15:11Z</time>
      </trkpt>
      <trkpt lat="46.11046" lon="6.52213">
        <ele>927.81</ele>
        <time>2010-06-12T09:15:23Z</time>
      </trkpt>
      <trkpt lat="46.11046" lon="6.52201">
        <ele>928.77</ele>
        <time>2010-06-12T09:15:29Z</time>
      </trkpt>
      <trkpt lat="46.11047" lon="6.52194">
        <ele>930.21</ele>
        <time>2010-06-12T09:15:33Z</time>
      </trkpt>
      <trkpt lat="46.11044" lon="6.52191">
        <ele>930.69</ele>
        <time>2010-06-12T09:15:36Z</time>
      </trkpt>
      <trkpt lat="46.11039" lon="6.52199">
        <ele>932.14</ele>
        <time>2010-06-12T09:15:41Z</time>
      </trkpt>
      <trkpt lat="46.11033" lon="6.52207">
        <ele>932.62</ele>
        <time>2010-06-12T09:15:48Z</time>
      </trkpt>
      <trkpt lat="46.1102" lon="6.52221">
        <ele>934.54</ele>
        <time>2010-06-12T09:16:01Z</time>
      </trkpt>
      <trkpt lat="46.1102" lon="6.52223">
        <ele>935.02</ele>
        <time>2010-06-12T09:16:02Z</time>
      </trkpt>
      <trkpt lat="46.11008" lon="6.52239">
        <ele>936.46</ele>
        <time>2010-06-12T09:16:16Z</time>
      </trkpt>
      <trkpt lat="46.11001" lon="6.52249">
        <ele>938.38</ele>
        <time>2010-06-12T09:16:25Z</time>
      </trkpt>
      <trkpt lat="46.10985" lon="6.5226">
        <ele>941.27</ele>
        <time>2010-06-12T09:16:39Z</time>
      </trkpt>
      <trkpt lat="46.10977" lon="6.52262">
        <ele>943.19</ele>
        <time>2010-06-12T09:16:48Z</time>
      </trkpt>
      <trkpt lat="46.10973" lon="6.52258">
        <ele>944.63</ele>
        <time>2010-06-12T09:16:52Z</time>
      </trkpt>
      <trkpt lat="46.10972" lon="6.52247">
        <ele>945.59</ele>
        <time>2010-06-12T09:16:58Z</time>
      </trkpt>
      <trkpt lat="46.10963" lon="6.52243">
        <ele>948</ele>
        <time>2010-06-12T09:17:08Z</time>
      </trkpt>
      <trkpt lat="46.10945" lon="6.5224">
        <ele>948.96</ele>
        <time>2010-06-12T09:17:21Z</time>
      </trkpt>
      <trkpt lat="46.10939" lon="6.52233">
        <ele>950.88</ele>
        <time>2010-06-12T09:17:28Z</time>
      </trkpt>
      <trkpt lat="46.10931" lon="6.52227">
        <ele>951.36</ele>
        <time>2010-06-12T09:17:35Z</time>
      </trkpt>
      <trkpt lat="46.10923" lon="6.52215">
        <ele>952.32</ele>
        <time>2010-06-12T09:17:44Z</time>
      </trkpt>
      <trkpt lat="46.10917" lon="6.52208">
        <ele>953.28</ele>
        <time>2010-06-12T09:17:50Z</time>
      </trkpt>
      <trkpt lat="46.1091" lon="6.52199">
        <ele>953.77</ele>
        <time>2010-06-12T09:18:02Z</time>
      </trkpt>
      <trkpt lat="46.1091" lon="6.52199">
        <ele>954.25</ele>
        <time>2010-06-12T09:18:32Z</time>
      </trkpt>
      <trkpt lat="46.1091" lon="6.52199">
        <ele>953.77</ele>
        <time>2010-06-12T09:19:07Z</time>
      </trkpt>
      <trkpt lat="46.10909" lon="6.52196">
        <ele>954.25</ele>
        <time>2010-06-12T09:19:27Z</time>
      </trkpt>
      <trkpt lat="46.1091" lon="6.52195">
        <ele>954.25</ele>
        <time>2010-06-12T09:19:42Z</time>
      </trkpt>
      <trkpt lat="46.1091" lon="6.52195">
        <ele>953.28</ele>
        <time>2010-06-12T09:20:18Z</time>
      </trkpt>
      <trkpt lat="46.1091" lon="6.52195">
        <ele>953.77</ele>
        <time>2010-06-12T09:20:52Z</time>
      </trkpt>
      <trkpt lat="46.1091" lon="6.52195">
        <ele>954.25</ele>
        <time>2010-06-12T09:21:29Z</time>
      </trkpt>
      <trkpt lat="46.1091" lon="6.52195">
        <ele>954.25</ele>
        <time>2010-06-12T09:21:55Z</time>
      </trkpt>
      <trkpt lat="46.1091" lon="6.52194">
        <ele>953.77</ele>
        <time>2010-06-12T09:22:29Z</time>
      </trkpt>
      <trkpt lat="46.1091" lon="6.52194">
        <ele>953.28</ele>
        <time>2010-06-12T09:22:59Z</time>
      </trkpt>
      <trkpt lat="46.1091" lon="6.52194">
        <ele>953.77</ele>
        <time>2010-06-12T09:23:24Z</time>
      </trkpt>
      <trkpt lat="46.1091" lon="6.52194">
        <ele>953.77</ele>
        <time>2010-06-12T09:23:52Z</time>
      </trkpt>
      <trkpt lat="46.10911" lon="6.52194">
        <ele>953.77</ele>
        <time>2010-06-12T09:24:23Z</time>
      </trkpt>
      <trkpt lat="46.10911" lon="6.52194">
        <ele>953.77</ele>
        <time>2010-06-12T09:24:50Z</time>
      </trkpt>
      <trkpt lat="46.1091" lon="6.52194">
        <ele>953.28</ele>
        <time>2010-06-12T09:25:10Z</time>
      </trkpt>
      <trkpt lat="46.1091" lon="6.52193">
        <ele>953.77</ele>
        <time>2010-06-12T09:25:46Z</time>
      </trkpt>
      <trkpt lat="46.10909" lon="6.52193">
        <ele>954.25</ele>
        <time>2010-06-12T09:26:08Z</time>
      </trkpt>
      <trkpt lat="46.1091" lon="6.52193">
        <ele>953.77</ele>
        <time>2010-06-12T09:26:44Z</time>
      </trkpt>
      <trkpt lat="46.10909" lon="6.52193">
        <ele>953.77</ele>
        <time>2010-06-12T09:27:19Z</time>
      </trkpt>
      <trkpt lat="46.10909" lon="6.52193">
        <ele>953.77</ele>
        <time>2010-06-12T09:27:40Z</time>
      </trkpt>
      <trkpt lat="46.10908" lon="6.52194">
        <ele>953.77</ele>
        <time>2010-06-12T09:27:59Z</time>
      </trkpt>
      <trkpt lat="46.10908" lon="6.52194">
        <ele>953.28</ele>
        <time>2010-06-12T09:28:30Z</time>
      </trkpt>
      <trkpt lat="46.10907" lon="6.52192">
        <ele>953.28</ele>
        <time>2010-06-12T09:29:05Z</time>
      </trkpt>
      <trkpt lat="46.10905" lon="6.5219">
        <ele>953.77</ele>
        <time>2010-06-12T09:29:14Z</time>
      </trkpt>
      <trkpt lat="46.10904" lon="6.52184">
        <ele>954.25</ele>
        <time>2010-06-12T09:29:17Z</time>
      </trkpt>
      <trkpt lat="46.10888" lon="6.52156">
        <ele>952.8</ele>
        <time>2010-06-12T09:29:30Z</time>
      </trkpt>
      <trkpt lat="46.10866" lon="6.52126">
        <ele>952.32</ele>
        <time>2010-06-12T09:29:42Z</time>
      </trkpt>
      <trkpt lat="46.10841" lon="6.52112">
        <ele>952.32</ele>
        <time>2010-06-12T09:29:56Z</time>
      </trkpt>
      <trkpt lat="46.1082" lon="6.52122">
        <ele>949.92</ele>
        <time>2010-06-12T09:30:02Z</time>
      </trkpt>
      <trkpt lat="46.10805" lon="6.52142">
        <ele>948</ele>
        <time>2010-06-12T09:30:06Z</time>
      </trkpt>
      <trkpt lat="46.10786" lon="6.52172">
        <ele>951.36</ele>
        <time>2010-06-12T09:30:14Z</time>
      </trkpt>
      <trkpt lat="46.10763" lon="6.52204">
        <ele>953.77</ele>
        <time>2010-06-12T09:30:31Z</time>
      </trkpt>
      <trkpt lat="46.10743" lon="6.52221">
        <ele>956.65</ele>
        <time>2010-06-12T09:30:46Z</time>
      </trkpt>
      <trkpt lat="46.10726" lon="6.52238">
        <ele>958.57</ele>
        <time>2010-06-12T09:30:59Z</time>
      </trkpt>
      <trkpt lat="46.10706" lon="6.52265">
        <ele>960.01</ele>
        <time>2010-06-12T09:31:13Z</time>
      </trkpt>
      <trkpt lat="46.10684" lon="6.52306">
        <ele>961.46</ele>
        <time>2010-06-12T09:31:28Z</time>
      </trkpt>
      <trkpt lat="46.10668" lon="6.52327">
        <ele>962.42</ele>
        <time>2010-06-12T09:31:38Z</time>
      </trkpt>
      <trkpt lat="46.10646" lon="6.52338">
        <ele>963.86</ele>
        <time>2010-06-12T09:31:50Z</time>
      </trkpt>
      <trkpt lat="46.10609" lon="6.52359">
        <ele>964.34</ele>
        <time>2010-06-12T09:32:02Z</time>
      </trkpt>
      <trkpt lat="46.10589" lon="6.52399">
        <ele>964.82</ele>
        <time>2010-06-12T09:32:14Z</time>
      </trkpt>
      <trkpt lat="46.10573" lon="6.52454">
        <ele>966.26</ele>
        <time>2010-06-12T09:32:28Z</time>
      </trkpt>
      <trkpt lat="46.1055" lon="6.52495">
        <ele>967.22</ele>
        <time>2010-06-12T09:32:40Z</time>
      </trkpt>
      <trkpt lat="46.10549" lon="6.525">
        <ele>966.74</ele>
        <time>2010-06-12T09:32:41Z</time>
      </trkpt>
      <trkpt lat="46.1055" lon="6.52506">
        <ele>966.74</ele>
        <time>2010-06-12T09:32:42Z</time>
      </trkpt>
      <trkpt lat="46.10551" lon="6.5251">
        <ele>967.22</ele>
        <time>2010-06-12T09:32:43Z</time>
      </trkpt>
      <trkpt lat="46.10553" lon="6.52514">
        <ele>967.22</ele>
        <time>2010-06-12T09:32:44Z</time>
      </trkpt>
      <trkpt lat="46.10554" lon="6.52518">
        <ele>967.22</ele>
        <time>2010-06-12T09:32:45Z</time>
      </trkpt>
      <trkpt lat="46.10563" lon="6.52551">
        <ele>970.11</ele>
        <time>2010-06-12T09:32:54Z</time>
      </trkpt>
      <trkpt lat="46.10579" lon="6.52598">
        <ele>971.55</ele>
        <time>2010-06-12T09:33:09Z</time>
      </trkpt>
      <trkpt lat="46.10569" lon="6.52647">
        <ele>972.51</ele>
        <time>2010-06-12T09:33:22Z</time>
      </trkpt>
      <trkpt lat="46.10568" lon="6.52651">
        <ele>972.99</ele>
        <time>2010-06-12T09:33:23Z</time>
      </trkpt>
      <trkpt lat="46.10567" lon="6.52654">
        <ele>972.03</ele>
        <time>2010-06-12T09:33:24Z</time>
      </trkpt>
      <trkpt lat="46.10567" lon="6.52718">
        <ele>973.47</ele>
        <time>2010-06-12T09:33:40Z</time>
      </trkpt>
      <trkpt lat="46.10556" lon="6.52759">
        <ele>974.43</ele>
        <time>2010-06-12T09:33:51Z</time>
      </trkpt>
      <trkpt lat="46.1055" lon="6.52764">
        <ele>975.39</ele>
        <time>2010-06-12T09:33:54Z</time>
      </trkpt>
      <trkpt lat="46.10525" lon="6.52785">
        <ele>978.76</ele>
        <time>2010-06-12T09:34:07Z</time>
      </trkpt>
      <trkpt lat="46.1051" lon="6.52815">
        <ele>980.68</ele>
        <time>2010-06-12T09:34:18Z</time>
      </trkpt>
      <trkpt lat="46.1051" lon="6.5285">
        <ele>982.6</ele>
        <time>2010-06-12T09:34:29Z</time>
      </trkpt>
      <trkpt lat="46.10509" lon="6.52857">
        <ele>983.09</ele>
        <time>2010-06-12T09:34:31Z</time>
      </trkpt>
      <trkpt lat="46.10508" lon="6.5286">
        <ele>983.09</ele>
        <time>2010-06-12T09:34:32Z</time>
      </trkpt>
      <trkpt lat="46.10503" lon="6.52903">
        <ele>985.97</ele>
        <time>2010-06-12T09:34:45Z</time>
      </trkpt>
      <trkpt lat="46.10491" lon="6.52932">
        <ele>988.85</ele>
        <time>2010-06-12T09:34:57Z</time>
      </trkpt>
      <trkpt lat="46.10477" lon="6.52954">
        <ele>990.3</ele>
        <time>2010-06-12T09:35:09Z</time>
      </trkpt>
      <trkpt lat="46.10471" lon="6.52983">
        <ele>991.26</ele>
        <time>2010-06-12T09:35:20Z</time>
      </trkpt>
      <trkpt lat="46.10472" lon="6.52993">
        <ele>990.78</ele>
        <time>2010-06-12T09:35:23Z</time>
      </trkpt>
      <trkpt lat="46.10473" lon="6.52996">
        <ele>991.26</ele>
        <time>2010-06-12T09:35:24Z</time>
      </trkpt>
      <trkpt lat="46.10477" lon="6.53052">
        <ele>991.74</ele>
        <time>2010-06-12T09:35:38Z</time>
      </trkpt>
      <trkpt lat="46.10482" lon="6.53117">
        <ele>993.18</ele>
        <time>2010-06-12T09:35:55Z</time>
      </trkpt>
      <trkpt lat="46.10487" lon="6.53175">
        <ele>994.14</ele>
        <time>2010-06-12T09:36:09Z</time>
      </trkpt>
      <trkpt lat="46.10488" lon="6.53182">
        <ele>993.66</ele>
        <time>2010-06-12T09:36:12Z</time>
      </trkpt>
      <trkpt lat="46.10489" lon="6.53185">
        <ele>993.66</ele>
        <time>2010-06-12T09:36:13Z</time>
      </trkpt>
      <trkpt lat="46.10489" lon="6.53187">
        <ele>993.66</ele>
        <time>2010-06-12T09:36:14Z</time>
      </trkpt>
      <trkpt lat="46.1049" lon="6.5319">
        <ele>994.14</ele>
        <time>2010-06-12T09:36:15Z</time>
      </trkpt>
      <trkpt lat="46.10492" lon="6.53193">
        <ele>993.66</ele>
        <time>2010-06-12T09:36:16Z</time>
      </trkpt>
      <trkpt lat="46.10493" lon="6.53197">
        <ele>993.18</ele>
        <time>2010-06-12T09:36:17Z</time>
      </trkpt>
      <trkpt lat="46.10493" lon="6.53201">
        <ele>993.18</ele>
        <time>2010-06-12T09:36:18Z</time>
      </trkpt>
      <trkpt lat="46.10493" lon="6.53204">
        <ele>993.18</ele>
        <time>2010-06-12T09:36:19Z</time>
      </trkpt>
      <trkpt lat="46.10493" lon="6.53207">
        <ele>993.18</ele>
        <time>2010-06-12T09:36:20Z</time>
      </trkpt>
      <trkpt lat="46.10493" lon="6.5321">
        <ele>992.7</ele>
        <time>2010-06-12T09:36:21Z</time>
      </trkpt>
      <trkpt lat="46.10496" lon="6.53225">
        <ele>993.18</ele>
        <time>2010-06-12T09:36:26Z</time>
      </trkpt>
      <trkpt lat="46.10498" lon="6.5323">
        <ele>993.66</ele>
        <time>2010-06-12T09:36:28Z</time>
      </trkpt>
      <trkpt lat="46.10498" lon="6.53232">
        <ele>993.66</ele>
        <time>2010-06-12T09:36:29Z</time>
      </trkpt>
      <trkpt lat="46.10499" lon="6.53235">
        <ele>993.18</ele>
        <time>2010-06-12T09:36:30Z</time>
      </trkpt>
      <trkpt lat="46.10499" lon="6.53238">
        <ele>993.18</ele>
        <time>2010-06-12T09:36:31Z</time>
      </trkpt>
      <trkpt lat="46.10498" lon="6.53241">
        <ele>993.18</ele>
        <time>2010-06-12T09:36:32Z</time>
      </trkpt>
      <trkpt lat="46.10499" lon="6.53244">
        <ele>993.18</ele>
        <time>2010-06-12T09:36:33Z</time>
      </trkpt>
      <trkpt lat="46.10499" lon="6.53246">
        <ele>993.18</ele>
        <time>2010-06-12T09:36:34Z</time>
      </trkpt>
      <trkpt lat="46.10498" lon="6.53249">
        <ele>993.66</ele>
        <time>2010-06-12T09:36:35Z</time>
      </trkpt>
      <trkpt lat="46.10498" lon="6.53252">
        <ele>993.18</ele>
        <time>2010-06-12T09:36:36Z</time>
      </trkpt>
      <trkpt lat="46.10507" lon="6.53315">
        <ele>990.3</ele>
        <time>2010-06-12T09:36:51Z</time>
      </trkpt>
      <trkpt lat="46.10506" lon="6.53328">
        <ele>989.81</ele>
        <time>2010-06-12T09:36:53Z</time>
      </trkpt>
      <trkpt lat="46.10507" lon="6.53336">
        <ele>989.33</ele>
        <time>2010-06-12T09:36:54Z</time>
      </trkpt>
      <trkpt lat="46.10507" lon="6.53344">
        <ele>988.85</ele>
        <time>2010-06-12T09:36:55Z</time>
      </trkpt>
      <trkpt lat="46.10507" lon="6.53369">
        <ele>987.41</ele>
        <time>2010-06-12T09:36:58Z</time>
      </trkpt>
      <trkpt lat="46.10505" lon="6.53394">
        <ele>986.45</ele>
        <time>2010-06-12T09:37:01Z</time>
      </trkpt>
      <trkpt lat="46.10503" lon="6.53411">
        <ele>985.01</ele>
        <time>2010-06-12T09:37:03Z</time>
      </trkpt>
      <trkpt lat="46.105" lon="6.53457">
        <ele>981.16</ele>
        <time>2010-06-12T09:37:08Z</time>
      </trkpt>
      <trkpt lat="46.105" lon="6.53487">
        <ele>978.28</ele>
        <time>2010-06-12T09:37:11Z</time>
      </trkpt>
      <trkpt lat="46.105" lon="6.5351">
        <ele>975.88</ele>
        <time>2010-06-12T09:37:13Z</time>
      </trkpt>
      <trkpt lat="46.10495" lon="6.53569">
        <ele>974.43</ele>
        <time>2010-06-12T09:37:17Z</time>
      </trkpt>
      <trkpt lat="46.10492" lon="6.53581">
        <ele>974.43</ele>
        <time>2010-06-12T09:37:18Z</time>
      </trkpt>
      <trkpt lat="46.10489" lon="6.53592">
        <ele>974.43</ele>
        <time>2010-06-12T09:37:19Z</time>
      </trkpt>
      <trkpt lat="46.10453" lon="6.53675">
        <ele>971.07</ele>
        <time>2010-06-12T09:37:27Z</time>
      </trkpt>
      <trkpt lat="46.10419" lon="6.53772">
        <ele>970.59</ele>
        <time>2010-06-12T09:37:37Z</time>
      </trkpt>
      <trkpt lat="46.10416" lon="6.53778">
        <ele>971.07</ele>
        <time>2010-06-12T09:37:38Z</time>
      </trkpt>
      <trkpt lat="46.10409" lon="6.53794">
        <ele>971.55</ele>
        <time>2010-06-12T09:37:41Z</time>
      </trkpt>
      <trkpt lat="46.10407" lon="6.538">
        <ele>971.55</ele>
        <time>2010-06-12T09:37:42Z</time>
      </trkpt>
      <trkpt lat="46.10406" lon="6.53805">
        <ele>972.03</ele>
        <time>2010-06-12T09:37:43Z</time>
      </trkpt>
      <trkpt lat="46.10405" lon="6.53809">
        <ele>972.03</ele>
        <time>2010-06-12T09:37:44Z</time>
      </trkpt>
      <trkpt lat="46.10405" lon="6.53815">
        <ele>971.55</ele>
        <time>2010-06-12T09:37:45Z</time>
      </trkpt>
      <trkpt lat="46.10405" lon="6.53819">
        <ele>972.03</ele>
        <time>2010-06-12T09:37:46Z</time>
      </trkpt>
      <trkpt lat="46.10397" lon="6.53853">
        <ele>972.99</ele>
        <time>2010-06-12T09:37:57Z</time>
      </trkpt>
      <trkpt lat="46.10395" lon="6.53857">
        <ele>973.47</ele>
        <time>2010-06-12T09:37:59Z</time>
      </trkpt>
      <trkpt lat="46.1039" lon="6.5387">
        <ele>972.51</ele>
        <time>2010-06-12T09:38:04Z</time>
      </trkpt>
      <trkpt lat="46.1037" lon="6.53913">
        <ele>971.07</ele>
        <time>2010-06-12T09:38:12Z</time>
      </trkpt>
      <trkpt lat="46.10335" lon="6.53959">
        <ele>968.18</ele>
        <time>2010-06-12T09:38:19Z</time>
      </trkpt>
      <trkpt lat="46.10325" lon="6.53973">
        <ele>967.22</ele>
        <time>2010-06-12T09:38:21Z</time>
      </trkpt>
      <trkpt lat="46.10319" lon="6.53979">
        <ele>967.7</ele>
        <time>2010-06-12T09:38:22Z</time>
      </trkpt>
      <trkpt lat="46.10313" lon="6.53983">
        <ele>967.7</ele>
        <time>2010-06-12T09:38:23Z</time>
      </trkpt>
      <trkpt lat="46.10302" lon="6.53992">
        <ele>967.22</ele>
        <time>2010-06-12T09:38:25Z</time>
      </trkpt>
      <trkpt lat="46.10298" lon="6.53997">
        <ele>966.26</ele>
        <time>2010-06-12T09:38:26Z</time>
      </trkpt>
      <trkpt lat="46.10295" lon="6.54002">
        <ele>967.22</ele>
        <time>2010-06-12T09:38:27Z</time>
      </trkpt>
      <trkpt lat="46.10292" lon="6.54008">
        <ele>966.74</ele>
        <time>2010-06-12T09:38:28Z</time>
      </trkpt>
      <trkpt lat="46.1029" lon="6.54013">
        <ele>966.74</ele>
        <time>2010-06-12T09:38:29Z</time>
      </trkpt>
      <trkpt lat="46.10288" lon="6.54018">
        <ele>966.74</ele>
        <time>2010-06-12T09:38:30Z</time>
      </trkpt>
      <trkpt lat="46.10286" lon="6.54022">
        <ele>966.74</ele>
        <time>2010-06-12T09:38:31Z</time>
      </trkpt>
      <trkpt lat="46.10284" lon="6.54025">
        <ele>966.74</ele>
        <time>2010-06-12T09:38:32Z</time>
      </trkpt>
      <trkpt lat="46.10282" lon="6.54027">
        <ele>967.22</ele>
        <time>2010-06-12T09:38:33Z</time>
      </trkpt>
      <trkpt lat="46.10281" lon="6.54028">
        <ele>966.74</ele>
        <time>2010-06-12T09:38:34Z</time>
      </trkpt>
      <trkpt lat="46.1028" lon="6.5403">
        <ele>966.26</ele>
        <time>2010-06-12T09:38:48Z</time>
      </trkpt>
      <trkpt lat="46.10278" lon="6.54032">
        <ele>965.78</ele>
        <time>2010-06-12T09:38:56Z</time>
      </trkpt>
      <trkpt lat="46.10269" lon="6.54035">
        <ele>964.82</ele>
        <time>2010-06-12T09:39:00Z</time>
      </trkpt>
      <trkpt lat="46.10267" lon="6.54032">
        <ele>965.3</ele>
        <time>2010-06-12T09:39:01Z</time>
      </trkpt>
      <trkpt lat="46.10266" lon="6.54028">
        <ele>964.82</ele>
        <time>2010-06-12T09:39:02Z</time>
      </trkpt>
      <trkpt lat="46.10264" lon="6.54024">
        <ele>965.3</ele>
        <time>2010-06-12T09:39:03Z</time>
      </trkpt>
      <trkpt lat="46.10263" lon="6.5402">
        <ele>965.3</ele>
        <time>2010-06-12T09:39:04Z</time>
      </trkpt>
      <trkpt lat="46.10261" lon="6.54016">
        <ele>965.3</ele>
        <time>2010-06-12T09:39:05Z</time>
      </trkpt>
      <trkpt lat="46.10255" lon="6.53996">
        <ele>963.86</ele>
        <time>2010-06-12T09:39:10Z</time>
      </trkpt>
      <trkpt lat="46.1025" lon="6.53986">
        <ele>963.86</ele>
        <time>2010-06-12T09:39:11Z</time>
      </trkpt>
      <trkpt lat="46.10244" lon="6.53976">
        <ele>963.38</ele>
        <time>2010-06-12T09:39:13Z</time>
      </trkpt>
      <trkpt lat="46.10237" lon="6.53967">
        <ele>963.38</ele>
        <time>2010-06-12T09:39:15Z</time>
      </trkpt>
      <trkpt lat="46.10233" lon="6.53964">
        <ele>962.9</ele>
        <time>2010-06-12T09:39:16Z</time>
      </trkpt>
      <trkpt lat="46.10228" lon="6.53961">
        <ele>963.38</ele>
        <time>2010-06-12T09:39:17Z</time>
      </trkpt>
      <trkpt lat="46.10177" lon="6.53922">
        <ele>961.46</ele>
        <time>2010-06-12T09:39:29Z</time>
      </trkpt>
      <trkpt lat="46.10175" lon="6.53917">
        <ele>961.94</ele>
        <time>2010-06-12T09:39:30Z</time>
      </trkpt>
      <trkpt lat="46.10167" lon="6.53875">
        <ele>960.98</ele>
        <time>2010-06-12T09:39:37Z</time>
      </trkpt>
      <trkpt lat="46.10169" lon="6.53853">
        <ele>959.53</ele>
        <time>2010-06-12T09:39:40Z</time>
      </trkpt>
      <trkpt lat="46.10168" lon="6.53846">
        <ele>959.05</ele>
        <time>2010-06-12T09:39:41Z</time>
      </trkpt>
      <trkpt lat="46.10166" lon="6.5384">
        <ele>958.09</ele>
        <time>2010-06-12T09:39:42Z</time>
      </trkpt>
      <trkpt lat="46.10164" lon="6.53833">
        <ele>957.13</ele>
        <time>2010-06-12T09:39:43Z</time>
      </trkpt>
      <trkpt lat="46.1016" lon="6.53828">
        <ele>957.13</ele>
        <time>2010-06-12T09:39:44Z</time>
      </trkpt>
      <trkpt lat="46.10156" lon="6.53827">
        <ele>956.17</ele>
        <time>2010-06-12T09:39:45Z</time>
      </trkpt>
      <trkpt lat="46.10151" lon="6.53827">
        <ele>955.69</ele>
        <time>2010-06-12T09:39:46Z</time>
      </trkpt>
      <trkpt lat="46.10148" lon="6.53829">
        <ele>954.73</ele>
        <time>2010-06-12T09:39:47Z</time>
      </trkpt>
      <trkpt lat="46.10144" lon="6.53831">
        <ele>953.28</ele>
        <time>2010-06-12T09:39:48Z</time>
      </trkpt>
      <trkpt lat="46.1014" lon="6.53836">
        <ele>952.8</ele>
        <time>2010-06-12T09:39:49Z</time>
      </trkpt>
      <trkpt lat="46.10136" lon="6.53843">
        <ele>951.84</ele>
        <time>2010-06-12T09:39:50Z</time>
      </trkpt>
      <trkpt lat="46.10131" lon="6.53854">
        <ele>950.88</ele>
        <time>2010-06-12T09:39:51Z</time>
      </trkpt>
      <trkpt lat="46.10109" lon="6.53899">
        <ele>947.52</ele>
        <time>2010-06-12T09:39:55Z</time>
      </trkpt>
      <trkpt lat="46.10087" lon="6.53933">
        <ele>943.67</ele>
        <time>2010-06-12T09:39:58Z</time>
      </trkpt>
      <trkpt lat="46.1007" lon="6.53957">
        <ele>940.79</ele>
        <time>2010-06-12T09:40:00Z</time>
      </trkpt>
      <trkpt lat="46.10047" lon="6.53983">
        <ele>936.94</ele>
        <time>2010-06-12T09:40:02Z</time>
      </trkpt>
      <trkpt lat="46.10035" lon="6.53993">
        <ele>935.98</ele>
        <time>2010-06-12T09:40:03Z</time>
      </trkpt>
      <trkpt lat="46.1" lon="6.54024">
        <ele>931.65</ele>
        <time>2010-06-12T09:40:06Z</time>
      </trkpt>
      <trkpt lat="46.0999" lon="6.54037">
        <ele>930.21</ele>
        <time>2010-06-12T09:40:07Z</time>
      </trkpt>
      <trkpt lat="46.0998" lon="6.54051">
        <ele>928.77</ele>
        <time>2010-06-12T09:40:08Z</time>
      </trkpt>
      <trkpt lat="46.09951" lon="6.54098">
        <ele>925.41</ele>
        <time>2010-06-12T09:40:13Z</time>
      </trkpt>
      <trkpt lat="46.09938" lon="6.54107">
        <ele>923</ele>
        <time>2010-06-12T09:40:14Z</time>
      </trkpt>
      <trkpt lat="46.0993" lon="6.54109">
        <ele>922.04</ele>
        <time>2010-06-12T09:40:15Z</time>
      </trkpt>
      <trkpt lat="46.09908" lon="6.54111">
        <ele>920.12</ele>
        <time>2010-06-12T09:40:18Z</time>
      </trkpt>
      <trkpt lat="46.099" lon="6.54114">
        <ele>920.12</ele>
        <time>2010-06-12T09:40:24Z</time>
      </trkpt>
      <trkpt lat="46.099" lon="6.54114">
        <ele>920.12</ele>
        <time>2010-06-12T09:40:48Z</time>
      </trkpt>
      <trkpt lat="46.09901" lon="6.54112">
        <ele>919.16</ele>
        <time>2010-06-12T09:40:55Z</time>
      </trkpt>
      <trkpt lat="46.09901" lon="6.5411">
        <ele>919.16</ele>
        <time>2010-06-12T09:40:56Z</time>
      </trkpt>
      <trkpt lat="46.09901" lon="6.54109">
        <ele>918.68</ele>
        <time>2010-06-12T09:40:57Z</time>
      </trkpt>
      <trkpt lat="46.09901" lon="6.54106">
        <ele>918.68</ele>
        <time>2010-06-12T09:40:58Z</time>
      </trkpt>
      <trkpt lat="46.09906" lon="6.54099">
        <ele>919.64</ele>
        <time>2010-06-12T09:41:08Z</time>
      </trkpt>
      <trkpt lat="46.09909" lon="6.54093">
        <ele>919.64</ele>
        <time>2010-06-12T09:41:23Z</time>
      </trkpt>
      <trkpt lat="46.0991" lon="6.54094">
        <ele>918.2</ele>
        <time>2010-06-12T09:41:31Z</time>
      </trkpt>
      <trkpt lat="46.09911" lon="6.54095">
        <ele>918.2</ele>
        <time>2010-06-12T09:41:32Z</time>
      </trkpt>
      <trkpt lat="46.09914" lon="6.54101">
        <ele>919.16</ele>
        <time>2010-06-12T09:41:38Z</time>
      </trkpt>
      <trkpt lat="46.09914" lon="6.54111">
        <ele>919.16</ele>
        <time>2010-06-12T09:41:44Z</time>
      </trkpt>
      <trkpt lat="46.09904" lon="6.54115">
        <ele>917.24</ele>
        <time>2010-06-12T09:41:48Z</time>
      </trkpt>
      <trkpt lat="46.09897" lon="6.54127">
        <ele>912.91</ele>
        <time>2010-06-12T09:41:52Z</time>
      </trkpt>
      <trkpt lat="46.09894" lon="6.54136">
        <ele>911.47</ele>
        <time>2010-06-12T09:41:54Z</time>
      </trkpt>
      <trkpt lat="46.09889" lon="6.54148">
        <ele>908.1</ele>
        <time>2010-06-12T09:41:57Z</time>
      </trkpt>
      <trkpt lat="46.09882" lon="6.54164">
        <ele>906.18</ele>
        <time>2010-06-12T09:42:00Z</time>
      </trkpt>
      <trkpt lat="46.09875" lon="6.54175">
        <ele>905.7</ele>
        <time>2010-06-12T09:42:01Z</time>
      </trkpt>
      <trkpt lat="46.09865" lon="6.54189">
        <ele>904.26</ele>
        <time>2010-06-12T09:42:02Z</time>
      </trkpt>
      <trkpt lat="46.09841" lon="6.54198">
        <ele>902.33</ele>
        <time>2010-06-12T09:42:05Z</time>
      </trkpt>
      <trkpt lat="46.09833" lon="6.542">
        <ele>902.33</ele>
        <time>2010-06-12T09:42:06Z</time>
      </trkpt>
      <trkpt lat="46.0983" lon="6.54195">
        <ele>901.85</ele>
        <time>2010-06-12T09:42:07Z</time>
      </trkpt>
      <trkpt lat="46.09829" lon="6.54187">
        <ele>901.37</ele>
        <time>2010-06-12T09:42:08Z</time>
      </trkpt>
      <trkpt lat="46.09829" lon="6.54179">
        <ele>900.41</ele>
        <time>2010-06-12T09:42:09Z</time>
      </trkpt>
      <trkpt lat="46.09828" lon="6.54171">
        <ele>899.93</ele>
        <time>2010-06-12T09:42:10Z</time>
      </trkpt>
      <trkpt lat="46.09828" lon="6.54161">
        <ele>898.97</ele>
        <time>2010-06-12T09:42:11Z</time>
      </trkpt>
      <trkpt lat="46.09826" lon="6.5415">
        <ele>897.53</ele>
        <time>2010-06-12T09:42:12Z</time>
      </trkpt>
      <trkpt lat="46.09822" lon="6.54127">
        <ele>896.09</ele>
        <time>2010-06-12T09:42:14Z</time>
      </trkpt>
      <trkpt lat="46.09822" lon="6.54114">
        <ele>895.12</ele>
        <time>2010-06-12T09:42:15Z</time>
      </trkpt>
      <trkpt lat="46.09824" lon="6.54102">
        <ele>894.64</ele>
        <time>2010-06-12T09:42:16Z</time>
      </trkpt>
      <trkpt lat="46.09828" lon="6.54067">
        <ele>891.76</ele>
        <time>2010-06-12T09:42:19Z</time>
      </trkpt>
      <trkpt lat="46.09829" lon="6.54043">
        <ele>889.84</ele>
        <time>2010-06-12T09:42:21Z</time>
      </trkpt>
      <trkpt lat="46.09828" lon="6.53984">
        <ele>885.51</ele>
        <time>2010-06-12T09:42:26Z</time>
      </trkpt>
      <trkpt lat="46.09829" lon="6.53973">
        <ele>885.51</ele>
        <time>2010-06-12T09:42:27Z</time>
      </trkpt>
      <trkpt lat="46.09832" lon="6.53962">
        <ele>884.07</ele>
        <time>2010-06-12T09:42:28Z</time>
      </trkpt>
      <trkpt lat="46.09836" lon="6.53954">
        <ele>883.59</ele>
        <time>2010-06-12T09:42:29Z</time>
      </trkpt>
      <trkpt lat="46.0984" lon="6.53946">
        <ele>882.63</ele>
        <time>2010-06-12T09:42:30Z</time>
      </trkpt>
      <trkpt lat="46.09844" lon="6.53939">
        <ele>881.67</ele>
        <time>2010-06-12T09:42:31Z</time>
      </trkpt>
      <trkpt lat="46.09849" lon="6.53933">
        <ele>880.71</ele>
        <time>2010-06-12T09:42:32Z</time>
      </trkpt>
      <trkpt lat="46.09858" lon="6.53922">
        <ele>878.3</ele>
        <time>2010-06-12T09:42:34Z</time>
      </trkpt>
      <trkpt lat="46.09866" lon="6.53921">
        <ele>878.3</ele>
        <time>2010-06-12T09:42:35Z</time>
      </trkpt>
      <trkpt lat="46.09878" lon="6.5391">
        <ele>875.9</ele>
        <time>2010-06-12T09:42:37Z</time>
      </trkpt>
      <trkpt lat="46.09884" lon="6.53902">
        <ele>874.94</ele>
        <time>2010-06-12T09:42:38Z</time>
      </trkpt>
      <trkpt lat="46.0989" lon="6.53893">
        <ele>874.46</ele>
        <time>2010-06-12T09:42:39Z</time>
      </trkpt>
      <trkpt lat="46.09895" lon="6.53884">
        <ele>873.5</ele>
        <time>2010-06-12T09:42:40Z</time>
      </trkpt>
      <trkpt lat="46.09902" lon="6.53875">
        <ele>872.53</ele>
        <time>2010-06-12T09:42:41Z</time>
      </trkpt>
      <trkpt lat="46.09908" lon="6.53867">
        <ele>871.57</ele>
        <time>2010-06-12T09:42:42Z</time>
      </trkpt>
      <trkpt lat="46.09914" lon="6.5386">
        <ele>871.09</ele>
        <time>2010-06-12T09:42:43Z</time>
      </trkpt>
      <trkpt lat="46.09928" lon="6.53846">
        <ele>869.17</ele>
        <time>2010-06-12T09:42:45Z</time>
      </trkpt>
      <trkpt lat="46.09934" lon="6.53838">
        <ele>867.25</ele>
        <time>2010-06-12T09:42:46Z</time>
      </trkpt>
      <trkpt lat="46.09938" lon="6.53828">
        <ele>866.77</ele>
        <time>2010-06-12T09:42:47Z</time>
      </trkpt>
      <trkpt lat="46.09941" lon="6.53817">
        <ele>865.8</ele>
        <time>2010-06-12T09:42:48Z</time>
      </trkpt>
      <trkpt lat="46.09944" lon="6.53805">
        <ele>864.84</ele>
        <time>2010-06-12T09:42:49Z</time>
      </trkpt>
      <trkpt lat="46.09952" lon="6.53767">
        <ele>861.48</ele>
        <time>2010-06-12T09:42:52Z</time>
      </trkpt>
      <trkpt lat="46.09962" lon="6.53729">
        <ele>859.08</ele>
        <time>2010-06-12T09:42:55Z</time>
      </trkpt>
      <trkpt lat="46.09966" lon="6.53717">
        <ele>858.11</ele>
        <time>2010-06-12T09:42:56Z</time>
      </trkpt>
      <trkpt lat="46.09971" lon="6.53705">
        <ele>857.15</ele>
        <time>2010-06-12T09:42:57Z</time>
      </trkpt>
      <trkpt lat="46.09976" lon="6.53694">
        <ele>856.19</ele>
        <time>2010-06-12T09:42:58Z</time>
      </trkpt>
      <trkpt lat="46.09983" lon="6.53687">
        <ele>855.23</ele>
        <time>2010-06-12T09:42:59Z</time>
      </trkpt>
      <trkpt lat="46.09989" lon="6.5368">
        <ele>854.27</ele>
        <time>2010-06-12T09:43:00Z</time>
      </trkpt>
      <trkpt lat="46.10004" lon="6.53658">
        <ele>852.35</ele>
        <time>2010-06-12T09:43:03Z</time>
      </trkpt>
      <trkpt lat="46.10008" lon="6.5365">
        <ele>851.38</ele>
        <time>2010-06-12T09:43:04Z</time>
      </trkpt>
      <trkpt lat="46.10011" lon="6.53642">
        <ele>850.42</ele>
        <time>2010-06-12T09:43:05Z</time>
      </trkpt>
      <trkpt lat="46.10013" lon="6.53635">
        <ele>849.94</ele>
        <time>2010-06-12T09:43:06Z</time>
      </trkpt>
      <trkpt lat="46.10014" lon="6.53629">
        <ele>849.46</ele>
        <time>2010-06-12T09:43:07Z</time>
      </trkpt>
      <trkpt lat="46.10015" lon="6.53623">
        <ele>848.5</ele>
        <time>2010-06-12T09:43:08Z</time>
      </trkpt>
      <trkpt lat="46.10016" lon="6.53616">
        <ele>848.5</ele>
        <time>2010-06-12T09:43:09Z</time>
      </trkpt>
      <trkpt lat="46.10016" lon="6.53609">
        <ele>847.54</ele>
        <time>2010-06-12T09:43:10Z</time>
      </trkpt>
      <trkpt lat="46.10017" lon="6.53595">
        <ele>846.58</ele>
        <time>2010-06-12T09:43:12Z</time>
      </trkpt>
      <trkpt lat="46.10018" lon="6.53578">
        <ele>844.66</ele>
        <time>2010-06-12T09:43:17Z</time>
      </trkpt>
      <trkpt lat="46.10019" lon="6.53567">
        <ele>843.69</ele>
        <time>2010-06-12T09:43:21Z</time>
      </trkpt>
      <trkpt lat="46.10015" lon="6.53564">
        <ele>841.77</ele>
        <time>2010-06-12T09:43:26Z</time>
      </trkpt>
      <trkpt lat="46.10009" lon="6.53565">
        <ele>840.33</ele>
        <time>2010-06-12T09:43:28Z</time>
      </trkpt>
      <trkpt lat="46.09995" lon="6.53567">
        <ele>836.96</ele>
        <time>2010-06-12T09:43:32Z</time>
      </trkpt>
      <trkpt lat="46.09983" lon="6.53553">
        <ele>833.12</ele>
        <time>2010-06-12T09:43:37Z</time>
      </trkpt>
      <trkpt lat="46.09983" lon="6.53548">
        <ele>832.16</ele>
        <time>2010-06-12T09:43:38Z</time>
      </trkpt>
      <trkpt lat="46.09986" lon="6.53528">
        <ele>827.83</ele>
        <time>2010-06-12T09:43:43Z</time>
      </trkpt>
      <trkpt lat="46.09985" lon="6.53522">
        <ele>824.95</ele>
        <time>2010-06-12T09:43:46Z</time>
      </trkpt>
      <trkpt lat="46.09979" lon="6.53518">
        <ele>823.03</ele>
        <time>2010-06-12T09:43:49Z</time>
      </trkpt>
      <trkpt lat="46.09973" lon="6.53517">
        <ele>819.66</ele>
        <time>2010-06-12T09:43:51Z</time>
      </trkpt>
      <trkpt lat="46.09964" lon="6.53519">
        <ele>815.82</ele>
        <time>2010-06-12T09:43:54Z</time>
      </trkpt>
      <trkpt lat="46.09961" lon="6.5352">
        <ele>815.34</ele>
        <time>2010-06-12T09:43:55Z</time>
      </trkpt>
      <trkpt lat="46.09948" lon="6.53528">
        <ele>810.53</ele>
        <time>2010-06-12T09:43:59Z</time>
      </trkpt>
      <trkpt lat="46.09939" lon="6.53539">
        <ele>807.16</ele>
        <time>2010-06-12T09:44:02Z</time>
      </trkpt>
      <trkpt lat="46.09926" lon="6.53551">
        <ele>803.8</ele>
        <time>2010-06-12T09:44:05Z</time>
      </trkpt>
      <trkpt lat="46.09921" lon="6.53555">
        <ele>801.88</ele>
        <time>2010-06-12T09:44:06Z</time>
      </trkpt>
      <trkpt lat="46.09917" lon="6.53558">
        <ele>800.92</ele>
        <time>2010-06-12T09:44:07Z</time>
      </trkpt>
      <trkpt lat="46.09908" lon="6.53563">
        <ele>798.99</ele>
        <time>2010-06-12T09:44:09Z</time>
      </trkpt>
      <trkpt lat="46.09894" lon="6.53572">
        <ele>795.63</ele>
        <time>2010-06-12T09:44:13Z</time>
      </trkpt>
      <trkpt lat="46.09887" lon="6.53574">
        <ele>792.74</ele>
        <time>2010-06-12T09:44:15Z</time>
      </trkpt>
      <trkpt lat="46.09883" lon="6.53574">
        <ele>791.78</ele>
        <time>2010-06-12T09:44:16Z</time>
      </trkpt>
      <trkpt lat="46.09879" lon="6.53573">
        <ele>790.82</ele>
        <time>2010-06-12T09:44:17Z</time>
      </trkpt>
      <trkpt lat="46.09875" lon="6.53571">
        <ele>789.86</ele>
        <time>2010-06-12T09:44:18Z</time>
      </trkpt>
      <trkpt lat="46.09872" lon="6.53571">
        <ele>788.42</ele>
        <time>2010-06-12T09:44:19Z</time>
      </trkpt>
      <trkpt lat="46.09869" lon="6.5357">
        <ele>786.98</ele>
        <time>2010-06-12T09:44:20Z</time>
      </trkpt>
      <trkpt lat="46.09861" lon="6.53567">
        <ele>783.13</ele>
        <time>2010-06-12T09:44:23Z</time>
      </trkpt>
      <trkpt lat="46.09846" lon="6.53558">
        <ele>780.73</ele>
        <time>2010-06-12T09:44:27Z</time>
      </trkpt>
      <trkpt lat="46.09838" lon="6.5355">
        <ele>778.81</ele>
        <time>2010-06-12T09:44:31Z</time>
      </trkpt>
      <trkpt lat="46.09838" lon="6.53548">
        <ele>777.84</ele>
        <time>2010-06-12T09:44:32Z</time>
      </trkpt>
      <trkpt lat="46.09838" lon="6.53546">
        <ele>777.84</ele>
        <time>2010-06-12T09:44:33Z</time>
      </trkpt>
      <trkpt lat="46.09839" lon="6.53544">
        <ele>777.36</ele>
        <time>2010-06-12T09:44:34Z</time>
      </trkpt>
      <trkpt lat="46.0984" lon="6.53542">
        <ele>777.36</ele>
        <time>2010-06-12T09:44:35Z</time>
      </trkpt>
      <trkpt lat="46.09842" lon="6.53539">
        <ele>776.4</ele>
        <time>2010-06-12T09:44:36Z</time>
      </trkpt>
      <trkpt lat="46.09841" lon="6.53531">
        <ele>775.44</ele>
        <time>2010-06-12T09:44:47Z</time>
      </trkpt>
      <trkpt lat="46.09837" lon="6.53533">
        <ele>775.44</ele>
        <time>2010-06-12T09:44:51Z</time>
      </trkpt>
      <trkpt lat="46.09836" lon="6.53534">
        <ele>775.44</ele>
        <time>2010-06-12T09:44:52Z</time>
      </trkpt>
      <trkpt lat="46.09835" lon="6.53536">
        <ele>775.44</ele>
        <time>2010-06-12T09:44:53Z</time>
      </trkpt>
      <trkpt lat="46.09834" lon="6.53537">
        <ele>775.44</ele>
        <time>2010-06-12T09:44:54Z</time>
      </trkpt>
      <trkpt lat="46.09832" lon="6.53539">
        <ele>775.44</ele>
        <time>2010-06-12T09:44:55Z</time>
      </trkpt>
      <trkpt lat="46.09831" lon="6.53542">
        <ele>774.96</ele>
        <time>2010-06-12T09:44:56Z</time>
      </trkpt>
      <trkpt lat="46.0983" lon="6.53542">
        <ele>774.96</ele>
        <time>2010-06-12T09:45:06Z</time>
      </trkpt>
      <trkpt lat="46.09833" lon="6.5354">
        <ele>774.96</ele>
        <time>2010-06-12T09:45:11Z</time>
      </trkpt>
      <trkpt lat="46.09835" lon="6.53538">
        <ele>775.44</ele>
        <time>2010-06-12T09:45:13Z</time>
      </trkpt>
      <trkpt lat="46.09836" lon="6.53537">
        <ele>774.96</ele>
        <time>2010-06-12T09:45:14Z</time>
      </trkpt>
      <trkpt lat="46.09837" lon="6.53536">
        <ele>775.44</ele>
        <time>2010-06-12T09:45:15Z</time>
      </trkpt>
      <trkpt lat="46.09838" lon="6.53534">
        <ele>775.44</ele>
        <time>2010-06-12T09:45:16Z</time>
      </trkpt>
      <trkpt lat="46.09839" lon="6.53531">
        <ele>775.44</ele>
        <time>2010-06-12T09:45:17Z</time>
      </trkpt>
      <trkpt lat="46.0984" lon="6.53528">
        <ele>775.44</ele>
        <time>2010-06-12T09:45:18Z</time>
      </trkpt>
      <trkpt lat="46.09842" lon="6.53526">
        <ele>775.92</ele>
        <time>2010-06-12T09:45:19Z</time>
      </trkpt>
      <trkpt lat="46.09843" lon="6.53524">
        <ele>775.92</ele>
        <time>2010-06-12T09:45:20Z</time>
      </trkpt>
      <trkpt lat="46.09844" lon="6.53522">
        <ele>775.92</ele>
        <time>2010-06-12T09:45:21Z</time>
      </trkpt>
      <trkpt lat="46.09845" lon="6.5352">
        <ele>775.44</ele>
        <time>2010-06-12T09:45:22Z</time>
      </trkpt>
      <trkpt lat="46.09846" lon="6.53518">
        <ele>775.92</ele>
        <time>2010-06-12T09:45:23Z</time>
      </trkpt>
      <trkpt lat="46.09847" lon="6.53515">
        <ele>775.92</ele>
        <time>2010-06-12T09:45:24Z</time>
      </trkpt>
      <trkpt lat="46.09849" lon="6.53512">
        <ele>776.4</ele>
        <time>2010-06-12T09:45:25Z</time>
      </trkpt>
      <trkpt lat="46.09861" lon="6.53484">
        <ele>779.29</ele>
        <time>2010-06-12T09:45:37Z</time>
      </trkpt>
      <trkpt lat="46.09861" lon="6.53482">
        <ele>779.29</ele>
        <time>2010-06-12T09:45:38Z</time>
      </trkpt>
      <trkpt lat="46.09862" lon="6.5348">
        <ele>779.29</ele>
        <time>2010-06-12T09:45:39Z</time>
      </trkpt>
      <trkpt lat="46.09873" lon="6.53446">
        <ele>780.73</ele>
        <time>2010-06-12T09:45:54Z</time>
      </trkpt>
      <trkpt lat="46.09893" lon="6.53404">
        <ele>779.77</ele>
        <time>2010-06-12T09:46:09Z</time>
      </trkpt>
      <trkpt lat="46.09912" lon="6.5336">
        <ele>781.21</ele>
        <time>2010-06-12T09:46:23Z</time>
      </trkpt>
      <trkpt lat="46.09923" lon="6.53338">
        <ele>779.29</ele>
        <time>2010-06-12T09:46:28Z</time>
      </trkpt>
      <trkpt lat="46.09925" lon="6.53332">
        <ele>778.81</ele>
        <time>2010-06-12T09:46:29Z</time>
      </trkpt>
      <trkpt lat="46.09926" lon="6.53325">
        <ele>778.32</ele>
        <time>2010-06-12T09:46:30Z</time>
      </trkpt>
      <trkpt lat="46.09927" lon="6.53317">
        <ele>777.36</ele>
        <time>2010-06-12T09:46:31Z</time>
      </trkpt>
      <trkpt lat="46.09928" lon="6.53308">
        <ele>777.36</ele>
        <time>2010-06-12T09:46:32Z</time>
      </trkpt>
      <trkpt lat="46.09929" lon="6.53299">
        <ele>775.92</ele>
        <time>2010-06-12T09:46:33Z</time>
      </trkpt>
      <trkpt lat="46.09929" lon="6.53288">
        <ele>775.44</ele>
        <time>2010-06-12T09:46:34Z</time>
      </trkpt>
      <trkpt lat="46.0993" lon="6.53278">
        <ele>775.44</ele>
        <time>2010-06-12T09:46:35Z</time>
      </trkpt>
      <trkpt lat="46.09934" lon="6.53248">
        <ele>778.81</ele>
        <time>2010-06-12T09:46:39Z</time>
      </trkpt>
      <trkpt lat="46.09925" lon="6.53191">
        <ele>780.73</ele>
        <time>2010-06-12T09:46:52Z</time>
      </trkpt>
      <trkpt lat="46.09918" lon="6.53143">
        <ele>783.13</ele>
        <time>2010-06-12T09:47:06Z</time>
      </trkpt>
      <trkpt lat="46.0992" lon="6.53135">
        <ele>784.09</ele>
        <time>2010-06-12T09:47:10Z</time>
      </trkpt>
      <trkpt lat="46.09919" lon="6.53131">
        <ele>783.61</ele>
        <time>2010-06-12T09:47:12Z</time>
      </trkpt>
      <trkpt lat="46.09912" lon="6.53129">
        <ele>781.21</ele>
        <time>2010-06-12T09:47:16Z</time>
      </trkpt>
      <trkpt lat="46.09909" lon="6.53129">
        <ele>780.73</ele>
        <time>2010-06-12T09:47:17Z</time>
      </trkpt>
      <trkpt lat="46.09894" lon="6.53132">
        <ele>776.88</ele>
        <time>2010-06-12T09:47:23Z</time>
      </trkpt>
      <trkpt lat="46.09879" lon="6.53132">
        <ele>773.04</ele>
        <time>2010-06-12T09:47:28Z</time>
      </trkpt>
      <trkpt lat="46.09873" lon="6.53134">
        <ele>772.08</ele>
        <time>2010-06-12T09:47:30Z</time>
      </trkpt>
      <trkpt lat="46.09862" lon="6.53147">
        <ele>767.27</ele>
        <time>2010-06-12T09:47:34Z</time>
      </trkpt>
      <trkpt lat="46.09852" lon="6.53155">
        <ele>763.9</ele>
        <time>2010-06-12T09:47:38Z</time>
      </trkpt>
      <trkpt lat="46.09845" lon="6.53157">
        <ele>761.98</ele>
        <time>2010-06-12T09:47:40Z</time>
      </trkpt>
      <trkpt lat="46.09835" lon="6.53144">
        <ele>758.14</ele>
        <time>2010-06-12T09:47:45Z</time>
      </trkpt>
      <trkpt lat="46.09835" lon="6.53133">
        <ele>755.25</ele>
        <time>2010-06-12T09:47:48Z</time>
      </trkpt>
      <trkpt lat="46.09835" lon="6.5313">
        <ele>754.77</ele>
        <time>2010-06-12T09:47:49Z</time>
      </trkpt>
      <trkpt lat="46.09829" lon="6.53119">
        <ele>750.93</ele>
        <time>2010-06-12T09:47:57Z</time>
      </trkpt>
      <trkpt lat="46.09822" lon="6.53129">
        <ele>747.56</ele>
        <time>2010-06-12T09:48:02Z</time>
      </trkpt>
      <trkpt lat="46.09809" lon="6.53144">
        <ele>743.72</ele>
        <time>2010-06-12T09:48:07Z</time>
      </trkpt>
      <trkpt lat="46.09805" lon="6.5315">
        <ele>743.24</ele>
        <time>2010-06-12T09:48:09Z</time>
      </trkpt>
      <trkpt lat="46.09798" lon="6.53159">
        <ele>740.35</ele>
        <time>2010-06-12T09:48:13Z</time>
      </trkpt>
      <trkpt lat="46.09797" lon="6.53161">
        <ele>739.87</ele>
        <time>2010-06-12T09:48:14Z</time>
      </trkpt>
      <trkpt lat="46.09799" lon="6.53173">
        <ele>737.95</ele>
        <time>2010-06-12T09:48:26Z</time>
      </trkpt>
      <trkpt lat="46.09799" lon="6.53178">
        <ele>737.47</ele>
        <time>2010-06-12T09:48:31Z</time>
      </trkpt>
      <trkpt lat="46.09797" lon="6.53173">
        <ele>736.03</ele>
        <time>2010-06-12T09:48:42Z</time>
      </trkpt>
      <trkpt lat="46.09797" lon="6.53173">
        <ele>735.55</ele>
        <time>2010-06-12T09:48:56Z</time>
      </trkpt>
      <trkpt lat="46.09787" lon="6.53159">
        <ele>734.1</ele>
        <time>2010-06-12T09:49:01Z</time>
      </trkpt>
      <trkpt lat="46.09783" lon="6.53157">
        <ele>733.62</ele>
        <time>2010-06-12T09:49:02Z</time>
      </trkpt>
      <trkpt lat="46.09778" lon="6.53155">
        <ele>732.66</ele>
        <time>2010-06-12T09:49:03Z</time>
      </trkpt>
      <trkpt lat="46.09774" lon="6.53155">
        <ele>732.66</ele>
        <time>2010-06-12T09:49:04Z</time>
      </trkpt>
      <trkpt lat="46.09771" lon="6.53156">
        <ele>732.66</ele>
        <time>2010-06-12T09:49:05Z</time>
      </trkpt>
      <trkpt lat="46.09769" lon="6.53157">
        <ele>732.66</ele>
        <time>2010-06-12T09:49:06Z</time>
      </trkpt>
      <trkpt lat="46.0977" lon="6.53156">
        <ele>732.66</ele>
        <time>2010-06-12T09:49:19Z</time>
      </trkpt>
      <trkpt lat="46.09769" lon="6.53157">
        <ele>732.18</ele>
        <time>2010-06-12T09:49:37Z</time>
      </trkpt>
      <trkpt lat="46.09768" lon="6.53159">
        <ele>732.18</ele>
        <time>2010-06-12T09:49:38Z</time>
      </trkpt>
      <trkpt lat="46.09766" lon="6.53161">
        <ele>731.22</ele>
        <time>2010-06-12T09:49:39Z</time>
      </trkpt>
      <trkpt lat="46.09765" lon="6.53162">
        <ele>731.22</ele>
        <time>2010-06-12T09:49:40Z</time>
      </trkpt>
      <trkpt lat="46.09762" lon="6.53164">
        <ele>731.22</ele>
        <time>2010-06-12T09:49:41Z</time>
      </trkpt>
      <trkpt lat="46.09761" lon="6.53167">
        <ele>730.74</ele>
        <time>2010-06-12T09:49:42Z</time>
      </trkpt>
      <trkpt lat="46.09759" lon="6.5317">
        <ele>730.74</ele>
        <time>2010-06-12T09:49:43Z</time>
      </trkpt>
      <trkpt lat="46.09758" lon="6.53173">
        <ele>730.26</ele>
        <time>2010-06-12T09:49:44Z</time>
      </trkpt>
      <trkpt lat="46.09756" lon="6.53178">
        <ele>729.3</ele>
        <time>2010-06-12T09:49:45Z</time>
      </trkpt>
      <trkpt lat="46.09755" lon="6.53185">
        <ele>728.82</ele>
        <time>2010-06-12T09:49:46Z</time>
      </trkpt>
      <trkpt lat="46.09749" lon="6.53218">
        <ele>725.93</ele>
        <time>2010-06-12T09:49:50Z</time>
      </trkpt>
      <trkpt lat="46.09747" lon="6.53226">
        <ele>725.93</ele>
        <time>2010-06-12T09:49:51Z</time>
      </trkpt>
      <trkpt lat="46.09744" lon="6.53233">
        <ele>724.49</ele>
        <time>2010-06-12T09:49:52Z</time>
      </trkpt>
      <trkpt lat="46.09741" lon="6.53239">
        <ele>724.49</ele>
        <time>2010-06-12T09:49:53Z</time>
      </trkpt>
      <trkpt lat="46.09736" lon="6.53244">
        <ele>724.01</ele>
        <time>2010-06-12T09:49:54Z</time>
      </trkpt>
      <trkpt lat="46.09732" lon="6.53247">
        <ele>723.53</ele>
        <time>2010-06-12T09:49:55Z</time>
      </trkpt>
      <trkpt lat="46.09727" lon="6.53249">
        <ele>723.05</ele>
        <time>2010-06-12T09:49:56Z</time>
      </trkpt>
      <trkpt lat="46.09723" lon="6.5325">
        <ele>723.05</ele>
        <time>2010-06-12T09:49:57Z</time>
      </trkpt>
      <trkpt lat="46.09701" lon="6.53257">
        <ele>720.16</ele>
        <time>2010-06-12T09:50:02Z</time>
      </trkpt>
      <trkpt lat="46.09696" lon="6.53257">
        <ele>719.68</ele>
        <time>2010-06-12T09:50:03Z</time>
      </trkpt>
      <trkpt lat="46.09693" lon="6.53257">
        <ele>719.68</ele>
        <time>2010-06-12T09:50:04Z</time>
      </trkpt>
      <trkpt lat="46.0969" lon="6.53256">
        <ele>719.2</ele>
        <time>2010-06-12T09:50:05Z</time>
      </trkpt>
      <trkpt lat="46.09688" lon="6.53256">
        <ele>718.24</ele>
        <time>2010-06-12T09:50:06Z</time>
      </trkpt>
      <trkpt lat="46.09685" lon="6.53256">
        <ele>718.72</ele>
        <time>2010-06-12T09:50:07Z</time>
      </trkpt>
      <trkpt lat="46.09683" lon="6.53255">
        <ele>718.72</ele>
        <time>2010-06-12T09:50:08Z</time>
      </trkpt>
      <trkpt lat="46.09681" lon="6.53255">
        <ele>718.72</ele>
        <time>2010-06-12T09:50:20Z</time>
      </trkpt>
      <trkpt lat="46.09682" lon="6.53253">
        <ele>718.72</ele>
        <time>2010-06-12T09:50:24Z</time>
      </trkpt>
      <trkpt lat="46.09682" lon="6.5325">
        <ele>717.76</ele>
        <time>2010-06-12T09:50:25Z</time>
      </trkpt>
      <trkpt lat="46.09682" lon="6.53247">
        <ele>717.28</ele>
        <time>2010-06-12T09:50:26Z</time>
      </trkpt>
      <trkpt lat="46.09683" lon="6.53242">
        <ele>715.84</ele>
        <time>2010-06-12T09:50:27Z</time>
      </trkpt>
      <trkpt lat="46.09683" lon="6.53237">
        <ele>715.36</ele>
        <time>2010-06-12T09:50:28Z</time>
      </trkpt>
      <trkpt lat="46.09683" lon="6.53225">
        <ele>713.44</ele>
        <time>2010-06-12T09:50:31Z</time>
      </trkpt>
      <trkpt lat="46.09681" lon="6.53222">
        <ele>713.44</ele>
        <time>2010-06-12T09:50:32Z</time>
      </trkpt>
      <trkpt lat="46.09669" lon="6.53203">
        <ele>709.59</ele>
        <time>2010-06-12T09:50:38Z</time>
      </trkpt>
      <trkpt lat="46.09668" lon="6.53198">
        <ele>709.59</ele>
        <time>2010-06-12T09:50:39Z</time>
      </trkpt>
      <trkpt lat="46.0966" lon="6.5318">
        <ele>705.26</ele>
        <time>2010-06-12T09:50:43Z</time>
      </trkpt>
      <trkpt lat="46.09655" lon="6.53174">
        <ele>704.78</ele>
        <time>2010-06-12T09:50:45Z</time>
      </trkpt>
      <trkpt lat="46.09645" lon="6.53168">
        <ele>701.42</ele>
        <time>2010-06-12T09:50:49Z</time>
      </trkpt>
      <trkpt lat="46.09626" lon="6.53167">
        <ele>698.05</ele>
        <time>2010-06-12T09:50:55Z</time>
      </trkpt>
      <trkpt lat="46.0961" lon="6.53157">
        <ele>694.69</ele>
        <time>2010-06-12T09:51:00Z</time>
      </trkpt>
      <trkpt lat="46.09601" lon="6.53147">
        <ele>692.77</ele>
        <time>2010-06-12T09:51:04Z</time>
      </trkpt>
      <trkpt lat="46.096" lon="6.53146">
        <ele>692.29</ele>
        <time>2010-06-12T09:51:05Z</time>
      </trkpt>
      <trkpt lat="46.09599" lon="6.53144">
        <ele>692.29</ele>
        <time>2010-06-12T09:51:06Z</time>
      </trkpt>
      <trkpt lat="46.09599" lon="6.53142">
        <ele>691.33</ele>
        <time>2010-06-12T09:51:07Z</time>
      </trkpt>
      <trkpt lat="46.09598" lon="6.5314">
        <ele>691.33</ele>
        <time>2010-06-12T09:51:08Z</time>
      </trkpt>
      <trkpt lat="46.09598" lon="6.53137">
        <ele>690.84</ele>
        <time>2010-06-12T09:51:09Z</time>
      </trkpt>
      <trkpt lat="46.09596" lon="6.53131">
        <ele>689.88</ele>
        <time>2010-06-12T09:51:12Z</time>
      </trkpt>
      <trkpt lat="46.09593" lon="6.53123">
        <ele>687.48</ele>
        <time>2010-06-12T09:51:21Z</time>
      </trkpt>
      <trkpt lat="46.09592" lon="6.53121">
        <ele>687.48</ele>
        <time>2010-06-12T09:51:22Z</time>
      </trkpt>
      <trkpt lat="46.09589" lon="6.53111">
        <ele>685.56</ele>
        <time>2010-06-12T09:51:31Z</time>
      </trkpt>
      <trkpt lat="46.09589" lon="6.53109">
        <ele>685.56</ele>
        <time>2010-06-12T09:51:32Z</time>
      </trkpt>
      <trkpt lat="46.09588" lon="6.53106">
        <ele>684.12</ele>
        <time>2010-06-12T09:51:33Z</time>
      </trkpt>
      <trkpt lat="46.09588" lon="6.53103">
        <ele>683.63</ele>
        <time>2010-06-12T09:51:34Z</time>
      </trkpt>
      <trkpt lat="46.09587" lon="6.531">
        <ele>683.63</ele>
        <time>2010-06-12T09:51:35Z</time>
      </trkpt>
      <trkpt lat="46.09586" lon="6.53096">
        <ele>682.67</ele>
        <time>2010-06-12T09:51:36Z</time>
      </trkpt>
      <trkpt lat="46.09585" lon="6.53092">
        <ele>681.71</ele>
        <time>2010-06-12T09:51:37Z</time>
      </trkpt>
      <trkpt lat="46.09584" lon="6.53088">
        <ele>681.71</ele>
        <time>2010-06-12T09:51:38Z</time>
      </trkpt>
      <trkpt lat="46.09583" lon="6.53084">
        <ele>680.27</ele>
        <time>2010-06-12T09:51:39Z</time>
      </trkpt>
      <trkpt lat="46.0958" lon="6.5308">
        <ele>679.79</ele>
        <time>2010-06-12T09:51:40Z</time>
      </trkpt>
      <trkpt lat="46.09578" lon="6.53076">
        <ele>679.79</ele>
        <time>2010-06-12T09:51:41Z</time>
      </trkpt>
      <trkpt lat="46.09575" lon="6.53071">
        <ele>678.83</ele>
        <time>2010-06-12T09:51:42Z</time>
      </trkpt>
      <trkpt lat="46.09573" lon="6.53067">
        <ele>678.83</ele>
        <time>2010-06-12T09:51:43Z</time>
      </trkpt>
      <trkpt lat="46.09571" lon="6.53062">
        <ele>678.35</ele>
        <time>2010-06-12T09:51:44Z</time>
      </trkpt>
      <trkpt lat="46.09568" lon="6.53058">
        <ele>677.87</ele>
        <time>2010-06-12T09:51:45Z</time>
      </trkpt>
      <trkpt lat="46.09567" lon="6.53054">
        <ele>677.39</ele>
        <time>2010-06-12T09:51:46Z</time>
      </trkpt>
      <trkpt lat="46.09566" lon="6.53051">
        <ele>677.39</ele>
        <time>2010-06-12T09:51:47Z</time>
      </trkpt>
      <trkpt lat="46.09565" lon="6.53047">
        <ele>676.42</ele>
        <time>2010-06-12T09:51:48Z</time>
      </trkpt>
      <trkpt lat="46.09563" lon="6.53043">
        <ele>675.94</ele>
        <time>2010-06-12T09:51:49Z</time>
      </trkpt>
      <trkpt lat="46.09562" lon="6.53039">
        <ele>674.98</ele>
        <time>2010-06-12T09:51:50Z</time>
      </trkpt>
      <trkpt lat="46.09556" lon="6.53018">
        <ele>671.62</ele>
        <time>2010-06-12T09:51:56Z</time>
      </trkpt>
      <trkpt lat="46.09555" lon="6.53014">
        <ele>671.14</ele>
        <time>2010-06-12T09:51:57Z</time>
      </trkpt>
      <trkpt lat="46.09553" lon="6.52999">
        <ele>668.25</ele>
        <time>2010-06-12T09:52:02Z</time>
      </trkpt>
      <trkpt lat="46.09555" lon="6.52992">
        <ele>666.81</ele>
        <time>2010-06-12T09:52:05Z</time>
      </trkpt>
      <trkpt lat="46.0957" lon="6.52974">
        <ele>662.01</ele>
        <time>2010-06-12T09:52:11Z</time>
      </trkpt>
      <trkpt lat="46.09572" lon="6.52971">
        <ele>661.52</ele>
        <time>2010-06-12T09:52:12Z</time>
      </trkpt>
      <trkpt lat="46.0958" lon="6.52962">
        <ele>659.6</ele>
        <time>2010-06-12T09:52:16Z</time>
      </trkpt>
      <trkpt lat="46.09584" lon="6.52959">
        <ele>657.68</ele>
        <time>2010-06-12T09:52:18Z</time>
      </trkpt>
      <trkpt lat="46.09586" lon="6.52956">
        <ele>657.2</ele>
        <time>2010-06-12T09:52:20Z</time>
      </trkpt>
      <trkpt lat="46.09582" lon="6.52944">
        <ele>655.76</ele>
        <time>2010-06-12T09:52:23Z</time>
      </trkpt>
      <trkpt lat="46.09589" lon="6.52925">
        <ele>651.43</ele>
        <time>2010-06-12T09:52:30Z</time>
      </trkpt>
      <trkpt lat="46.09591" lon="6.52922">
        <ele>651.91</ele>
        <time>2010-06-12T09:52:31Z</time>
      </trkpt>
      <trkpt lat="46.09594" lon="6.52909">
        <ele>649.03</ele>
        <time>2010-06-12T09:52:35Z</time>
      </trkpt>
      <trkpt lat="46.09602" lon="6.52884">
        <ele>643.74</ele>
        <time>2010-06-12T09:52:41Z</time>
      </trkpt>
      <trkpt lat="46.09607" lon="6.52873">
        <ele>642.3</ele>
        <time>2010-06-12T09:52:44Z</time>
      </trkpt>
      <trkpt lat="46.09615" lon="6.52862">
        <ele>638.93</ele>
        <time>2010-06-12T09:52:49Z</time>
      </trkpt>
      <trkpt lat="46.09619" lon="6.52855">
        <ele>635.57</ele>
        <time>2010-06-12T09:52:53Z</time>
      </trkpt>
      <trkpt lat="46.09619" lon="6.52853">
        <ele>634.13</ele>
        <time>2010-06-12T09:52:55Z</time>
      </trkpt>
      <trkpt lat="46.09619" lon="6.52852">
        <ele>633.65</ele>
        <time>2010-06-12T09:52:57Z</time>
      </trkpt>
      <trkpt lat="46.09618" lon="6.52851">
        <ele>632.68</ele>
        <time>2010-06-12T09:52:58Z</time>
      </trkpt>
      <trkpt lat="46.09618" lon="6.52849">
        <ele>631.24</ele>
        <time>2010-06-12T09:53:00Z</time>
      </trkpt>
      <trkpt lat="46.09617" lon="6.52849">
        <ele>630.28</ele>
        <time>2010-06-12T09:53:01Z</time>
      </trkpt>
      <trkpt lat="46.09612" lon="6.52849">
        <ele>628.36</ele>
        <time>2010-06-12T09:53:04Z</time>
      </trkpt>
      <trkpt lat="46.09574" lon="6.52804">
        <ele>624.99</ele>
        <time>2010-06-12T09:53:09Z</time>
      </trkpt>
      <trkpt lat="46.09563" lon="6.52792">
        <ele>622.11</ele>
        <time>2010-06-12T09:53:14Z</time>
      </trkpt>
      <trkpt lat="46.09558" lon="6.52773">
        <ele>618.75</ele>
        <time>2010-06-12T09:53:20Z</time>
      </trkpt>
      <trkpt lat="46.09555" lon="6.52768">
        <ele>617.78</ele>
        <time>2010-06-12T09:53:21Z</time>
      </trkpt>
      <trkpt lat="46.09545" lon="6.52738">
        <ele>613.94</ele>
        <time>2010-06-12T09:53:28Z</time>
      </trkpt>
      <trkpt lat="46.09537" lon="6.52703">
        <ele>610.57</ele>
        <time>2010-06-12T09:53:36Z</time>
      </trkpt>
      <trkpt lat="46.09535" lon="6.52697">
        <ele>609.61</ele>
        <time>2010-06-12T09:53:37Z</time>
      </trkpt>
      <trkpt lat="46.09526" lon="6.52678">
        <ele>607.69</ele>
        <time>2010-06-12T09:53:41Z</time>
      </trkpt>
      <trkpt lat="46.09524" lon="6.5267">
        <ele>606.73</ele>
        <time>2010-06-12T09:53:44Z</time>
      </trkpt>
      <trkpt lat="46.09524" lon="6.52668">
        <ele>606.73</ele>
        <time>2010-06-12T09:53:45Z</time>
      </trkpt>
      <trkpt lat="46.09526" lon="6.52652">
        <ele>606.73</ele>
        <time>2010-06-12T09:53:57Z</time>
      </trkpt>
      <trkpt lat="46.09527" lon="6.52651">
        <ele>606.25</ele>
        <time>2010-06-12T09:54:08Z</time>
      </trkpt>
      <trkpt lat="46.09527" lon="6.52648">
        <ele>606.73</ele>
        <time>2010-06-12T09:54:09Z</time>
      </trkpt>
      <trkpt lat="46.09527" lon="6.52644">
        <ele>605.29</ele>
        <time>2010-06-12T09:54:10Z</time>
      </trkpt>
      <trkpt lat="46.09528" lon="6.52639">
        <ele>604.81</ele>
        <time>2010-06-12T09:54:11Z</time>
      </trkpt>
      <trkpt lat="46.09528" lon="6.52633">
        <ele>604.33</ele>
        <time>2010-06-12T09:54:12Z</time>
      </trkpt>
      <trkpt lat="46.09527" lon="6.52628">
        <ele>603.36</ele>
        <time>2010-06-12T09:54:13Z</time>
      </trkpt>
      <trkpt lat="46.09524" lon="6.52624">
        <ele>602.88</ele>
        <time>2010-06-12T09:54:14Z</time>
      </trkpt>
      <trkpt lat="46.0952" lon="6.52618">
        <ele>602.88</ele>
        <time>2010-06-12T09:54:15Z</time>
      </trkpt>
      <trkpt lat="46.09514" lon="6.5261">
        <ele>599.04</ele>
        <time>2010-06-12T09:54:16Z</time>
      </trkpt>
      <trkpt lat="46.09498" lon="6.52585">
        <ele>595.67</ele>
        <time>2010-06-12T09:54:19Z</time>
      </trkpt>
      <trkpt lat="46.09478" lon="6.52558">
        <ele>591.83</ele>
        <time>2010-06-12T09:54:23Z</time>
      </trkpt>
      <trkpt lat="46.09457" lon="6.52525">
        <ele>588.95</ele>
        <time>2010-06-12T09:54:28Z</time>
      </trkpt>
      <trkpt lat="46.09433" lon="6.52489">
        <ele>585.58</ele>
        <time>2010-06-12T09:54:34Z</time>
      </trkpt>
      <trkpt lat="46.09421" lon="6.52475">
        <ele>583.66</ele>
        <time>2010-06-12T09:54:37Z</time>
      </trkpt>
      <trkpt lat="46.09418" lon="6.52471">
        <ele>583.18</ele>
        <time>2010-06-12T09:54:38Z</time>
      </trkpt>
      <trkpt lat="46.09408" lon="6.52457">
        <ele>581.73</ele>
        <time>2010-06-12T09:54:41Z</time>
      </trkpt>
      <trkpt lat="46.09392" lon="6.52437">
        <ele>578.85</ele>
        <time>2010-06-12T09:54:47Z</time>
      </trkpt>
      <trkpt lat="46.09389" lon="6.52433">
        <ele>577.89</ele>
        <time>2010-06-12T09:54:48Z</time>
      </trkpt>
      <trkpt lat="46.09383" lon="6.52427">
        <ele>576.93</ele>
        <time>2010-06-12T09:54:50Z</time>
      </trkpt>
      <trkpt lat="46.09373" lon="6.52411">
        <ele>573.56</ele>
        <time>2010-06-12T09:54:54Z</time>
      </trkpt>
      <trkpt lat="46.09362" lon="6.52388">
        <ele>570.2</ele>
        <time>2010-06-12T09:54:59Z</time>
      </trkpt>
      <trkpt lat="46.0936" lon="6.52364">
        <ele>566.83</ele>
        <time>2010-06-12T09:55:03Z</time>
      </trkpt>
      <trkpt lat="46.09358" lon="6.52357">
        <ele>565.39</ele>
        <time>2010-06-12T09:55:04Z</time>
      </trkpt>
      <trkpt lat="46.09351" lon="6.52334">
        <ele>562.51</ele>
        <time>2010-06-12T09:55:07Z</time>
      </trkpt>
      <trkpt lat="46.09339" lon="6.52295">
        <ele>559.14</ele>
        <time>2010-06-12T09:55:15Z</time>
      </trkpt>
      <trkpt lat="46.09326" lon="6.52261">
        <ele>556.74</ele>
        <time>2010-06-12T09:55:21Z</time>
      </trkpt>
      <trkpt lat="46.09313" lon="6.52221">
        <ele>554.34</ele>
        <time>2010-06-12T09:55:28Z</time>
      </trkpt>
      <trkpt lat="46.09298" lon="6.52184">
        <ele>552.41</ele>
        <time>2010-06-12T09:55:34Z</time>
      </trkpt>
      <trkpt lat="46.09279" lon="6.52133">
        <ele>550.97</ele>
        <time>2010-06-12T09:55:45Z</time>
      </trkpt>
      <trkpt lat="46.09258" lon="6.52095">
        <ele>550.49</ele>
        <time>2010-06-12T09:55:57Z</time>
      </trkpt>
      <trkpt lat="46.09257" lon="6.52047">
        <ele>547.13</ele>
        <time>2010-06-12T09:56:05Z</time>
      </trkpt>
      <trkpt lat="46.09257" lon="6.52027">
        <ele>547.13</ele>
        <time>2010-06-12T09:56:09Z</time>
      </trkpt>
      <trkpt lat="46.0925" lon="6.52022">
        <ele>544.72</ele>
        <time>2010-06-12T09:56:13Z</time>
      </trkpt>
      <trkpt lat="46.09248" lon="6.5202">
        <ele>544.24</ele>
        <time>2010-06-12T09:56:14Z</time>
      </trkpt>
      <trkpt lat="46.09225" lon="6.52001">
        <ele>540.4</ele>
        <time>2010-06-12T09:56:18Z</time>
      </trkpt>
      <trkpt lat="46.09218" lon="6.51996">
        <ele>540.4</ele>
        <time>2010-06-12T09:56:19Z</time>
      </trkpt>
      <trkpt lat="46.09209" lon="6.51991">
        <ele>537.03</ele>
        <time>2010-06-12T09:56:20Z</time>
      </trkpt>
      <trkpt lat="46.0919" lon="6.5198">
        <ele>532.71</ele>
        <time>2010-06-12T09:56:22Z</time>
      </trkpt>
      <trkpt lat="46.09167" lon="6.5197">
        <ele>528.38</ele>
        <time>2010-06-12T09:56:24Z</time>
      </trkpt>
      <trkpt lat="46.09141" lon="6.51965">
        <ele>524.54</ele>
        <time>2010-06-12T09:56:26Z</time>
      </trkpt>
      <trkpt lat="46.09099" lon="6.51961">
        <ele>521.17</ele>
        <time>2010-06-12T09:56:30Z</time>
      </trkpt>
      <trkpt lat="46.09091" lon="6.5196">
        <ele>520.69</ele>
        <time>2010-06-12T09:56:31Z</time>
      </trkpt>
      <trkpt lat="46.09079" lon="6.51957">
        <ele>519.73</ele>
        <time>2010-06-12T09:56:38Z</time>
      </trkpt>
      <trkpt lat="46.09078" lon="6.51957">
        <ele>518.77</ele>
        <time>2010-06-12T09:56:39Z</time>
      </trkpt>
      <trkpt lat="46.09074" lon="6.51955">
        <ele>518.77</ele>
        <time>2010-06-12T09:56:42Z</time>
      </trkpt>
      <trkpt lat="46.09072" lon="6.5196">
        <ele>519.25</ele>
        <time>2010-06-12T09:56:49Z</time>
      </trkpt>
      <trkpt lat="46.09071" lon="6.51962">
        <ele>518.77</ele>
        <time>2010-06-12T09:56:50Z</time>
      </trkpt>
      <trkpt lat="46.09071" lon="6.51964">
        <ele>519.25</ele>
        <time>2010-06-12T09:56:51Z</time>
      </trkpt>
      <trkpt lat="46.0907" lon="6.51965">
        <ele>518.77</ele>
        <time>2010-06-12T09:57:01Z</time>
      </trkpt>
      <trkpt lat="46.09068" lon="6.5196">
        <ele>518.77</ele>
        <time>2010-06-12T09:57:06Z</time>
      </trkpt>
      <trkpt lat="46.09066" lon="6.5196">
        <ele>518.29</ele>
        <time>2010-06-12T09:57:07Z</time>
      </trkpt>
      <trkpt lat="46.0906" lon="6.51961">
        <ele>517.33</ele>
        <time>2010-06-12T09:57:09Z</time>
      </trkpt>
      <trkpt lat="46.09039" lon="6.51964">
        <ele>513.96</ele>
        <time>2010-06-12T09:57:13Z</time>
      </trkpt>
      <trkpt lat="46.09032" lon="6.51965">
        <ele>513.48</ele>
        <time>2010-06-12T09:57:14Z</time>
      </trkpt>
      <trkpt lat="46.09026" lon="6.51966">
        <ele>513.48</ele>
        <time>2010-06-12T09:57:15Z</time>
      </trkpt>
      <trkpt lat="46.09021" lon="6.51969">
        <ele>513</ele>
        <time>2010-06-12T09:57:16Z</time>
      </trkpt>
      <trkpt lat="46.09017" lon="6.51973">
        <ele>513</ele>
        <time>2010-06-12T09:57:17Z</time>
      </trkpt>
      <trkpt lat="46.09012" lon="6.51978">
        <ele>512.04</ele>
        <time>2010-06-12T09:57:18Z</time>
      </trkpt>
      <trkpt lat="46.09008" lon="6.51981">
        <ele>511.56</ele>
        <time>2010-06-12T09:57:19Z</time>
      </trkpt>
      <trkpt lat="46.09003" lon="6.51983">
        <ele>511.08</ele>
        <time>2010-06-12T09:57:20Z</time>
      </trkpt>
      <trkpt lat="46.08997" lon="6.51985">
        <ele>510.12</ele>
        <time>2010-06-12T09:57:21Z</time>
      </trkpt>
      <trkpt lat="46.08972" lon="6.51992">
        <ele>506.27</ele>
        <time>2010-06-12T09:57:25Z</time>
      </trkpt>
      <trkpt lat="46.08941" lon="6.52004">
        <ele>502.91</ele>
        <time>2010-06-12T09:57:29Z</time>
      </trkpt>
      <trkpt lat="46.08911" lon="6.52024">
        <ele>499.06</ele>
        <time>2010-06-12T09:57:33Z</time>
      </trkpt>
      <trkpt lat="46.08893" lon="6.52031">
        <ele>497.62</ele>
        <time>2010-06-12T09:57:36Z</time>
      </trkpt>
      <trkpt lat="46.08887" lon="6.52031">
        <ele>496.18</ele>
        <time>2010-06-12T09:57:37Z</time>
      </trkpt>
      <trkpt lat="46.08881" lon="6.52029">
        <ele>495.22</ele>
        <time>2010-06-12T09:57:38Z</time>
      </trkpt>
      <trkpt lat="46.08877" lon="6.52025">
        <ele>494.26</ele>
        <time>2010-06-12T09:57:39Z</time>
      </trkpt>
      <trkpt lat="46.08872" lon="6.5202">
        <ele>493.29</ele>
        <time>2010-06-12T09:57:40Z</time>
      </trkpt>
      <trkpt lat="46.08868" lon="6.52014">
        <ele>491.85</ele>
        <time>2010-06-12T09:57:41Z</time>
      </trkpt>
      <trkpt lat="46.08863" lon="6.52006">
        <ele>490.89</ele>
        <time>2010-06-12T09:57:42Z</time>
      </trkpt>
      <trkpt lat="46.08856" lon="6.51998">
        <ele>490.41</ele>
        <time>2010-06-12T09:57:43Z</time>
      </trkpt>
      <trkpt lat="46.08849" lon="6.5199">
        <ele>489.45</ele>
        <time>2010-06-12T09:57:44Z</time>
      </trkpt>
      <trkpt lat="46.08841" lon="6.51984">
        <ele>488.97</ele>
        <time>2010-06-12T09:57:45Z</time>
      </trkpt>
      <trkpt lat="46.08832" lon="6.5198">
        <ele>487.53</ele>
        <time>2010-06-12T09:57:46Z</time>
      </trkpt>
      <trkpt lat="46.08794" lon="6.5197">
        <ele>484.16</ele>
        <time>2010-06-12T09:57:50Z</time>
      </trkpt>
      <trkpt lat="46.08778" lon="6.51969">
        <ele>483.2</ele>
        <time>2010-06-12T09:57:52Z</time>
      </trkpt>
      <trkpt lat="46.08771" lon="6.51969">
        <ele>482.24</ele>
        <time>2010-06-12T09:57:53Z</time>
      </trkpt>
      <trkpt lat="46.08766" lon="6.51971">
        <ele>482.72</ele>
        <time>2010-06-12T09:57:54Z</time>
      </trkpt>
      <trkpt lat="46.08755" lon="6.51974">
        <ele>481.76</ele>
        <time>2010-06-12T09:57:58Z</time>
      </trkpt>
      <trkpt lat="46.08753" lon="6.51973">
        <ele>481.28</ele>
        <time>2010-06-12T09:57:59Z</time>
      </trkpt>
      <trkpt lat="46.08748" lon="6.51969">
        <ele>481.28</ele>
        <time>2010-06-12T09:58:01Z</time>
      </trkpt>
      <trkpt lat="46.08746" lon="6.51965">
        <ele>481.28</ele>
        <time>2010-06-12T09:58:02Z</time>
      </trkpt>
      <trkpt lat="46.08744" lon="6.51962">
        <ele>481.28</ele>
        <time>2010-06-12T09:58:03Z</time>
      </trkpt>
      <trkpt lat="46.08741" lon="6.51959">
        <ele>481.28</ele>
        <time>2010-06-12T09:58:04Z</time>
      </trkpt>
      <trkpt lat="46.08738" lon="6.51959">
        <ele>481.28</ele>
        <time>2010-06-12T09:58:05Z</time>
      </trkpt>
      <trkpt lat="46.08735" lon="6.51959">
        <ele>480.8</ele>
        <time>2010-06-12T09:58:06Z</time>
      </trkpt>
      <trkpt lat="46.08703" lon="6.51961">
        <ele>479.84</ele>
        <time>2010-06-12T09:58:14Z</time>
      </trkpt>
      <trkpt lat="46.08639" lon="6.51937">
        <ele>479.35</ele>
        <time>2010-06-12T09:58:30Z</time>
      </trkpt>
      <trkpt lat="46.08596" lon="6.51924">
        <ele>479.35</ele>
        <time>2010-06-12T09:58:43Z</time>
      </trkpt>
      <trkpt lat="46.08564" lon="6.51948">
        <ele>479.35</ele>
        <time>2010-06-12T09:58:53Z</time>
      </trkpt>
      <trkpt lat="46.0852" lon="6.5196">
        <ele>479.35</ele>
        <time>2010-06-12T09:59:06Z</time>
      </trkpt>
      <trkpt lat="46.0847" lon="6.51979">
        <ele>478.39</ele>
        <time>2010-06-12T09:59:20Z</time>
      </trkpt>
      <trkpt lat="46.08445" lon="6.51979">
        <ele>483.2</ele>
        <time>2010-06-12T09:59:27Z</time>
      </trkpt>
      <trkpt lat="46.08442" lon="6.51978">
        <ele>479.35</ele>
        <time>2010-06-12T09:59:28Z</time>
      </trkpt>
      <trkpt lat="46.08435" lon="6.51978">
        <ele>485.6</ele>
        <time>2010-06-12T09:59:30Z</time>
      </trkpt>
      <trkpt lat="46.08431" lon="6.51977">
        <ele>478.87</ele>
        <time>2010-06-12T09:59:31Z</time>
      </trkpt>
      <trkpt lat="46.08381" lon="6.51972">
        <ele>478.87</ele>
        <time>2010-06-12T09:59:44Z</time>
      </trkpt>
      <trkpt lat="46.08321" lon="6.51967">
        <ele>477.91</ele>
        <time>2010-06-12T09:59:59Z</time>
      </trkpt>
      <trkpt lat="46.08291" lon="6.51966">
        <ele>478.39</ele>
        <time>2010-06-12T10:00:06Z</time>
      </trkpt>
      <trkpt lat="46.08222" lon="6.51967">
        <ele>477.91</ele>
        <time>2010-06-12T10:00:22Z</time>
      </trkpt>
      <trkpt lat="46.08201" lon="6.51958">
        <ele>477.91</ele>
        <time>2010-06-12T10:00:27Z</time>
      </trkpt>
      <trkpt lat="46.08177" lon="6.51941">
        <ele>477.91</ele>
        <time>2010-06-12T10:00:33Z</time>
      </trkpt>
      <trkpt lat="46.0817" lon="6.51934">
        <ele>477.91</ele>
        <time>2010-06-12T10:00:35Z</time>
      </trkpt>
      <trkpt lat="46.08145" lon="6.51908">
        <ele>477.43</ele>
        <time>2010-06-12T10:00:42Z</time>
      </trkpt>
      <trkpt lat="46.08141" lon="6.51905">
        <ele>477.91</ele>
        <time>2010-06-12T10:00:43Z</time>
      </trkpt>
      <trkpt lat="46.08115" lon="6.5189">
        <ele>477.91</ele>
        <time>2010-06-12T10:00:52Z</time>
      </trkpt>
      <trkpt lat="46.08112" lon="6.51893">
        <ele>477.91</ele>
        <time>2010-06-12T10:00:53Z</time>
      </trkpt>
      <trkpt lat="46.08073" lon="6.51942">
        <ele>477.43</ele>
        <time>2010-06-12T10:01:07Z</time>
      </trkpt>
      <trkpt lat="46.0803" lon="6.51991">
        <ele>477.91</ele>
        <time>2010-06-12T10:01:19Z</time>
      </trkpt>
      <trkpt lat="46.07983" lon="6.52022">
        <ele>477.91</ele>
        <time>2010-06-12T10:01:30Z</time>
      </trkpt>
      <trkpt lat="46.07979" lon="6.52023">
        <ele>477.43</ele>
        <time>2010-06-12T10:01:31Z</time>
      </trkpt>
      <trkpt lat="46.07974" lon="6.52022">
        <ele>477.43</ele>
        <time>2010-06-12T10:01:32Z</time>
      </trkpt>
      <trkpt lat="46.0797" lon="6.5202">
        <ele>476.95</ele>
        <time>2010-06-12T10:01:33Z</time>
      </trkpt>
      <trkpt lat="46.07966" lon="6.52015">
        <ele>477.43</ele>
        <time>2010-06-12T10:01:34Z</time>
      </trkpt>
      <trkpt lat="46.07963" lon="6.52009">
        <ele>476.47</ele>
        <time>2010-06-12T10:01:35Z</time>
      </trkpt>
      <trkpt lat="46.07961" lon="6.52002">
        <ele>476.95</ele>
        <time>2010-06-12T10:01:36Z</time>
      </trkpt>
      <trkpt lat="46.0796" lon="6.51995">
        <ele>476.95</ele>
        <time>2010-06-12T10:01:37Z</time>
      </trkpt>
      <trkpt lat="46.07955" lon="6.51976">
        <ele>476.95</ele>
        <time>2010-06-12T10:01:40Z</time>
      </trkpt>
      <trkpt lat="46.07953" lon="6.51969">
        <ele>476.95</ele>
        <time>2010-06-12T10:01:41Z</time>
      </trkpt>
      <trkpt lat="46.07946" lon="6.51942">
        <ele>475.99</ele>
        <time>2010-06-12T10:01:45Z</time>
      </trkpt>
      <trkpt lat="46.07945" lon="6.51936">
        <ele>475.99</ele>
        <time>2010-06-12T10:01:46Z</time>
      </trkpt>
      <trkpt lat="46.07939" lon="6.51901">
        <ele>476.47</ele>
        <time>2010-06-12T10:01:51Z</time>
      </trkpt>
      <trkpt lat="46.07939" lon="6.51893">
        <ele>476.47</ele>
        <time>2010-06-12T10:01:52Z</time>
      </trkpt>
      <trkpt lat="46.07939" lon="6.51872">
        <ele>476.47</ele>
        <time>2010-06-12T10:01:55Z</time>
      </trkpt>
      <trkpt lat="46.07939" lon="6.51844">
        <ele>476.47</ele>
        <time>2010-06-12T10:01:59Z</time>
      </trkpt>
      <trkpt lat="46.07938" lon="6.51838">
        <ele>476.47</ele>
        <time>2010-06-12T10:02:00Z</time>
      </trkpt>
      <trkpt lat="46.07936" lon="6.51832">
        <ele>477.43</ele>
        <time>2010-06-12T10:02:01Z</time>
      </trkpt>
      <trkpt lat="46.07933" lon="6.51828">
        <ele>475.99</ele>
        <time>2010-06-12T10:02:02Z</time>
      </trkpt>
      <trkpt lat="46.07929" lon="6.51825">
        <ele>476.47</ele>
        <time>2010-06-12T10:02:03Z</time>
      </trkpt>
      <trkpt lat="46.07925" lon="6.51822">
        <ele>476.47</ele>
        <time>2010-06-12T10:02:04Z</time>
      </trkpt>
      <trkpt lat="46.0792" lon="6.51821">
        <ele>475.99</ele>
        <time>2010-06-12T10:02:05Z</time>
      </trkpt>
      <trkpt lat="46.07915" lon="6.5182">
        <ele>476.47</ele>
        <time>2010-06-12T10:02:06Z</time>
      </trkpt>
      <trkpt lat="46.07862" lon="6.51815">
        <ele>475.99</ele>
        <time>2010-06-12T10:02:18Z</time>
      </trkpt>
      <trkpt lat="46.07849" lon="6.51812">
        <ele>476.47</ele>
        <time>2010-06-12T10:02:21Z</time>
      </trkpt>
      <trkpt lat="46.07845" lon="6.5181">
        <ele>476.47</ele>
        <time>2010-06-12T10:02:22Z</time>
      </trkpt>
      <trkpt lat="46.07842" lon="6.51807">
        <ele>476.47</ele>
        <time>2010-06-12T10:02:23Z</time>
      </trkpt>
      <trkpt lat="46.0784" lon="6.51803">
        <ele>476.47</ele>
        <time>2010-06-12T10:02:24Z</time>
      </trkpt>
      <trkpt lat="46.07839" lon="6.51797">
        <ele>475.99</ele>
        <time>2010-06-12T10:02:25Z</time>
      </trkpt>
      <trkpt lat="46.07838" lon="6.51791">
        <ele>476.95</ele>
        <time>2010-06-12T10:02:26Z</time>
      </trkpt>
      <trkpt lat="46.07838" lon="6.51784">
        <ele>476.47</ele>
        <time>2010-06-12T10:02:27Z</time>
      </trkpt>
      <trkpt lat="46.07838" lon="6.51759">
        <ele>476.95</ele>
        <time>2010-06-12T10:02:31Z</time>
      </trkpt>
      <trkpt lat="46.07838" lon="6.51689">
        <ele>475.99</ele>
        <time>2010-06-12T10:02:41Z</time>
      </trkpt>
      <trkpt lat="46.07824" lon="6.51581">
        <ele>475.03</ele>
        <time>2010-06-12T10:02:53Z</time>
      </trkpt>
      <trkpt lat="46.07825" lon="6.51572">
        <ele>475.03</ele>
        <time>2010-06-12T10:02:54Z</time>
      </trkpt>
      <trkpt lat="46.07828" lon="6.51531">
        <ele>475.51</ele>
        <time>2010-06-12T10:02:59Z</time>
      </trkpt>
      <trkpt lat="46.07829" lon="6.51524">
        <ele>475.51</ele>
        <time>2010-06-12T10:03:00Z</time>
      </trkpt>
      <trkpt lat="46.07836" lon="6.51426">
        <ele>475.03</ele>
        <time>2010-06-12T10:03:12Z</time>
      </trkpt>
      <trkpt lat="46.07837" lon="6.51409">
        <ele>474.55</ele>
        <time>2010-06-12T10:03:14Z</time>
      </trkpt>
      <trkpt lat="46.07837" lon="6.514">
        <ele>475.03</ele>
        <time>2010-06-12T10:03:15Z</time>
      </trkpt>
      <trkpt lat="46.07841" lon="6.51274">
        <ele>475.03</ele>
        <time>2010-06-12T10:03:30Z</time>
      </trkpt>
      <trkpt lat="46.07841" lon="6.51252">
        <ele>475.03</ele>
        <time>2010-06-12T10:03:33Z</time>
      </trkpt>
      <trkpt lat="46.0784" lon="6.51245">
        <ele>475.03</ele>
        <time>2010-06-12T10:03:34Z</time>
      </trkpt>
      <trkpt lat="46.07839" lon="6.51238">
        <ele>475.03</ele>
        <time>2010-06-12T10:03:35Z</time>
      </trkpt>
      <trkpt lat="46.07837" lon="6.51231">
        <ele>475.51</ele>
        <time>2010-06-12T10:03:36Z</time>
      </trkpt>
      <trkpt lat="46.07835" lon="6.51224">
        <ele>475.51</ele>
        <time>2010-06-12T10:03:37Z</time>
      </trkpt>
      <trkpt lat="46.07834" lon="6.51217">
        <ele>475.03</ele>
        <time>2010-06-12T10:03:38Z</time>
      </trkpt>
      <trkpt lat="46.07834" lon="6.5121">
        <ele>474.55</ele>
        <time>2010-06-12T10:03:39Z</time>
      </trkpt>
      <trkpt lat="46.07835" lon="6.51203">
        <ele>474.55</ele>
        <time>2010-06-12T10:03:40Z</time>
      </trkpt>
      <trkpt lat="46.07836" lon="6.51195">
        <ele>475.03</ele>
        <time>2010-06-12T10:03:41Z</time>
      </trkpt>
      <trkpt lat="46.0784" lon="6.51156">
        <ele>469.74</ele>
        <time>2010-06-12T10:03:46Z</time>
      </trkpt>
      <trkpt lat="46.07841" lon="6.51148">
        <ele>476.47</ele>
        <time>2010-06-12T10:03:47Z</time>
      </trkpt>
      <trkpt lat="46.07842" lon="6.51141">
        <ele>471.18</ele>
        <time>2010-06-12T10:03:48Z</time>
      </trkpt>
      <trkpt lat="46.07843" lon="6.51133">
        <ele>476.47</ele>
        <time>2010-06-12T10:03:49Z</time>
      </trkpt>
      <trkpt lat="46.07854" lon="6.51032">
        <ele>475.51</ele>
        <time>2010-06-12T10:04:01Z</time>
      </trkpt>
      <trkpt lat="46.07865" lon="6.50923">
        <ele>475.03</ele>
        <time>2010-06-12T10:04:13Z</time>
      </trkpt>
      <trkpt lat="46.07879" lon="6.50799">
        <ele>474.55</ele>
        <time>2010-06-12T10:04:27Z</time>
      </trkpt>
      <trkpt lat="46.07884" lon="6.50749">
        <ele>475.51</ele>
        <time>2010-06-12T10:04:32Z</time>
      </trkpt>
      <trkpt lat="46.07885" lon="6.50739">
        <ele>471.66</ele>
        <time>2010-06-12T10:04:33Z</time>
      </trkpt>
      <trkpt lat="46.07887" lon="6.50721">
        <ele>475.03</ele>
        <time>2010-06-12T10:04:35Z</time>
      </trkpt>
      <trkpt lat="46.07899" lon="6.50595">
        <ele>475.99</ele>
        <time>2010-06-12T10:04:50Z</time>
      </trkpt>
      <trkpt lat="46.07903" lon="6.50547">
        <ele>472.14</ele>
        <time>2010-06-12T10:04:57Z</time>
      </trkpt>
      <trkpt lat="46.07904" lon="6.50542">
        <ele>476.95</ele>
        <time>2010-06-12T10:04:58Z</time>
      </trkpt>
      <trkpt lat="46.07906" lon="6.50537">
        <ele>475.99</ele>
        <time>2010-06-12T10:05:00Z</time>
      </trkpt>
      <trkpt lat="46.07909" lon="6.50538">
        <ele>476.47</ele>
        <time>2010-06-12T10:05:01Z</time>
      </trkpt>
      <trkpt lat="46.07912" lon="6.5054">
        <ele>475.51</ele>
        <time>2010-06-12T10:05:02Z</time>
      </trkpt>
    </trkseg>
  </trk>
</gpx>